GFSSGP_con_mucape_021.txt.gz
CAPE
276 27 205 907 1230 727 601 253 42 88 29 0 21 24 6 0 0 528 477 424 0 104 428 1010 1836 1198 1563 1335 1707 923 893 299 329 427 410 387 530 630 671 725 1198 1452 1768 1651 1647 1728 1677 1557 1758
20 26 317 966 446 480 234 84 47 32 5 0 30 27 7 0 1 719 549 472 0 156 507 777 1838 1403 1059 1519 1141 776 536 52 13 22 30 74 113 206 258 379 639 1092 1295 1420 1801 1637 1611 1598 1618
12 13 369 376 182 110 203 45 57 19 7 7 1 2 0 0 0 206 309 526 215 188 350 1366 2297 1921 1770 1115 815 514 252 28 31 0 0 7 45 124 240 267 413 700 590 808 1513 1672 1799 1803 1614
5 15 5 100 141 239 54 69 43 49 27 0 0 0 0 0 0 28 410 521 527 520 404 1236 1912 1958 1141 760 533 345 251 176 138 69 0 7 3 2 1 40 434 401 143 543 810 955 1196 1642 1772
0 63 151 146 69 61 46 6 30 58 42 0 0 0 0 0 6 168 351 473 715 543 453 561 1970 1528 916 680 426 254 254 101 153 25 0 0 0 0 0 0 0 18 0 3 290 520 772 1036 1742
0 0 5 17 19 33 13 0 0 26 45 1 0 0 0 0 0 254 306 422 589 370 195 585 1941 1477 982 515 354 453 267 39 0 0 0 0 0 0 0 0 0 0 0 0 0 48 193 466 1310
0 0 0 0 0 0 0 0 0 4 13 22 0 0 0 0 0 266 335 274 178 23 1 50 580 1251 774 284 368 496 143 12 0 0 0 0 0 0 0 0 0 0 0 0 0 0 0 18 256
0 0 0 0 0 0 0 0 0 0 0 0 0 0 0 0 0 156 235 135 11 0 0 0 434 871 507 74 157 159 10 0 0 0 0 0 0 0 0 0 0 0 0 0 0 0 0 0 0
0 0 0 0 0 0 0 0 0 0 0 0 0 0 0 0 0 72 177 140 4 0 0 0 65 382 224 13 4 0 0 0 0 0 0 0 0 0 0 0 0 0 0 0 0 0 0 0 0
0 0 0 0 0 0 0 0 0 0 0 0 0 0 0 0 0 42 109 92 2 0 0 0 0 35 123 0 0 0 0 0 0 0 0 0 0 0 0 0 0 0 0 0 0 0 0 0 0
0 0 0 0 0 0 0 0 0 0 0 0 0 0 0 0 0 4 23 1 0 0 0 0 0 0 0 0 0 0 0 0 0 0 0 0 0 0 0 0 0 0 0 0 0 0 0 0 0
0 0 0 0 0 0 0 0 0 0 0 0 0 0 0 0 0 0 0 0 0 0 0 0 0 0 0 0 0 0 0 0 0 0 0 0 0 0 0 0 0 0 0 0 0 0 0 0 0
0 0 0 0 0 0 0 0 0 0 0 0 0 0 0 0 0 0 0 0 0 0 0 2 1 0 0 0 0 0 0 0 0 0 0 0 0 0 0 0 0 0 0 0 0 0 0 0 0
0 0 0 0 0 0 0 0 0 0 0 0 0 0 0 0 0 0 0 0 0 0 0 0 47 0 0 0 0 0 0 0 0 0 0 0 0 0 0 0 0 0 0 0 0 0 0 0 0
0 0 0 0 0 0 0 0 0 0 0 0 0 0 0 0 0 0 0 0 0 0 0 0 3 6 0 0 0 0 0 0 0 0 0 0 0 0 0 0 0 0 0 0 0 0 0 0 0
0 0 0 0 0 0 0 0 0 0 0 0 0 0 0 0 0 0 0 0 0 0 0 0 4 24 0 0 0 0 0 0 0 0 0 0 0 0 0 0 0 0 0 0 0 0 0 0 0
0 0 0 0 0 0 0 0 0 0 0 0 0 0 0 0 0 0 0 0 0 0 0 0 0 0 0 0 0 0 0 0 0 0 0 0 0 0 0 0 0 0 0 0 0 0 0 0 0
0 0 0 0 0 0 0 0 0 0 0 0 0 0 0 0 0 0 0 0 0 0 0 0 0 0 0 0 0 0 0 0 0 0 0 0 0 0 0 0 0 0 0 0 0 0 0 0 0
0 0 0 0 0 0 0 0 0 0 0 0 0 0 0 0 0 0 0 0 0 0 0 0 0 0 0 0 0 0 0 0 0 0 0 0 0 0 0 0 0 0 0 0 0 0 0 0 0
0 0 0 0 0 0 0 0 0 0 0 0 0 0 0 0 0 0 0 0 0 0 0 0 0 0 0 0 0 0 0 0 0 0 0 0 0 0 0 0 0 0 0 0 0 0 0 0 0
0 0 0 0 0 0 0 0 0 0 0 0 0 0 0 0 0 0 0 0 0 0 0 0 0 0 0 5 0 0 0 0 0 0 0 0 0 0 0 0 0 0 0 0 0 0 0 0 0
0 0 0 0 0 0 0 0 0 0 0 0 0 0 0 0 0 0 0 0 0 0 0 0 0 0 0 0 3 0 0 0 0 0 0 0 0 0 0 0 0 0 0 0 0 0 0 0 0
0 0 0 0 0 0 0 0 0 0 0 0 0 0 0 0 0 0 0 0 0 0 0 0 0 0 0 0 0 0 0 0 0 0 0 0 0 0 0 0 0 0 0 0 0 0 0 0 0
0 0 0 0 0 0 0 0 0 0 0 0 0 0 0 0 0 0 0 0 0 0 0 0 0 0 0 0 0 1 0 0 0 0 0 0 0 0 0 0 0 0 0 0 0 0 0 0 0
0 0 0 0 0 0 0 0 0 0 0 0 0 0 0 0 0 0 0 0 0 0 0 0 0 0 0 0 0 0 0 0 0 0 0 0 0 0 0 0 0 0 0 0 0 0 0 0 0
0 0 0 0 0 0 0 0 0 0 0 0 0 0 0 0 0 0 0 0 0 0 0 0 0 0 0 0 0 0 0 0 0 0 0 0 0 0 0 0 0 0 0 0 0 0 0 0 0
0 0 0 0 0 0 0 0 0 0 0 0 0 0 0 0 0 0 0 0 0 0 0 0 0 0 0 0 0 0 0 0 0 0 0 0 0 0 0 0 0 0 0 0 0 0 0 0 0
0 0 0 0 0 0 0 0 0 0 0 0 0 0 0 0 0 0 0 0 0 0 0 0 0 0 0 0 0 0 0 0 0 0 0 0 0 0 0 0 0 0 0 0 0 0 0 0 0
0 0 0 0 0 0 0 0 0 0 0 0 0 0 1 42 0 0 0 0 0 1 9 4 6 3 1 0 0 0 0 0 0 0 0 0 0 0 0 0 0 0 0 0 0 0 0 0 0
0 0 0 0 0 0 0 0 0 0 0 0 0 5 41 44 10 14 7 3 1 52 13 3 0 5 8 0 0 0 0 0 0 0 0 0 0 0 0 0 0 0 0 0 0 0 0 0 0

GFSSGP_con_mucape_024.txt.gz
CAPE
205 100 222 1616 1576 1180 265 161 68 97 52 0 0 0 0 0 1 715 561 108 0 132 570 1199 1717 1367 1312 1347 1005 860 444 387 414 380 362 463 486 486 557 839 1278 1402 1683 1567 1598 1696 1531 1652 1885
5 11 974 1646 984 368 115 29 126 34 0 0 0 0 0 0 73 515 355 38 2 230 192 1320 1611 2041 1344 1512 1073 629 217 74 42 51 56 63 169 219 273 520 760 872 999 1557 1644 1614 1558 1529 1600
7 16 731 962 674 208 146 29 95 29 0 0 0 0 0 0 2 407 387 64 8 143 598 1656 2207 1966 1625 1176 812 508 109 50 0 0 0 17 71 116 133 274 282 233 732 1011 1280 1483 1801 1649 1563
26 302 50 192 180 172 30 38 20 35 20 1 0 0 0 0 0 81 314 181 11 187 1149 2427 2379 2258 1419 1018 708 324 143 96 40 0 1 0 0 0 0 45 8 2 162 427 1015 852 1069 1643 1635
8 231 408 240 207 86 45 6 0 0 42 14 0 0 0 0 32 211 206 219 276 343 827 1496 2369 1749 1169 807 500 364 205 246 109 0 0 0 0 0 0 0 3 0 0 56 187 414 806 1541 1913
0 0 0 0 2 0 3 2 0 0 5 21 0 0 0 0 11 133 175 210 255 350 631 975 2168 1551 1161 709 365 352 167 36 0 0 0 0 0 0 0 0 0 0 0 0 1 34 263 805 1554
0 0 0 0 0 0 0 0 0 0 0 0 2 0 0 0 3 127 128 139 246 241 216 689 1373 1245 1398 866 587 509 242 28 0 0 0 0 0 0 0 0 0 0 0 0 0 0 0 119 477
0 0 0 0 0 0 0 0 0 0 0 0 0 0 0 0 0 93 53 42 103 27 4 332 781 855 532 273 962 552 191 4 0 0 0 0 0 0 0 0 0 0 0 0 0 0 0 0 0
0 0 0 0 0 0 0 0 0 0 0 0 0 0 0 0 0 13 39 14 4 0 0 0 437 495 371 124 321 320 65 0 0 0 0 0 0 0 0 0 0 0 0 0 0 0 0 0 0
0 0 0 0 0 0 0 0 0 0 0 0 0 0 0 0 0 0 23 35 0 0 0 0 180 368 204 61 4 0 0 0 0 0 0 0 0 0 0 0 0 0 0 0 0 0 0 0 0
0 0 0 0 0 0 0 0 0 0 0 0 0 0 0 0 0 0 3 19 6 0 0 0 0 208 128 50 3 0 0 0 0 0 0 0 0 0 0 0 0 0 0 0 0 0 0 0 0
0 0 0 0 0 0 0 0 0 0 0 0 0 0 0 0 0 0 0 3 0 0 0 0 0 0 35 46 0 0 0 0 0 0 0 0 0 0 0 0 0 0 0 0 0 0 0 0 0
0 0 0 0 0 0 0 0 0 0 0 0 0 0 0 0 0 0 0 0 0 0 0 0 0 0 0 0 0 0 0 0 0 0 0 0 0 0 0 0 0 0 0 0 0 0 0 0 0
0 0 0 0 0 0 0 0 0 0 0 0 0 0 0 0 0 0 0 0 0 0 0 0 0 0 0 0 0 0 0 0 0 0 0 0 0 0 0 0 0 0 0 0 0 0 0 0 0
0 0 0 0 0 0 0 0 0 0 0 0 0 0 0 0 0 0 0 0 0 0 0 0 0 0 0 0 0 0 0 0 0 0 0 0 0 0 0 0 0 0 0 0 0 0 0 0 0
0 0 0 0 0 0 0 0 0 0 0 0 0 0 0 0 0 0 0 0 0 0 0 0 0 14 31 0 0 0 0 0 0 0 0 0 0 0 0 0 0 0 0 0 0 0 0 0 0
0 0 0 0 0 0 0 0 0 0 0 0 0 0 0 0 0 0 0 0 0 0 0 0 0 0 69 28 0 0 0 0 0 0 0 0 0 0 0 0 0 0 0 0 0 0 0 0 0
0 0 0 0 0 0 0 0 0 0 0 0 0 0 0 0 0 0 0 0 0 0 0 0 0 6 17 68 17 0 0 0 0 0 0 0 0 0 0 0 0 0 0 0 0 0 0 0 0
0 0 0 0 0 0 0 0 0 0 0 0 0 0 0 0 0 0 0 0 0 0 0 0 0 0 21 28 19 0 0 0 0 0 0 0 0 0 0 0 0 0 0 0 0 0 0 0 0
0 0 0 0 0 0 0 0 0 0 0 0 0 0 0 0 0 0 0 0 0 0 0 0 0 0 0 28 38 18 0 0 0 0 0 0 0 0 0 0 0 0 0 0 0 0 0 0 0
0 0 0 0 0 0 0 0 0 0 0 0 0 0 0 0 0 0 0 0 0 0 0 0 0 0 0 0 4 32 6 2 0 0 0 0 0 0 0 0 0 0 0 0 0 0 0 0 0
0 0 0 0 0 0 0 0 0 0 0 0 0 0 0 0 0 0 0 0 0 0 0 0 0 0 0 0 0 3 29 0 0 0 0 0 0 0 0 0 0 0 0 0 0 0 0 0 0
0 0 0 0 0 0 0 0 0 0 0 0 0 0 0 0 0 0 0 0 0 0 0 0 0 0 0 0 0 0 0 23 0 0 0 0 0 0 0 0 0 0 0 0 0 0 0 0 0
0 0 0 0 0 0 0 0 0 0 0 0 0 0 0 0 0 0 0 0 0 0 0 0 0 0 0 0 0 0 0 0 21 3 0 0 0 0 0 0 0 0 0 0 0 0 0 0 0
0 0 0 0 0 0 0 0 0 0 0 0 0 0 0 0 0 0 0 0 0 0 0 0 0 0 0 0 0 0 0 0 0 7 2 0 0 0 0 0 0 0 0 0 0 0 0 0 0
0 0 0 0 0 0 0 0 0 0 0 0 0 0 0 0 0 0 0 0 0 0 0 0 0 0 0 0 0 0 0 0 0 0 3 2 0 0 0 0 0 0 0 0 0 0 0 0 0
0 0 0 0 0 0 0 0 0 0 0 0 0 0 0 0 0 0 0 0 0 0 0 0 0 0 0 0 0 0 0 0 0 0 9 10 4 0 0 0 0 0 0 0 0 0 0 0 0
0 0 0 0 0 0 0 0 0 0 0 0 0 0 0 0 0 0 0 0 0 0 0 7 7 0 0 0 1 1 0 0 0 0 3 12 8 7 0 0 0 0 0 0 0 0 0 0 0
0 0 0 0 0 0 0 0 0 0 0 0 0 0 0 1 1 0 0 0 0 0 0 0 0 0 0 0 2 0 0 0 0 0 0 13 8 4 6 0 0 0 0 0 0 0 0 0 0
0 0 0 0 0 0 0 0 0 0 0 0 0 0 0 0 0 0 0 0 0 0 0 0 0 0 0 11 0 0 2 12 5 0 0 0 14 0 6 0 0 0 0 0 0 0 0 0 0

GFSSGP_con_mucape_030.txt.gz
CAPE
57 12 9 593 150 98 10 13 10 0 0 0 0 0 0 0 0 0 156 526 607 857 1132 1748 1874 1161 1152 1209 1120 943 857 839 825 852 768 684 652 983 1016 1224 1493 1406 1473 1536 1409 1568 1576 1686 1448
46 6 96 281 63 25 0 7 11 0 0 0 0 0 0 0 310 166 77 238 621 785 1282 1430 1762 1462 1130 1078 941 750 655 564 444 398 398 433 393 591 670 551 819 1205 1376 1349 1442 1351 1548 1681 1356
0 1 21 77 48 0 5 14 7 5 1 0 0 0 0 0 230 83 72 525 579 705 1141 1102 2190 1887 1671 1100 791 558 417 332 141 62 49 65 137 238 155 271 486 777 613 1004 1481 1514 1372 1700 1552
0 48 12 0 0 0 6 9 6 3 0 0 0 0 0 0 70 70 140 357 443 464 1020 1712 2359 1769 1789 1277 722 457 207 83 22 11 5 0 14 25 0 8 224 146 168 304 656 912 1389 1731 1443
0 0 0 0 0 0 0 0 0 0 0 0 0 0 0 3 24 111 70 291 275 535 924 1824 2122 1649 1530 1231 783 427 117 44 55 3 0 0 0 0 0 0 1 31 96 127 111 325 822 1730 1296
0 0 0 0 0 0 0 0 0 0 0 0 0 0 0 41 105 162 121 153 256 846 1203 1569 2240 2166 1622 1229 897 466 311 48 0 0 0 0 0 0 0 0 0 0 1 3 18 266 995 1362 1204
0 0 0 0 0 0 0 0 0 0 0 0 0 0 0 185 174 210 126 393 653 923 1139 1395 1679 1869 2046 1742 1045 575 348 141 0 0 0 0 0 0 0 0 0 0 0 0 1 105 398 614 620
0 0 0 0 0 0 0 0 0 0 0 0 0 0 0 121 204 196 44 300 750 1118 1236 1568 1680 1407 1193 984 1302 668 452 175 0 0 0 0 0 0 0 0 0 0 0 0 0 0 41 204 174
0 0 0 0 0 0 0 0 0 0 0 0 0 0 0 0 74 125 88 172 590 739 1043 1394 1227 1064 861 656 685 905 427 130 15 0 1 0 0 0 0 0 0 0 0 0 0 0 0 0 54
0 0 0 0 0 0 0 0 0 0 0 0 0 0 0 0 37 87 71 68 291 591 758 1089 876 799 680 539 558 523 236 58 0 0 0 0 0 0 0 0 0 0 0 0 0 0 0 0 0
0 0 0 0 0 0 0 0 0 0 0 0 0 0 0 0 15 64 70 20 69 457 602 925 722 657 565 388 373 514 247 111 0 0 0 0 0 0 0 0 0 0 0 0 0 0 0 0 0
0 0 0 0 0 0 0 0 0 0 0 0 0 0 0 0 0 22 52 56 18 103 288 625 768 625 496 362 236 340 345 101 0 0 0 0 0 0 0 0 0 0 0 0 0 0 0 0 0
0 0 0 0 0 0 0 0 0 0 0 0 0 0 0 0 0 0 0 0 30 52 40 50 652 613 538 395 272 199 229 104 0 0 0 0 0 0 0 0 0 0 0 0 0 0 0 0 0
0 0 0 0 0 0 0 0 0 0 0 0 0 0 0 0 0 0 0 0 0 0 5 17 231 505 400 444 477 318 163 45 10 0 0 0 0 0 0 0 0 0 0 0 0 0 0 0 0
0 0 0 0 0 0 0 0 0 0 0 0 0 0 0 0 0 0 0 0 0 0 0 0 0 92 267 400 475 434 289 182 75 0 0 0 0 0 0 0 0 0 0 0 0 0 0 0 0
0 0 0 0 0 0 0 0 0 0 0 0 0 0 0 0 0 0 0 0 0 0 0 0 0 0 0 30 131 234 229 272 158 23 0 0 0 0 0 0 0 0 0 0 0 0 0 0 0
0 0 0 0 0 0 0 0 0 0 0 0 0 0 0 0 0 0 0 0 0 0 0 0 0 0 0 0 0 7 79 145 121 15 0 0 0 0 0 0 0 0 0 0 0 0 0 0 0
0 0 0 0 0 0 0 0 0 0 0 0 0 0 0 0 0 0 0 0 0 0 0 0 0 0 0 0 0 0 0 8 31 16 18 10 0 0 0 0 0 0 0 0 0 0 0 0 0
0 0 0 0 0 0 0 0 0 0 0 0 0 0 0 0 0 0 0 0 0 0 0 0 0 0 0 0 0 0 115 57 85 69 95 49 4 1 0 0 0 0 0 0 0 0 0 0 0
0 0 0 0 0 0 0 0 0 0 0 0 0 0 0 0 0 0 0 0 0 0 0 0 0 0 0 0 0 5 79 216 169 157 100 40 76 62 3 0 3 0 0 0 0 0 0 0 0
0 0 0 0 0 0 0 0 0 0 0 0 0 0 0 0 0 0 0 0 0 0 0 0 0 0 0 0 0 0 0 22 48 44 44 104 59 31 6 4 7 10 8 0 0 0 0 0 0
0 0 0 0 0 0 0 0 0 0 0 0 0 0 0 0 0 0 0 0 0 0 0 0 0 0 0 0 0 0 0 0 0 0 0 2 12 66 4 2 2 1 9 9 1 0 0 0 0
0 0 0 0 0 0 0 0 0 0 0 0 0 0 0 0 0 0 0 0 0 0 0 0 0 0 0 0 0 0 0 0 0 0 0 0 0 3 14 12 12 2 7 2 9 3 0 0 0
0 0 0 0 0 0 0 0 0 0 0 0 0 0 0 0 0 0 0 0 0 0 0 0 0 0 0 0 0 0 0 0 0 0 0 0 0 0 0 1 0 0 0 6 2 7 1 0 0
0 0 0 0 0 0 0 0 0 0 0 0 0 0 0 0 0 0 0 0 0 0 0 0 0 0 0 0 0 0 0 0 0 0 0 0 0 0 0 0 0 0 0 4 10 10 6 0 0
0 0 0 0 0 0 0 0 0 0 0 0 0 0 0 0 0 0 0 0 0 0 0 0 0 0 0 0 0 0 0 0 0 0 0 0 0 0 0 0 0 0 0 3 5 8 8 0 0
0 0 0 0 0 0 0 0 0 0 0 0 0 0 0 0 0 0 0 0 0 0 0 0 0 0 0 0 0 0 0 0 0 0 0 0 0 0 0 0 0 0 0 0 9 16 8 3 0
0 0 0 0 0 0 0 0 0 0 0 0 0 0 0 0 0 0 0 0 0 0 0 0 0 0 0 0 0 0 0 0 0 0 0 0 0 0 0 0 0 0 0 5 8 13 14 9 0
0 0 0 0 0 0 0 0 0 0 0 0 0 0 0 0 0 0 0 0 0 0 0 0 0 0 0 0 0 0 0 0 0 0 0 6 1 0 0 0 0 0 0 20 34 27 19 9 0
0 0 0 0 0 0 0 0 0 0 0 0 0 0 0 0 0 0 0 0 0 0 0 0 0 0 0 0 0 0 0 0 0 0 0 5 42 1 0 0 0 16 1 62 79 58 36 8 0

GFSSGP_con_mucape_033.txt.gz
CAPE
66 18 8 362 16 10 0 2 0 0 0 0 0 0 0 0 0 0 66 229 280 547 1179 1507 1557 1119 1339 1298 1298 1237 1236 1159 1145 1056 920 815 914 1084 1225 1230 749 1184 1588 1346 1568 1623 1566 1347 1429
23 7 74 107 10 0 0 0 1 0 0 0 0 0 0 0 145 57 145 352 430 865 1106 1333 1550 1217 1222 1167 1075 929 901 850 871 812 685 555 587 646 739 976 1145 1112 1321 1347 1283 1554 1623 1345 1598
11 10 4 5 0 0 0 6 0 0 0 0 0 0 0 0 113 20 7 382 482 715 1279 1328 1853 1401 1460 1100 960 807 717 581 478 340 313 185 346 443 343 707 399 425 1243 1569 1349 1284 1547 1475 1640
0 27 6 0 0 0 0 0 0 0 0 0 0 0 0 0 24 9 29 417 393 767 1174 1294 1876 1224 1039 571 856 632 521 413 115 13 4 2 65 85 52 292 396 244 149 322 947 1239 1564 1452 1565
0 0 0 0 0 0 0 0 0 0 0 0 0 0 0 0 8 18 289 379 282 655 920 1349 1877 1761 1735 1135 870 568 241 71 1 0 0 0 1 2 0 10 94 94 78 101 158 486 1386 1322 1423
0 0 0 0 0 0 0 0 0 0 0 0 0 0 0 0 0 32 206 284 188 463 721 1511 2418 2408 2102 1237 788 612 147 60 40 0 0 0 0 0 1 0 2 5 12 9 42 172 719 1222 1235
0 0 0 0 0 0 0 0 0 0 0 0 0 0 0 0 14 70 106 156 185 561 959 1595 1806 1992 2337 1887 1310 731 417 104 22 0 0 0 0 0 0 0 0 0 1 4 5 107 773 1252 935
0 0 0 0 0 0 0 0 0 0 0 0 0 0 0 0 36 67 87 247 404 890 1019 1406 1595 1693 1599 1450 1764 835 516 359 18 5 0 0 0 0 0 0 0 0 0 0 1 1 317 369 312
0 0 0 0 0 0 0 0 0 0 0 0 0 0 0 0 37 112 64 503 751 1066 1116 1302 1593 1682 1505 1287 1181 1179 596 511 135 78 14 1 0 0 0 0 0 0 0 0 0 0 0 0 65
0 0 0 0 0 0 0 0 0 0 0 0 0 0 0 0 28 171 79 135 676 1020 1238 1341 1519 1544 1344 1066 856 768 421 288 82 2 0 0 0 0 0 0 0 0 0 0 0 0 0 0 0
0 0 0 0 0 0 0 0 0 0 0 0 0 0 0 0 0 150 149 76 165 546 916 1230 1339 1340 1155 794 591 666 419 258 98 0 0 0 0 0 0 0 0 0 0 0 0 0 0 0 0
0 0 0 0 0 0 0 0 0 0 0 0 0 0 0 0 0 5 100 152 155 153 299 786 1228 1109 983 703 559 634 568 339 156 5 0 0 0 0 0 0 0 0 0 0 0 0 0 0 0
0 0 0 0 0 0 0 0 0 0 0 0 0 0 0 0 0 0 0 0 11 67 122 143 633 1059 834 762 547 553 568 411 302 33 0 0 0 0 0 0 0 0 0 0 0 0 0 0 0
0 0 0 0 0 0 0 0 0 0 0 0 0 0 0 0 0 0 0 0 0 0 0 17 111 878 1029 835 666 486 355 256 312 168 0 0 0 0 0 0 0 0 0 0 0 0 0 0 0
0 0 0 0 0 0 0 0 0 0 0 0 0 0 0 0 0 0 0 0 0 0 0 0 0 4 783 876 795 652 482 406 308 241 41 17 0 0 0 0 0 0 0 0 0 0 0 0 0
0 0 0 0 0 0 0 0 0 0 0 0 0 0 0 0 0 0 0 0 0 0 0 0 0 0 0 107 468 533 518 545 629 448 278 137 36 13 2 0 0 0 0 0 0 0 0 0 0
0 0 0 0 0 0 0 0 0 0 0 0 0 0 0 0 0 0 0 0 0 0 0 0 0 0 0 0 0 1 60 155 269 381 482 434 166 34 28 18 5 0 0 0 0 0 0 0 0
0 0 0 0 0 0 0 0 0 0 0 0 0 0 0 0 0 0 0 0 0 0 0 0 0 0 0 0 0 0 3 55 112 144 200 495 361 109 44 12 17 17 12 0 0 0 0 0 0
0 0 0 0 0 0 0 0 0 0 0 0 0 0 0 0 0 0 0 0 0 0 0 0 0 0 0 0 0 0 0 0 33 201 253 269 259 114 26 10 39 26 1 16 13 0 0 0 0
0 0 0 0 0 0 0 0 0 0 0 0 0 0 0 0 0 0 0 0 0 0 0 0 0 0 0 0 0 0 0 0 0 20 312 417 396 225 118 6 0 0 2 26 4 7 5 0 0
0 0 0 0 0 0 0 0 0 0 0 0 0 0 0 0 0 0 0 0 0 0 0 0 0 0 0 0 0 0 0 0 0 0 0 86 308 259 240 112 54 7 6 7 4 4 3 9 0
0 0 0 0 0 0 0 0 0 0 0 0 0 0 0 0 0 0 0 0 0 0 0 0 0 0 0 0 0 0 0 0 0 0 0 0 0 0 1 30 39 65 36 1 0 3 3 6 9
0 0 0 0 0 0 0 0 0 0 0 0 0 0 0 0 0 0 0 0 0 0 0 0 0 0 0 0 0 0 0 0 0 0 0 0 0 0 0 0 0 12 12 40 0 0 0 2 6
0 0 0 0 0 0 0 0 0 0 0 0 0 0 0 0 0 0 0 0 0 0 0 0 0 0 0 0 0 0 0 0 0 0 0 0 0 0 0 0 0 0 0 0 27 0 2 0 3
0 0 0 0 0 0 0 0 0 0 0 0 0 0 0 0 0 0 0 0 0 0 0 0 0 0 0 0 0 0 0 0 0 0 0 0 0 0 0 0 0 0 0 0 0 30 0 2 0
0 0 0 0 0 0 0 0 0 0 0 0 0 0 0 0 0 0 0 0 0 0 0 0 0 0 0 0 0 0 0 0 0 0 0 0 0 0 0 0 0 0 0 0 0 1 13 0 0
0 0 0 0 0 0 0 0 0 0 0 0 0 0 0 0 0 0 0 0 0 0 0 0 0 0 0 0 0 0 0 0 0 0 0 0 0 0 0 0 0 0 0 0 0 0 2 7 0
0 0 0 0 0 0 0 0 0 0 0 0 0 0 0 0 0 0 0 0 0 0 0 0 0 0 0 0 0 0 0 0 0 0 0 0 0 0 0 0 0 0 0 0 0 0 0 13 7
0 0 0 0 0 0 0 0 0 0 0 0 0 0 0 0 0 0 0 0 0 0 0 0 0 0 0 0 0 0 0 0 0 0 0 0 0 0 0 0 0 0 0 0 0 0 0 7 37
0 0 0 0 0 0 0 0 0 0 0 0 0 0 0 0 0 0 0 0 0 0 0 0 0 0 0 0 0 0 0 0 0 0 0 0 0 0 0 0 0 0 0 0 0 0 5 50 49

GFSSGP_con_mucape_036.txt.gz
CAPE
66 11 9 263 0 0 0 0 0 0 0 0 0 0 0 0 0 0 9 79 174 287 1013 1099 1044 1231 1089 1252 1255 1346 936 994 966 729 566 764 843 1355 1212 547 1052 1557 1296 1518 1580 1446 1169 1294 1411
20 0 15 2 0 0 0 0 0 0 0 0 0 0 0 0 31 1 55 132 276 642 1166 1237 1183 1579 1026 1389 1165 871 993 1052 1037 670 594 540 547 564 824 1102 1196 939 1346 1240 1473 1584 1232 1510 1587
11 18 0 0 0 0 0 0 0 0 0 0 0 0 0 0 41 0 6 281 468 863 1197 1207 1046 1255 1372 715 833 835 812 811 767 660 466 223 311 416 481 690 317 278 1230 1294 1240 1481 1319 1604 1549
0 0 0 0 0 0 0 0 0 0 0 0 0 0 0 0 4 2 116 388 596 857 1268 1343 1625 1459 1073 650 546 813 714 573 384 115 22 11 100 108 135 401 97 193 218 518 597 1241 1509 1514 1629
0 0 0 0 0 0 0 0 0 0 0 0 0 0 0 0 0 13 364 358 409 912 1178 1484 1569 1493 1311 1313 790 783 592 367 42 1 0 0 1 2 0 31 104 90 46 66 199 472 1410 1387 1524
0 0 0 0 0 0 0 0 0 0 0 0 0 0 0 0 0 112 380 269 305 713 980 1405 2002 1794 1776 966 1421 808 470 174 58 28 0 0 0 0 0 0 3 6 6 17 25 192 784 1259 1224
0 0 0 0 0 0 0 0 0 0 0 0 0 0 0 0 0 64 356 283 280 610 774 1263 1808 2170 2586 1879 806 870 474 181 147 50 0 0 0 0 0 0 0 0 2 2 4 0 705 1214 1087
0 0 0 0 0 0 0 0 0 0 0 0 0 0 0 0 0 30 220 268 299 525 767 1338 1927 1997 1961 1484 1792 1177 758 255 174 57 8 1 0 0 0 0 0 0 0 0 2 4 308 383 335
0 0 0 0 0 0 0 0 0 0 0 0 0 0 0 0 0 81 165 223 394 689 849 1254 1738 1872 1786 1567 1501 1560 1070 737 267 154 94 0 0 0 0 0 0 0 0 0 0 0 2 71 14
0 0 0 0 0 0 0 0 0 0 0 0 0 0 0 0 38 182 121 108 386 611 927 1131 1495 1645 1773 1598 1424 1321 914 658 259 67 23 0 0 0 0 0 0 0 0 0 0 0 0 0 0
0 0 0 0 0 0 0 0 0 0 0 0 0 0 0 0 4 240 204 147 128 124 364 1078 1255 1694 1593 1536 1356 1276 1039 638 475 60 1 0 0 0 0 0 0 0 0 0 0 0 0 0 0
0 0 0 0 0 0 0 0 0 0 0 0 0 0 0 0 0 0 87 147 194 185 179 201 850 1394 1424 1423 1228 1035 986 669 509 208 20 0 0 0 0 0 0 0 0 0 0 0 0 0 0
0 0 0 0 0 0 0 0 0 0 0 0 0 0 0 0 0 0 0 0 0 0 68 187 246 546 1136 1588 1318 957 761 727 600 404 159 6 0 0 0 0 0 0 0 0 0 0 0 0 0
0 0 0 0 0 0 0 0 0 0 0 0 0 0 0 0 0 0 0 0 0 0 0 0 0 3 871 1187 1307 1125 888 694 641 607 486 171 16 2 1 0 0 0 0 0 0 0 0 0 0
0 0 0 0 0 0 0 0 0 0 0 0 0 0 0 0 0 0 0 0 0 0 0 0 0 0 0 678 789 1092 1088 947 702 558 492 449 210 67 30 22 7 0 0 0 0 0 0 0 0
0 0 0 0 0 0 0 0 0 0 0 0 0 0 0 0 0 0 0 0 0 0 0 0 0 0 0 0 0 543 1065 967 835 816 728 674 534 364 195 75 41 26 10 0 0 0 0 0 0
0 0 0 0 0 0 0 0 0 0 0 0 0 0 0 0 0 0 0 0 0 0 0 0 0 0 0 0 0 0 0 0 27 178 408 624 514 488 396 238 92 30 30 20 11 0 0 0 0
0 0 0 0 0 0 0 0 0 0 0 0 0 0 0 0 0 0 0 0 0 0 0 0 0 0 0 0 0 0 0 0 0 9 102 202 297 473 439 444 225 98 64 12 8 7 4 0 0
0 0 0 0 0 0 0 0 0 0 0 0 0 0 0 0 0 0 0 0 0 0 0 0 0 0 0 0 0 0 0 0 0 0 0 14 205 288 398 599 388 196 111 75 78 27 5 1 0
0 0 0 0 0 0 0 0 0 0 0 0 0 0 0 0 0 0 0 0 0 0 0 0 0 0 0 0 0 0 0 0 0 0 0 0 3 98 340 421 370 329 165 73 42 28 15 8 2
0 0 0 0 0 0 0 0 0 0 0 0 0 0 0 0 0 0 0 0 0 0 0 0 0 0 0 0 0 0 0 0 0 0 0 0 0 0 0 21 267 225 165 37 51 3 0 7 3
0 0 0 0 0 0 0 0 0 0 0 0 0 0 0 0 0 0 0 0 0 0 0 0 0 0 0 0 0 0 0 0 0 0 0 0 0 0 0 0 0 0 66 45 24 9 19 6 0
0 0 0 0 0 0 0 0 0 0 0 0 0 0 0 0 0 0 0 0 0 0 0 0 0 0 0 0 0 0 0 0 0 0 0 0 0 0 0 0 0 0 0 2 6 18 52 81 20
0 0 0 0 0 0 0 0 0 0 0 0 0 0 0 0 0 0 0 0 0 0 0 0 0 0 0 0 0 0 0 0 0 0 0 0 0 0 0 0 0 0 0 0 0 6 30 62 52
0 0 0 0 0 0 0 0 0 0 0 0 0 0 0 0 0 0 0 0 0 0 0 0 0 0 0 0 0 0 0 0 0 0 0 0 0 0 0 0 0 0 0 0 0 0 0 17 47
0 0 0 0 0 0 0 0 0 0 0 0 0 0 0 0 0 0 0 0 0 0 0 0 0 0 0 0 0 0 0 0 0 0 0 0 0 0 0 0 0 0 0 0 0 0 0 0 0
0 0 0 0 0 0 0 0 0 0 0 0 0 0 0 0 0 0 0 0 0 0 0 0 0 0 0 0 0 0 0 0 0 0 0 0 0 0 0 0 0 0 0 0 0 0 0 0 0
0 0 0 0 0 0 0 0 0 0 0 0 0 0 0 0 0 0 0 0 0 0 0 0 0 0 0 0 0 0 0 0 0 0 0 0 0 0 0 0 0 0 0 0 0 0 0 0 0
0 0 0 0 0 0 0 0 0 0 0 0 0 0 0 0 0 0 0 0 0 0 0 0 0 0 0 0 0 0 0 0 0 0 0 0 0 0 0 0 0 0 0 0 0 0 0 0 0
0 0 0 0 0 0 0 0 0 0 0 0 0 0 0 0 0 0 0 0 0 0 0 0 0 0 0 0 0 0 0 0 0 0 0 0 0 0 0 0 0 0 0 0 0 0 0 0 0

GFSSGP_con_mucape_039.txt.gz
CAPE
105 0 0 134 0 2 0 0 0 0 0 0 0 0 0 0 0 0 42 242 257 436 1048 1079 1159 1219 887 742 1072 1196 895 918 404 443 207 578 803 1057 464 460 1052 1363 1280 1622 1541 1076 950 988 1079
0 0 4 0 0 0 0 0 0 0 0 0 0 0 0 0 18 29 150 272 420 491 1041 924 1031 1060 1146 1118 1103 900 691 786 984 558 267 460 420 449 298 934 625 878 1248 1234 1582 1248 1333 1527 1439
0 0 2 0 0 0 0 0 0 0 0 0 0 0 0 0 53 0 35 436 546 723 1213 1200 671 1271 822 914 735 603 801 866 863 610 449 185 228 102 229 630 206 709 1069 1080 1171 1352 1331 1538 1433
0 0 0 0 0 0 0 0 0 0 0 0 0 0 0 0 0 0 266 605 782 972 1330 1517 965 967 1166 862 549 388 752 635 481 200 36 24 78 95 176 367 49 138 251 489 682 1022 1314 1487 1518
0 0 0 0 0 0 0 0 0 0 0 0 0 0 0 0 1 197 607 736 817 1028 1249 1250 1728 1306 1383 1229 560 497 735 531 207 21 0 0 0 1 0 3 55 103 37 31 255 373 1226 1424 1443
0 0 0 0 0 0 0 0 0 0 0 0 0 0 0 0 0 382 616 684 763 960 1149 1303 1979 2056 1816 1113 930 902 708 385 80 45 4 0 0 0 0 0 0 0 2 3 14 164 437 1242 1147
0 0 0 0 0 0 0 0 0 0 0 0 0 0 0 0 0 265 514 419 632 752 1003 1278 1435 1727 2210 1774 1282 780 872 348 150 96 28 0 0 0 0 0 0 0 0 0 0 56 749 1035 1076
0 0 0 0 0 0 0 0 0 0 0 0 0 0 0 0 0 161 288 261 499 751 858 1184 1822 1936 2030 1775 1816 1432 1009 477 296 140 55 14 0 0 0 0 0 0 0 0 0 0 151 228 7
0 0 0 0 0 0 0 0 0 0 0 0 0 0 0 0 0 55 179 249 488 803 901 1174 1523 2069 2059 1997 1642 1706 1341 855 551 325 160 31 0 0 0 0 0 0 0 0 0 0 0 1 5
0 0 0 0 0 0 0 0 0 0 0 0 0 0 0 0 16 67 81 66 100 190 467 1214 1405 1757 1959 1777 1845 1755 1572 1221 912 293 140 58 0 0 0 0 0 0 0 0 0 0 0 0 0
0 0 0 0 0 0 0 0 0 0 0 0 0 0 0 0 0 50 88 63 58 58 65 265 960 1573 1473 1565 1696 1839 1680 1309 968 551 162 24 0 0 0 0 0 0 0 0 0 0 0 0 0
0 0 0 0 0 0 0 0 0 0 0 0 0 0 0 0 0 0 0 28 65 86 139 169 174 736 1668 1912 1780 1649 1582 1269 943 637 488 46 0 0 0 0 0 0 0 0 0 0 0 0 0
0 0 0 0 0 0 0 0 0 0 0 0 0 0 0 0 0 0 0 0 0 0 0 0 0 58 179 1878 1839 1924 1518 1297 976 749 600 336 72 9 0 0 0 0 0 0 0 0 0 0 0
0 0 0 0 0 0 0 0 0 0 0 0 0 0 0 0 0 0 0 0 0 0 0 0 0 0 0 232 964 1467 1415 1514 1132 795 707 668 467 163 29 4 0 0 0 0 0 0 0 0 0
0 0 0 0 0 0 0 0 0 0 0 0 0 0 0 0 0 0 0 0 0 0 0 0 0 0 0 0 3 327 906 1118 1045 1366 1194 728 603 548 321 39 22 15 1 0 0 0 0 0 0
0 0 0 0 0 0 0 0 0 0 0 0 0 0 0 0 0 0 0 0 0 0 0 0 0 0 0 0 0 0 0 1 173 837 1032 1049 857 942 362 296 120 28 6 6 0 0 0 0 0
0 0 0 0 0 0 0 0 0 0 0 0 0 0 0 0 0 0 0 0 0 0 0 0 0 0 0 0 0 0 0 0 0 0 0 12 156 444 554 409 351 127 43 9 3 0 0 0 0
0 0 0 0 0 0 0 0 0 0 0 0 0 0 0 0 0 0 0 0 0 0 0 0 0 0 0 0 0 0 0 0 0 0 0 0 0 27 145 303 368 235 184 48 33 0 5 0 0
0 0 0 0 0 0 0 0 0 0 0 0 0 0 0 0 0 0 0 0 0 0 0 0 0 0 0 0 0 0 0 0 0 0 0 0 0 0 0 61 247 259 374 243 91 65 41 6 0
0 0 0 0 0 0 0 0 0 0 0 0 0 0 0 0 0 0 0 0 0 0 0 0 0 0 0 0 0 0 0 0 0 0 0 0 0 0 0 0 44 185 339 423 297 196 91 57 48
0 0 0 0 0 0 0 0 0 0 0 0 0 0 0 0 0 0 0 0 0 0 0 0 0 0 0 0 0 0 0 0 0 0 0 0 0 0 0 0 0 13 107 343 204 371 179 164 86
0 0 0 0 0 0 0 0 0 0 0 0 0 0 0 0 0 0 0 0 0 0 0 0 0 0 0 0 0 0 0 0 0 0 0 0 0 0 0 0 0 0 0 2 7 288 220 167 113
0 0 0 0 0 0 0 0 0 0 0 0 0 0 0 0 0 0 0 0 0 0 0 0 0 0 0 0 0 0 0 0 0 0 0 0 0 0 0 0 0 0 0 0 0 0 27 395 108
0 0 0 0 0 0 0 0 0 0 0 0 0 0 0 0 0 0 0 0 0 0 0 0 0 0 0 0 0 0 0 0 0 0 0 0 0 0 0 0 0 0 0 0 0 0 0 12 127
0 0 0 0 0 0 0 0 0 0 0 0 0 0 0 0 0 0 0 0 0 0 0 0 0 0 0 0 0 0 0 0 0 0 0 0 0 0 0 0 0 0 0 0 0 0 0 0 0
0 0 0 0 0 0 0 0 0 0 0 0 0 0 0 0 0 0 0 0 0 0 0 0 0 0 0 0 0 0 0 0 0 0 0 0 0 0 0 0 0 0 0 0 0 0 0 0 0
0 0 0 0 0 0 0 0 0 0 0 0 0 0 0 0 0 0 0 0 0 0 0 0 0 0 0 0 0 0 0 0 0 0 0 0 0 0 0 0 0 0 0 0 0 0 0 0 0
0 0 0 0 0 0 0 0 0 0 0 0 0 0 0 0 0 0 0 0 0 0 0 0 0 0 0 0 0 0 0 0 0 0 0 0 0 0 0 0 0 0 0 0 0 0 0 0 0
0 0 0 0 0 0 0 0 0 0 0 0 0 0 0 0 0 0 0 0 0 0 0 0 0 0 0 0 0 0 0 0 0 0 0 0 0 0 0 0 0 0 0 0 1 0 0 0 0
0 0 0 0 0 0 0 0 0 0 0 0 0 0 0 0 0 0 0 0 0 0 0 0 0 0 0 0 0 0 0 0 0 0 0 0 0 0 0 0 0 0 0 0 0 0 0 3 0

GFSSGP_con_mucape_042.txt.gz
CAPE
177 0 157 997 421 118 113 68 65 5 0 0 0 0 0 0 0 0 586 429 94 257 420 1116 1295 879 966 946 1636 686 973 804 360 134 134 549 726 588 491 635 1204 1198 1283 1568 986 1034 968 1091 1006
0 0 305 290 96 72 20 0 0 0 0 0 0 0 0 0 0 35 118 442 221 249 395 733 1112 1322 854 796 800 899 393 499 748 436 110 392 404 332 333 668 368 1120 1085 1293 1284 1187 1503 1581 1464
0 0 118 0 0 2 4 0 0 0 0 0 0 0 0 0 39 3 265 441 300 382 395 869 1421 485 836 482 847 527 774 944 980 560 448 136 188 58 289 486 85 558 953 964 976 1356 1328 1476 1403
0 51 0 0 0 0 0 0 0 0 0 0 0 0 0 0 121 109 365 351 323 537 609 1249 1448 910 796 675 446 387 822 726 588 304 49 55 129 90 199 170 42 171 359 312 571 717 1351 1427 1440
0 0 0 0 0 0 0 0 0 0 0 0 0 0 0 0 0 625 551 348 267 449 439 946 1226 1244 1121 904 522 436 912 724 426 60 7 23 39 4 4 0 5 20 21 23 225 490 783 1374 1309
0 0 0 0 0 0 0 0 0 0 0 0 0 0 0 0 0 740 691 494 352 453 450 494 1561 1492 1612 970 881 544 864 726 190 39 11 10 26 5 0 0 0 6 0 0 4 212 969 1023 1149
0 0 0 0 0 0 0 0 0 0 0 0 0 0 0 0 0 859 792 631 621 484 629 695 1013 1565 1879 1559 1087 658 862 774 220 107 30 1 1 1 0 0 0 0 0 0 0 60 588 783 1072
0 0 0 0 0 0 0 0 0 0 0 0 0 0 0 0 0 727 739 663 718 811 806 917 1252 1470 1575 1415 1921 1206 842 954 463 246 122 22 0 0 0 0 0 0 0 0 0 16 99 153 60
0 0 0 0 0 0 0 0 0 0 0 0 0 0 0 0 0 134 537 531 499 678 937 1064 1127 1400 1888 1815 1716 1557 1424 1264 718 544 288 118 9 0 0 0 0 0 0 0 0 0 0 0 0
0 0 0 0 0 0 0 0 0 0 0 0 0 0 0 0 0 22 44 23 21 0 5 234 1277 1407 1638 1867 1719 1768 1633 1342 1126 749 445 297 46 0 0 0 0 0 0 0 0 0 0 0 5
0 0 0 0 0 0 0 0 0 0 0 0 0 0 0 0 0 1 18 24 22 13 27 25 64 225 1245 1850 1912 2073 1819 1715 1280 1015 836 519 180 2 0 0 0 0 0 0 0 0 0 0 0
0 0 0 0 0 0 0 0 0 0 0 0 0 0 0 0 0 0 0 0 0 0 0 8 40 56 127 1093 1998 1882 2067 1848 1668 1307 990 864 621 201 0 0 0 0 0 0 0 0 0 0 0
0 0 0 0 0 0 0 0 0 0 0 0 0 0 0 0 0 0 0 0 0 0 0 0 0 0 1 444 1415 1558 1555 1546 1817 1550 1218 1013 746 733 263 3 0 0 0 0 0 0 0 0 0
0 0 0 0 0 0 0 0 0 0 0 0 0 0 0 0 0 0 0 0 0 0 0 0 0 0 0 0 260 426 1062 1264 1493 1022 1052 1012 1198 973 599 281 23 0 0 0 0 0 0 0 0
0 0 0 0 0 0 0 0 0 0 0 0 0 0 0 0 0 0 0 0 0 0 0 0 0 0 0 0 0 0 0 13 200 792 847 818 758 861 790 286 151 28 0 0 0 0 0 0 0
0 0 0 0 0 0 0 0 0 0 0 0 0 0 0 0 0 0 0 0 0 0 0 0 0 0 0 0 0 0 0 0 0 0 0 0 27 482 857 496 298 154 69 14 0 0 0 0 0
0 0 0 0 0 0 0 0 0 0 0 0 0 0 0 0 0 0 0 0 0 0 0 0 0 0 0 0 0 0 0 0 0 0 0 0 0 0 0 33 160 264 219 127 35 13 0 0 0
0 0 0 0 0 0 0 0 0 0 0 0 0 0 0 0 0 0 0 0 0 0 0 0 0 0 0 0 0 0 0 0 0 0 0 0 0 0 0 0 3 48 128 104 187 44 32 0 0
0 0 0 0 0 0 0 0 0 0 0 0 0 0 0 0 0 0 0 0 0 0 0 0 0 0 0 0 0 0 0 0 0 0 0 0 0 0 0 0 0 0 1 55 152 118 71 50 13
0 0 0 0 0 0 0 0 0 0 0 0 0 0 0 0 0 0 0 0 0 0 0 0 0 0 0 0 0 0 0 0 0 0 0 0 0 0 0 0 0 0 0 0 7 93 310 164 106
0 0 0 0 0 0 0 0 0 0 0 0 0 0 0 0 0 0 0 0 0 0 0 0 0 0 0 0 0 0 0 0 0 0 0 0 0 0 0 0 0 0 0 0 0 11 143 349 355
0 0 0 0 0 0 0 0 0 0 0 0 0 0 0 0 0 0 0 0 0 0 0 0 0 0 0 0 0 0 0 0 0 0 0 0 0 0 0 0 0 0 0 0 0 0 2 75 246
0 0 0 0 0 0 0 0 0 0 0 0 0 0 0 0 0 0 0 0 0 0 0 0 0 0 0 0 0 0 0 0 0 0 0 0 0 0 0 0 0 0 0 0 0 0 0 0 0
0 0 0 0 0 0 0 0 0 0 0 0 0 0 0 0 0 0 0 0 0 0 0 0 0 0 0 0 0 0 0 0 0 0 0 0 0 0 0 0 0 0 0 0 0 0 0 0 0
0 0 0 0 0 0 0 0 0 0 0 0 0 0 0 0 0 0 0 0 0 0 0 0 0 0 0 0 0 0 0 0 0 0 0 0 0 0 0 0 0 0 0 0 0 0 1 0 0
0 0 0 0 0 0 0 0 0 0 0 0 0 0 0 0 0 0 0 0 0 0 0 0 0 0 0 0 0 0 0 0 0 0 0 0 0 0 1 5 3 0 0 0 0 0 8 3 0
0 0 0 0 0 0 0 0 0 0 0 0 0 0 0 0 0 0 0 0 0 0 0 0 0 0 0 0 0 0 0 0 0 0 0 0 0 0 1 1 2 1 0 0 0 0 22 42 4
0 0 0 0 0 0 0 0 0 0 0 0 0 0 0 0 0 0 0 0 0 0 0 0 0 0 0 0 0 0 0 0 0 0 0 0 0 0 4 3 2 4 4 0 0 0 50 67 38
0 0 0 0 0 0 0 0 0 0 0 0 0 0 0 0 0 0 0 0 0 0 0 0 0 0 0 0 0 0 0 0 0 0 0 2 2 0 4 8 5 13 16 11 2 0 3 22 32
0 0 0 0 0 0 0 0 0 0 0 0 0 0 0 0 0 0 0 0 0 0 0 0 0 0 0 0 0 0 0 0 0 0 0 0 10 8 22 17 10 22 28 37 17 21 1 12 17

GFSSGP_con_mucape_048.txt.gz
CAPE
249 0 647 2083 2236 397 22 27 0 0 0 0 0 0 0 0 0 0 384 0 0 132 656 1156 1632 1211 923 1395 879 492 725 304 109 68 239 154 469 292 614 882 1171 1101 1415 1302 1312 1586 1402 1411 1507
0 7 1280 2023 57 20 24 3 0 0 0 0 0 8 0 0 3 33 6 0 0 232 130 737 1532 1395 1277 1337 1244 659 234 637 403 176 320 47 131 161 514 430 901 1077 1069 1190 1395 1460 1524 1529 1607
17 0 1192 1681 3 9 1 0 0 0 0 0 0 0 0 22 4 0 0 0 0 30 803 1076 1665 1032 922 893 600 284 169 672 672 428 135 2 68 98 457 307 414 554 592 811 1025 1245 1420 1380 1583
0 1066 823 75 0 0 0 0 0 0 0 0 0 0 0 0 118 0 0 0 0 257 1006 1782 1517 961 984 580 393 345 356 620 520 231 1 17 96 16 239 195 172 105 311 324 603 878 1135 1414 1327
50 395 70 18 0 0 0 0 0 0 0 0 0 0 0 281 316 2 0 0 1 442 532 985 1438 975 690 684 512 386 195 758 402 35 0 0 9 3 5 52 92 117 43 132 215 600 1397 1086 1173
519 72 41 19 0 0 0 0 0 0 0 0 0 0 0 0 717 264 50 0 0 0 491 523 1623 1585 1302 1002 650 303 407 731 355 43 0 0 0 0 0 0 1 6 24 6 7 262 825 1246 1148
470 167 11 0 0 0 0 0 0 0 0 0 0 0 0 0 90 663 186 64 30 0 28 573 656 1453 2270 1924 1462 827 741 994 485 141 83 4 0 0 0 0 0 0 0 0 0 16 433 768 1302
35 52 0 0 0 0 0 0 0 0 0 0 0 0 0 0 3 505 308 185 210 193 68 78 1195 1166 1285 1405 2125 1823 1085 1103 826 536 330 196 57 1 0 0 0 0 0 0 0 0 4 94 410
0 59 28 0 0 0 0 0 0 0 0 0 0 0 0 0 0 151 70 223 258 164 253 56 21 136 724 1070 1638 1411 1620 1456 1640 1173 1089 724 81 4 0 18 0 0 0 0 0 0 0 0 0
0 68 7 0 0 0 0 0 0 0 0 0 0 0 0 0 0 0 0 0 0 0 51 253 248 314 370 1048 1230 1105 1290 1139 1142 802 732 539 361 112 0 0 0 0 0 0 0 0 0 0 0
0 0 0 0 0 0 0 0 0 0 0 0 0 0 0 0 0 0 0 0 0 0 0 0 0 12 126 363 1345 1196 1003 991 1067 1182 923 723 698 347 123 0 0 0 0 0 0 0 0 0 0
1 0 0 0 0 0 0 0 0 0 0 0 0 0 0 0 0 0 0 0 0 0 0 0 0 0 0 153 509 417 519 659 765 720 775 648 502 698 637 362 42 0 0 0 0 0 0 0 0
10 0 0 0 0 0 0 0 0 0 0 0 0 0 0 0 0 0 0 0 0 0 0 0 0 0 0 0 0 36 237 164 233 869 794 714 552 513 493 348 333 282 7 0 0 0 0 0 0
0 0 0 0 0 0 0 0 0 0 0 0 0 0 0 0 0 0 0 0 0 0 0 0 0 0 0 0 0 0 0 0 0 0 0 83 234 435 568 239 498 200 144 149 12 0 0 0 0
0 0 0 0 0 0 0 0 0 0 0 0 0 0 0 0 0 0 0 0 0 0 0 0 0 0 0 0 0 0 0 0 0 0 0 0 0 0 0 0 16 66 237 295 67 1 0 0 0
0 0 0 0 0 0 0 0 0 0 0 0 0 0 0 0 0 0 0 0 0 0 0 0 0 0 0 0 0 0 0 0 0 0 0 0 0 0 0 0 0 9 10 1 26 64 38 4 1
0 0 0 0 0 0 0 0 0 0 0 0 0 0 0 0 0 0 0 0 0 0 0 0 0 0 0 0 0 0 0 0 0 0 0 0 0 0 0 0 0 0 1 18 8 4 7 109 92
0 0 0 0 0 0 0 0 0 0 0 0 0 0 0 0 0 0 0 0 0 0 0 0 0 0 0 0 0 0 0 0 0 0 0 0 0 0 0 0 0 0 0 0 9 12 0 2 14
0 0 0 0 0 0 0 0 0 0 0 0 0 0 0 0 0 0 0 0 0 0 0 0 0 0 0 0 0 0 0 0 0 0 0 0 0 0 0 0 0 0 0 0 0 0 0 0 0
0 0 0 0 0 0 0 0 0 0 0 0 0 0 0 0 0 0 0 0 0 0 0 0 0 0 0 0 0 0 0 0 0 0 0 0 0 0 0 0 0 0 0 0 0 0 0 0 9
0 0 0 0 0 0 0 0 0 0 0 0 0 0 0 0 0 0 0 0 0 0 0 0 0 0 0 0 0 0 0 0 0 0 0 0 0 0 0 0 0 0 0 0 0 0 0 0 0
0 0 0 0 0 0 0 0 0 0 0 0 0 0 0 0 0 0 0 0 0 0 0 0 0 0 0 0 0 0 0 0 0 0 0 0 0 0 0 0 0 0 0 0 0 0 0 0 0
0 0 0 0 0 0 0 0 0 0 0 0 0 0 0 0 0 0 0 0 0 0 0 0 0 0 0 0 0 0 0 0 0 0 0 0 0 0 0 0 0 0 0 0 0 0 0 0 0
0 0 0 0 0 0 0 0 0 0 0 0 0 0 0 0 0 0 0 0 0 0 0 0 0 0 0 0 0 0 0 0 0 0 0 0 0 0 0 0 0 0 0 0 0 0 0 0 0
0 0 0 0 0 0 0 0 0 0 0 0 0 0 0 0 0 0 0 0 0 0 0 0 0 0 0 0 0 0 0 0 0 0 0 0 0 0 0 0 0 0 0 0 0 0 0 0 0
0 0 0 0 0 0 0 0 0 0 0 0 0 0 0 0 0 0 0 0 0 0 0 0 0 0 0 0 0 0 0 0 0 0 0 0 0 0 0 0 0 0 0 0 0 0 0 0 0
0 0 0 0 0 0 0 0 0 0 0 0 0 0 0 0 0 0 0 0 0 0 0 0 0 0 0 0 0 0 0 0 0 0 0 0 0 0 0 0 0 0 0 0 0 0 0 0 0
0 0 0 0 0 0 0 0 0 0 0 0 0 0 0 0 0 0 0 0 0 0 0 0 0 0 0 0 0 0 0 0 0 0 0 0 0 0 0 0 0 0 0 1 0 0 0 0 0
0 0 0 0 0 0 0 0 0 0 0 0 0 0 0 0 0 0 0 0 0 0 0 0 0 0 0 0 0 0 0 0 0 0 0 0 0 0 0 0 0 0 0 0 0 0 7 11 1
0 0 0 0 0 0 0 0 0 0 0 0 0 0 0 0 0 0 0 0 0 0 0 0 0 0 0 0 0 0 0 0 0 0 0 0 0 0 0 0 0 0 0 0 0 0 7 5 0

GFSSGP_con_mucape_051.txt.gz
CAPE
396 3 203 1549 163 11 2 8 0 0 0 0 0 0 0 0 0 0 0 202 221 720 1087 1252 1880 1070 1216 943 544 460 437 245 76 114 31 95 275 534 798 1170 1227 1376 1418 1529 1626 1160 1501 1389 1726
202 18 715 1095 20 0 0 0 0 0 0 3 0 0 0 0 0 0 0 36 336 644 926 986 1384 1191 1575 658 336 94 356 823 206 314 27 5 61 430 418 606 882 904 1134 1326 1459 1505 1477 1628 1539
80 18 477 12 6 0 0 0 0 0 0 0 0 0 0 4 0 0 0 6 180 352 612 1159 1886 1077 1290 1189 455 398 126 664 590 318 1 9 40 155 303 342 318 506 668 851 1117 1350 1531 1563 1589
0 276 317 9 0 19 0 0 0 0 0 0 0 0 47 89 0 0 0 99 591 604 856 1843 1594 1423 1472 1165 414 441 103 568 325 57 0 0 0 0 207 227 208 129 253 345 559 894 1288 1465 1346
0 30 4 0 0 0 0 0 0 0 0 0 0 0 159 359 0 0 0 200 669 546 998 1005 1592 1184 1012 729 594 393 82 451 311 14 0 0 0 0 0 0 20 16 39 94 181 555 1357 1134 1232
75 41 0 0 0 0 0 0 0 0 0 0 0 0 0 414 226 171 5 203 377 271 531 1057 1894 1867 1787 1177 847 635 341 640 349 35 0 0 0 0 0 0 0 0 0 0 0 206 645 1372 1224
61 5 0 0 0 0 0 0 0 0 0 0 0 0 0 300 526 404 63 24 30 152 241 434 1262 1547 2017 1836 1697 1298 605 956 498 125 76 11 0 0 0 0 0 0 0 0 0 1 333 653 1171
0 2 5 0 0 0 0 0 0 0 0 0 0 0 0 0 260 242 126 136 123 32 0 283 560 1069 1089 968 1220 1452 1063 1167 857 544 379 333 157 23 0 0 0 0 0 0 0 0 0 9 269
5 9 3 1 0 0 0 0 0 0 0 0 0 0 0 0 38 127 22 133 247 150 45 7 2 567 986 861 1122 1325 1300 1179 1524 1160 1205 1062 376 78 5 9 13 0 0 0 0 0 0 0 0
10 17 0 0 0 0 0 0 0 0 0 0 0 0 0 0 0 2 0 0 2 1 90 63 25 222 462 948 810 804 850 783 858 594 589 590 557 245 336 45 277 1 0 0 0 0 0 0 0
0 0 0 0 0 0 0 0 0 0 0 0 0 0 0 0 0 0 0 0 0 0 0 0 68 56 333 353 391 483 594 612 615 599 599 550 521 467 363 170 68 0 0 0 0 0 0 0 0
0 0 0 0 0 0 0 0 0 0 0 0 0 0 0 0 0 0 0 0 0 0 0 0 0 0 0 0 13 0 0 287 415 145 244 437 398 388 393 402 343 201 2 0 0 0 0 0 0
0 0 0 0 0 0 0 0 0 0 0 0 0 0 0 0 0 0 0 0 0 0 0 0 0 0 0 0 0 0 0 0 0 0 16 93 265 127 183 150 172 324 283 79 26 0 0 0 0
0 0 0 0 0 0 0 0 0 0 0 0 0 0 0 0 0 0 0 0 0 0 0 0 0 0 0 0 0 0 0 0 0 0 0 0 0 14 19 13 120 430 212 150 155 101 4 2 0
0 0 0 0 0 0 0 0 0 0 0 0 0 0 0 0 0 0 0 0 0 0 0 0 0 0 0 0 0 0 0 0 0 0 0 0 0 0 0 0 0 0 0 1 9 53 106 104 44
0 0 0 0 0 0 0 0 0 0 0 0 0 0 0 0 0 0 0 0 0 0 0 0 0 0 0 0 0 0 0 0 0 0 0 0 0 0 0 0 0 0 0 0 0 0 0 11 35
0 0 0 0 0 0 0 0 0 0 0 0 0 0 0 0 0 0 0 0 0 0 0 0 0 0 0 0 0 0 0 0 0 0 0 0 0 0 0 0 0 0 0 0 0 0 0 0 0
0 0 0 0 0 0 0 0 0 0 0 0 0 0 0 0 0 0 0 0 0 0 0 0 0 0 0 0 0 0 0 0 0 0 0 0 0 0 0 0 0 0 0 0 0 0 0 0 0
0 0 0 0 0 0 0 0 0 0 0 0 0 0 0 0 0 0 0 0 0 0 0 0 0 0 0 0 0 0 0 0 0 0 0 0 0 0 0 0 0 0 0 0 0 0 0 0 0
0 0 0 0 0 0 0 0 0 0 0 0 0 0 0 0 0 0 0 0 0 0 0 0 0 0 0 0 0 0 0 0 0 0 0 0 0 0 0 0 0 0 0 0 0 0 0 0 0
0 0 0 0 0 0 0 0 0 0 0 0 0 0 0 0 0 0 0 0 0 0 0 0 0 0 0 0 0 0 0 0 0 0 0 0 0 0 0 0 0 0 0 0 0 0 0 0 0
0 0 0 0 0 0 0 0 0 0 0 0 0 0 0 0 0 0 0 0 0 0 0 0 0 0 0 0 0 0 0 0 0 0 0 0 0 0 0 0 0 0 0 0 0 0 0 0 0
0 0 0 0 0 0 0 0 0 0 0 0 0 0 0 0 0 0 0 0 0 0 0 0 0 0 0 0 0 0 0 0 0 0 0 0 0 0 0 0 0 0 0 0 0 0 0 0 0
0 0 0 0 0 0 0 0 0 0 0 0 0 0 0 0 0 0 0 0 0 0 0 0 0 0 0 0 0 0 0 0 0 0 0 0 0 0 0 0 0 0 0 0 0 0 0 0 0
0 0 0 0 0 0 0 0 0 0 0 0 0 0 0 0 0 0 0 0 0 0 0 0 0 0 0 0 0 0 0 0 0 0 0 0 0 0 0 0 0 0 0 0 0 0 0 0 0
0 0 0 0 0 0 0 0 0 0 0 0 0 0 0 0 0 0 0 0 0 0 0 0 0 0 0 0 0 0 0 0 0 0 0 0 0 0 0 0 0 0 0 0 0 0 0 0 0
0 0 0 0 0 0 0 0 0 0 0 0 0 0 0 0 0 0 0 0 0 0 0 0 0 0 0 0 0 0 0 0 0 0 0 0 0 0 0 0 0 0 0 0 0 0 0 0 0
0 0 0 0 0 0 0 0 0 0 0 0 0 0 0 0 0 0 0 0 0 0 0 0 0 0 0 0 0 0 0 0 0 0 0 0 0 0 0 0 0 0 0 0 0 0 0 0 0
0 0 0 0 0 0 0 0 0 0 0 0 0 0 0 0 0 0 0 0 0 0 0 0 0 0 0 0 0 0 0 0 0 0 0 0 0 0 0 0 0 0 0 0 0 0 0 0 0
0 0 0 0 0 0 0 0 0 0 0 0 0 0 0 0 0 0 0 0 0 0 0 0 0 0 0 0 0 0 0 0 0 0 0 0 0 0 0 0 0 0 0 0 0 0 0 0 0

GFSSGP_con_mucape_057.txt.gz
CAPE
597 13 456 948 0 0 0 0 0 0 0 0 0 0 0 0 0 0 2 321 314 843 1143 1718 1205 1400 1357 969 433 499 85 54 4 0 42 417 277 487 1147 1129 1167 1063 1388 1560 1627 1629 1656 1632 1643
384 219 656 46 0 0 0 0 0 0 0 0 0 0 0 0 0 4 67 294 575 833 1240 1724 1099 1517 1095 585 174 402 105 271 60 0 0 40 408 282 330 698 379 532 1039 1434 1590 1615 1438 1431 1558
0 50 91 42 0 0 0 0 0 0 0 0 0 0 0 0 0 0 0 259 658 821 1087 1065 1069 1439 1303 321 164 355 598 542 57 0 0 0 119 117 198 211 217 338 552 858 1105 1445 1607 1522 1522
0 97 0 0 0 0 0 0 0 0 0 0 0 0 0 0 0 0 121 512 418 581 840 895 1452 1183 684 415 222 240 520 196 8 0 0 0 0 73 91 78 112 16 239 379 532 1246 1298 1412 1445
0 0 0 0 0 0 0 0 0 0 0 0 0 0 0 0 0 5 236 343 336 373 530 1338 1099 905 780 686 626 345 685 439 21 0 0 0 0 0 0 0 0 0 0 21 98 415 1201 1279 1321
36 0 0 0 0 0 0 0 0 0 0 0 0 0 0 4 0 103 264 305 540 494 943 1017 1276 1436 1054 916 792 249 350 659 233 8 0 0 0 0 0 0 0 0 0 0 0 53 460 1145 1367
1 0 0 0 0 0 0 0 0 0 0 0 0 0 2 38 87 249 278 133 165 514 587 610 1205 825 900 664 562 491 916 864 436 299 143 27 0 0 0 0 0 0 0 0 0 0 121 624 834
12 0 0 0 0 0 0 0 0 0 0 0 0 0 51 12 104 267 77 8 14 142 10 693 1098 824 737 477 941 891 850 931 1014 956 847 580 429 372 212 118 29 1 0 0 0 0 0 91 264
18 0 0 0 0 0 0 0 0 0 0 0 0 0 22 51 120 18 11 0 1 8 12 20 425 672 835 790 653 664 821 911 615 349 381 428 375 221 249 220 264 243 348 55 0 0 0 0 28
16 10 0 0 0 0 0 0 0 0 0 0 0 0 5 127 157 6 7 4 2 1 249 239 561 807 782 738 587 584 471 484 338 459 414 235 343 337 147 75 195 173 220 263 25 3 2 0 0
1 0 0 0 0 0 0 0 0 0 0 0 0 0 0 13 20 3 19 21 55 0 0 74 279 446 430 36 52 37 29 8 4 3 12 168 133 85 229 377 308 285 197 158 0 1 0 0 0
0 0 0 0 0 0 0 0 0 0 0 0 0 0 0 0 0 0 5 5 15 9 6 7 9 0 0 0 0 0 0 0 0 0 1 0 0 2 4 14 13 160 362 285 220 53 8 0 0
4 0 0 0 0 0 0 0 0 0 0 0 0 0 0 0 0 0 0 0 1 1 0 1 0 0 0 0 0 0 0 0 0 0 0 0 0 0 0 0 0 0 3 2 4 19 112 105 12
17 0 0 0 0 0 0 0 0 0 0 0 0 0 0 0 0 0 0 0 0 0 0 0 0 0 0 0 0 0 0 0 0 0 0 0 0 0 0 0 0 0 0 0 0 0 0 0 5
10 0 0 0 0 0 0 0 0 0 0 0 0 0 0 0 0 0 0 0 0 0 0 0 0 0 0 0 0 0 0 0 0 0 0 0 0 0 0 0 0 0 0 0 0 0 0 0 0
0 0 0 0 0 0 0 0 0 0 0 0 0 0 0 0 0 0 0 0 0 0 0 0 0 0 0 0 0 0 0 0 0 0 0 0 0 0 0 0 0 0 0 0 0 0 0 0 0
0 0 0 0 0 0 0 0 0 0 0 0 0 0 0 0 0 0 0 0 0 0 0 0 0 0 0 0 0 0 0 0 0 0 0 0 0 0 0 0 0 0 0 0 0 0 0 0 0
0 0 0 0 0 0 0 0 0 0 0 0 0 0 0 0 0 0 0 0 0 0 0 0 0 0 0 0 0 0 0 0 0 0 0 0 0 0 0 0 0 0 0 0 0 0 0 0 0
0 0 0 0 0 0 0 0 0 0 0 0 0 0 0 0 0 0 0 0 0 0 0 0 0 0 0 0 0 0 0 0 0 0 0 0 0 0 0 0 0 0 0 0 0 0 0 0 0
0 0 0 0 0 0 0 0 0 0 0 0 0 0 0 0 0 0 0 0 0 0 0 0 0 0 0 0 0 0 0 0 0 0 0 0 0 0 0 0 0 0 0 0 0 0 0 0 0
0 0 0 0 0 0 0 0 0 0 0 0 0 0 0 0 0 0 0 0 0 0 0 0 0 0 0 0 0 0 0 0 0 0 0 0 0 0 0 0 0 0 0 0 0 0 0 0 0
0 0 0 0 0 0 0 0 0 0 0 0 0 0 0 0 0 0 0 0 0 0 0 0 0 0 0 0 0 0 0 0 0 0 0 0 0 0 0 0 0 0 0 0 0 0 0 0 0
0 0 0 0 0 0 0 0 0 0 0 0 0 0 0 0 0 0 0 0 0 0 0 0 0 0 0 0 0 0 0 0 0 0 0 0 0 0 0 0 0 0 0 0 0 0 0 0 0
0 0 0 0 0 0 0 0 0 0 0 0 0 0 0 0 0 0 0 0 0 0 0 0 0 0 0 0 0 0 0 0 0 0 0 0 0 0 0 0 0 0 0 0 0 0 0 0 0
0 0 0 0 0 0 0 0 0 0 0 0 0 0 0 0 0 0 0 0 0 0 0 0 0 0 0 0 0 0 0 0 0 0 0 0 0 0 0 0 0 0 0 0 0 0 0 0 0
0 0 0 0 0 0 0 0 0 0 0 0 0 0 0 0 0 0 0 0 0 0 0 0 0 0 0 0 0 0 0 0 0 0 0 0 0 0 0 0 0 0 0 0 0 0 0 0 0
0 0 0 0 0 0 0 0 0 0 0 0 0 0 0 0 0 0 0 0 0 0 0 0 0 0 0 0 0 0 0 0 0 0 0 0 0 0 0 0 0 0 0 0 0 0 0 0 0
0 0 0 0 0 0 0 0 0 0 0 0 0 0 0 0 0 0 0 0 0 0 0 0 0 0 0 0 0 0 0 0 0 0 0 0 0 0 0 0 0 0 0 0 0 0 0 0 0
0 0 0 0 0 0 0 0 0 0 0 0 0 0 0 0 0 0 0 0 0 0 0 0 0 0 0 0 0 0 0 0 0 0 0 0 0 0 0 0 0 0 0 0 0 0 0 0 0
0 0 0 0 0 0 0 0 0 0 0 0 0 0 0 0 0 0 0 0 0 0 0 0 0 0 0 0 0 0 0 0 0 0 0 0 0 0 0 0 0 0 0 0 0 0 0 0 0

GFSSGP_con_mucape_063.txt.gz
CAPE
992 63 440 544 0 0 0 0 0 0 0 0 0 0 0 0 0 0 12 24 275 685 1211 977 1054 1257 833 382 202 49 0 0 0 0 195 186 103 508 539 374 520 934 1288 1324 1458 1329 1313 1624 1567
870 320 494 32 0 0 0 0 0 0 0 0 0 0 0 0 0 1 108 469 473 670 1336 944 1079 913 711 299 261 98 233 0 0 0 0 37 13 19 66 144 86 225 691 855 1132 1294 1335 1344 1337
39 115 112 45 32 17 0 0 0 0 0 0 0 0 0 0 0 0 2 448 414 717 1412 1190 1115 870 575 286 310 431 275 0 0 0 0 0 2 1 0 0 0 0 225 441 727 1194 1194 1253 1342
1 16 3 2 16 0 0 0 0 0 0 0 0 0 0 0 0 0 343 216 184 759 1404 1113 1177 1066 529 164 250 368 85 0 0 0 0 0 0 0 0 0 0 0 0 0 31 444 962 1242 1380
0 18 0 4 7 10 0 0 0 0 0 0 0 0 0 0 1 0 361 167 210 783 933 776 1538 963 659 372 265 641 419 91 0 0 0 0 0 0 0 0 0 0 0 0 0 0 285 811 1051
14 0 0 0 0 0 0 0 0 0 0 0 0 0 0 0 40 325 367 181 228 615 646 1136 1204 1090 737 681 400 506 705 306 58 16 4 0 0 0 0 0 0 0 0 0 0 0 0 118 639
14 0 0 0 0 0 0 0 0 0 0 0 0 0 0 0 101 209 219 642 510 496 816 1048 1041 991 856 466 470 430 548 709 668 658 524 418 523 129 84 139 76 37 48 38 0 0 0 0 17
3 0 0 0 0 0 0 0 0 0 0 0 0 0 0 1 166 179 204 369 217 165 208 821 839 651 574 534 635 656 627 246 271 129 150 125 85 190 478 362 557 703 732 571 241 90 85 47 5
8 0 0 0 0 0 0 0 0 0 0 0 0 0 0 19 25 88 125 107 19 2 22 512 504 236 467 234 246 203 98 116 71 29 56 36 5 25 24 37 42 93 17 27 9 0 0 0 0
17 12 0 0 0 0 0 0 0 0 0 0 0 0 0 0 0 0 53 9 9 10 136 399 352 259 119 162 180 254 86 47 6 0 0 0 0 3 7 13 17 37 60 53 14 2 0 0 0
23 14 0 0 0 0 0 0 0 0 0 0 0 0 0 0 52 82 0 0 0 31 157 287 340 354 263 61 16 0 0 0 0 0 0 0 0 0 0 0 0 1 0 1 3 2 4 2 0
20 15 0 0 0 0 0 0 0 0 0 0 0 0 0 0 0 62 0 0 0 3 33 109 166 126 55 7 0 0 0 0 0 0 0 0 0 0 0 0 0 0 0 0 0 0 0 0 0
27 13 3 3 0 0 0 0 0 0 0 0 0 0 0 0 0 0 0 1 1 1 5 4 7 2 0 0 0 0 0 0 0 0 0 0 0 0 0 0 0 0 0 0 0 0 0 0 0
19 12 1 0 0 0 0 0 0 0 0 0 0 0 0 0 0 0 0 0 0 0 0 0 0 0 0 0 0 0 0 0 0 0 0 0 0 0 0 0 0 0 0 0 0 0 0 0 0
21 21 9 0 0 0 0 0 0 0 0 0 0 0 0 0 0 0 0 0 0 0 0 0 0 0 0 0 0 0 0 0 0 0 0 0 0 0 0 0 0 0 0 0 0 0 0 0 0
29 13 0 1 0 0 0 0 0 0 0 0 0 0 0 0 0 0 0 0 0 0 0 0 0 0 0 0 0 0 0 0 0 0 0 0 0 0 0 0 0 0 0 0 0 0 0 0 0
27 10 9 0 0 0 0 0 0 0 0 0 0 0 0 0 0 0 0 0 0 0 0 0 0 0 0 0 0 0 0 0 0 0 0 0 0 0 0 0 0 0 0 0 0 0 0 0 0
40 24 0 0 0 0 0 0 0 0 0 0 0 0 0 0 0 0 0 0 0 0 0 0 0 0 0 0 0 0 0 0 0 0 0 0 0 0 0 0 0 0 0 0 0 0 0 0 0
6 1 0 0 0 0 0 0 0 0 0 0 0 0 0 0 0 0 0 0 0 0 0 0 0 0 0 0 0 0 0 0 0 0 0 0 0 0 0 0 0 0 0 0 0 0 0 0 0
23 6 0 0 0 0 0 0 0 0 0 0 0 0 0 0 0 0 0 0 0 0 0 0 0 0 0 0 0 0 0 0 0 0 0 0 0 0 0 0 0 0 0 0 0 0 0 0 0
0 0 0 0 0 0 0 0 0 0 0 0 0 0 0 0 0 0 0 0 0 0 0 0 0 0 0 0 0 0 0 0 0 0 0 0 0 0 0 0 0 0 0 0 0 0 0 0 0
0 0 0 0 0 0 0 0 0 0 0 0 0 0 0 0 0 0 0 0 0 0 0 0 0 0 0 0 0 0 0 0 0 0 0 0 0 0 0 0 0 0 0 0 0 0 0 0 0
0 0 0 0 0 0 0 0 0 0 0 0 0 0 0 0 0 0 0 0 0 0 0 0 0 0 0 0 0 0 0 0 0 0 0 0 0 0 0 0 0 0 0 0 0 0 0 0 0
0 0 0 0 0 0 0 0 0 0 0 0 0 0 0 0 0 0 0 0 0 0 0 0 0 0 0 0 0 0 0 0 0 0 0 0 0 0 0 0 0 0 0 0 0 0 0 0 0
0 0 0 0 0 0 0 0 0 0 0 0 0 0 0 0 0 0 0 0 0 0 0 0 0 0 0 0 0 0 0 0 0 0 0 0 0 0 0 0 0 0 0 0 0 0 0 0 0
0 0 0 0 0 0 0 0 0 0 0 0 0 0 0 0 0 0 0 0 0 0 0 0 0 0 0 0 0 0 0 0 0 0 0 0 0 0 0 0 0 0 0 0 0 0 0 0 0
0 0 0 0 0 0 0 0 0 0 0 0 0 0 0 0 0 0 0 0 0 0 0 0 0 0 0 0 0 0 0 0 0 0 0 0 0 0 0 0 0 0 0 0 0 0 0 0 0
0 0 0 0 0 0 0 0 0 0 0 0 0 0 0 0 0 0 0 0 0 0 0 0 0 0 0 0 0 0 0 0 0 0 0 0 0 0 0 0 0 0 0 0 0 0 0 0 0
0 0 0 0 0 0 0 0 0 0 0 0 0 0 0 0 0 0 0 0 0 0 0 0 0 0 0 0 0 0 0 0 0 0 0 0 0 0 0 0 0 0 0 0 0 0 0 0 0
0 0 0 0 0 0 0 0 0 0 0 0 0 0 0 0 0 0 0 0 0 0 0 0 0 0 0 0 0 0 0 0 0 0 0 0 0 0 0 0 0 0 0 0 0 0 0 0 0

GFSSGP_con_mucape_066.txt.gz
CAPE
507 64 715 653 152 0 0 0 0 0 0 0 0 0 0 0 0 0 302 218 446 50 210 519 970 1098 579 269 102 6 1 0 0 7 104 52 48 164 331 216 491 981 1056 1325 1422 1337 1322 1420 1482
127 394 731 125 103 15 0 0 0 0 0 0 0 0 0 0 0 0 0 77 93 0 114 29 961 969 402 247 184 311 20 0 0 0 0 1 1 0 1 0 0 181 567 764 1156 1183 1325 1279 1223
32 155 492 141 64 85 0 0 3 0 0 0 0 0 0 0 0 0 0 0 0 0 91 538 1077 912 403 291 341 342 11 0 0 0 0 0 0 0 0 0 0 0 11 58 381 1004 1176 1244 1367
60 28 13 151 60 0 0 0 0 0 0 0 0 0 0 0 0 0 0 0 0 45 183 851 1101 954 370 218 410 221 64 0 0 0 0 0 0 0 0 0 0 0 0 0 0 24 517 1066 1136
9 6 38 3 0 0 0 0 2 0 0 0 0 0 0 0 6 0 0 0 0 144 142 211 1276 887 504 342 444 487 283 31 0 0 0 0 0 0 0 0 0 0 0 0 0 0 1 284 752
355 2 56 23 0 0 0 0 0 0 0 0 0 0 0 0 110 202 8 0 8 154 164 368 1108 914 703 618 397 626 446 263 183 84 64 96 0 0 9 6 0 0 12 4 0 0 0 0 163
403 45 13 13 0 0 0 0 0 0 0 0 0 0 0 0 510 534 126 100 135 79 429 737 477 766 705 560 541 620 671 644 663 745 618 384 616 581 497 348 437 578 658 369 140 99 59 6 0
29 24 1 0 0 0 0 0 0 0 0 0 0 0 0 5 479 606 832 658 356 224 345 846 549 506 547 731 560 579 191 199 76 66 76 49 65 63 51 273 252 93 176 201 28 0 0 0 0
0 18 21 3 0 0 0 0 0 0 0 0 0 0 0 0 4 285 542 318 244 97 211 756 691 713 864 186 94 144 70 61 44 35 4 2 0 3 16 20 6 0 2 3 0 0 0 0 0
4 39 13 0 0 0 0 0 0 0 0 0 0 0 0 20 20 223 387 369 293 344 522 745 709 673 286 34 36 120 42 27 0 0 0 0 0 0 0 0 0 0 3 7 15 0 0 0 0
5 39 0 0 0 0 0 0 0 0 0 0 0 0 0 3 48 321 394 172 236 272 238 292 94 90 43 53 42 14 0 0 0 0 0 0 0 0 0 0 0 0 0 0 0 0 0 0 0
12 5 1 0 0 0 0 0 0 0 0 0 0 0 0 0 14 141 39 0 0 7 0 13 25 66 157 62 5 0 0 0 0 0 0 0 0 0 0 0 0 0 0 0 0 0 0 0 0
24 22 5 0 0 0 0 0 0 0 0 0 0 0 0 0 0 0 4 0 1 2 5 44 72 34 0 0 0 0 0 0 0 0 0 0 0 0 0 0 0 0 0 0 0 0 0 0 0
27 29 11 3 0 0 0 0 0 0 0 0 0 0 0 0 0 0 3 0 6 15 11 0 0 0 0 0 0 0 0 0 0 0 0 0 0 0 0 0 0 0 0 0 0 0 0 0 0
2 24 23 10 0 5 0 0 0 0 0 0 0 0 0 0 0 0 0 0 0 0 0 0 0 0 0 0 0 0 0 0 0 0 0 0 0 0 0 0 0 0 0 0 0 0 0 0 0
8 8 50 26 20 9 0 0 0 0 0 0 0 0 0 0 0 0 0 0 0 0 0 0 0 0 0 0 0 0 0 0 0 0 0 0 0 0 0 0 0 0 0 0 0 0 0 0 0
5 0 5 15 29 9 0 0 0 0 0 0 0 0 0 0 0 0 0 0 0 0 0 0 0 0 0 0 0 0 0 0 0 0 0 0 0 0 0 0 0 0 0 0 0 0 0 0 0
20 15 19 53 26 0 0 0 0 0 0 0 0 0 0 0 0 0 0 0 0 0 0 0 0 0 0 0 0 0 0 0 0 0 0 0 0 0 0 0 0 0 0 0 0 0 0 0 0
9 14 32 30 10 0 0 0 0 0 0 0 0 0 0 0 0 0 0 0 0 0 0 0 0 0 0 0 0 0 0 0 0 0 0 0 0 0 0 0 0 0 0 0 0 0 0 0 0
28 24 16 20 6 1 0 0 0 0 0 0 0 0 0 0 0 0 0 0 0 0 0 0 0 0 0 0 0 0 0 0 0 0 0 0 0 0 0 0 0 0 0 0 0 0 0 0 0
27 17 7 0 0 0 0 0 0 0 0 0 0 0 0 0 0 0 0 0 0 0 0 0 0 0 0 0 0 0 0 0 0 0 0 0 0 0 0 0 0 0 0 0 0 0 0 0 0
3 0 0 0 0 0 0 0 0 0 0 0 0 0 0 0 0 0 0 0 0 0 0 0 0 0 0 0 0 0 0 0 0 0 0 0 0 0 0 0 0 0 0 0 0 0 0 0 0
0 0 0 0 0 0 0 0 0 0 0 0 0 0 0 0 0 0 0 0 0 0 0 0 0 0 0 0 0 0 0 0 0 0 0 0 0 0 0 0 0 0 0 0 0 0 0 0 0
0 0 0 0 0 0 0 0 0 0 0 0 0 0 0 0 0 0 0 0 0 0 0 0 0 0 0 0 0 0 0 0 0 0 0 0 0 0 0 0 0 0 0 0 0 0 0 0 0
0 0 0 0 0 0 0 0 0 0 0 0 0 0 0 0 0 0 0 0 0 0 0 0 0 0 0 0 0 0 0 0 0 0 0 0 0 0 0 0 0 0 0 0 0 0 0 0 0
0 0 0 0 0 0 0 0 0 0 0 0 0 0 0 0 0 0 0 0 0 0 0 0 0 0 0 0 0 0 0 0 0 0 0 0 0 0 0 0 0 0 0 0 0 0 0 0 0
0 0 0 0 0 0 0 0 0 0 0 0 0 0 0 0 0 0 0 0 0 0 0 0 0 0 0 0 0 0 0 0 0 0 0 0 0 0 0 0 0 0 0 0 0 0 0 0 0
0 0 0 0 0 0 0 0 0 0 0 0 0 0 0 0 0 0 0 0 0 0 0 0 0 0 0 0 0 0 0 0 0 0 0 0 0 0 0 0 0 0 0 0 0 0 0 0 0
0 0 0 0 0 0 0 0 0 0 0 0 0 0 0 0 0 0 0 0 0 0 0 0 0 0 0 0 0 0 0 0 0 0 0 0 0 0 0 0 0 0 0 0 0 0 0 0 0
0 0 0 0 0 0 0 0 0 0 0 0 0 0 0 0 0 0 0 0 0 0 0 0 0 0 0 0 0 0 0 0 0 0 0 0 0 0 0 0 0 0 0 0 0 0 0 0 0

GFSSGP_con_mucape_069.txt.gz
CAPE
936 610 1180 2018 1081 84 0 0 0 0 0 0 0 0 0 0 0 0 0 0 0 0 4 752 1157 807 376 129 11 17 0 0 0 1 2 2 1 87 1 7 414 816 917 1227 1282 1314 1230 1301 1283
235 454 1593 1544 539 439 4 0 0 0 0 0 0 0 0 0 0 0 0 0 0 0 17 82 887 486 267 228 308 94 0 0 0 0 1 1 0 0 0 0 0 104 206 459 942 1189 1241 1294 1178
151 355 1141 799 387 376 20 0 0 0 0 0 0 0 0 0 0 0 0 0 0 3 13 644 888 563 308 208 334 22 0 0 0 0 0 0 0 0 0 0 0 0 0 0 56 594 1112 1157 1179
144 530 171 377 347 74 0 0 0 0 0 0 0 0 0 0 0 0 0 0 1 6 103 908 1163 579 323 393 182 120 5 0 0 0 0 0 0 0 0 0 0 0 0 0 0 0 170 828 1047
112 585 525 317 163 0 0 0 0 0 0 0 0 0 0 0 0 0 0 0 6 36 15 160 1268 703 364 300 500 309 113 5 0 0 0 0 0 0 0 0 0 4 0 0 0 0 0 121 405
491 292 385 280 46 0 0 0 0 0 0 0 0 0 0 0 0 0 0 2 30 53 113 209 1115 778 537 326 625 633 569 543 378 268 551 333 12 77 232 209 266 400 317 155 67 25 0 0 0
528 441 119 125 57 0 0 0 0 0 0 0 0 0 0 0 42 70 1 22 61 96 106 151 343 566 798 622 615 794 766 737 734 625 368 461 522 521 535 509 296 405 609 392 113 11 4 12 0
536 424 168 51 46 1 0 0 0 0 0 0 0 0 0 2 347 184 54 75 89 77 121 314 511 343 570 681 650 446 140 71 53 38 26 50 0 0 0 0 2 4 1 1 0 0 0 0 0
11 121 126 69 18 13 0 0 0 0 0 0 0 0 0 180 476 323 179 145 113 74 78 426 349 461 694 153 49 48 49 32 27 2 1 0 0 0 0 0 0 0 0 0 0 0 0 0 0
9 201 205 73 10 0 0 0 0 0 0 0 0 0 0 120 296 309 226 233 96 76 91 395 486 570 198 0 20 19 5 0 0 0 0 0 0 0 0 0 0 0 0 0 0 0 0 0 0
20 210 199 11 0 0 0 0 0 0 0 0 0 0 0 0 105 136 95 93 82 86 241 280 266 322 14 5 11 1 0 0 0 0 0 0 0 0 0 0 0 0 0 0 0 0 0 0 0
29 63 35 7 0 0 0 0 0 0 0 0 0 0 0 0 41 62 51 47 124 310 208 151 83 66 0 3 7 0 0 0 0 0 0 0 0 0 0 0 0 0 0 0 0 0 0 0 0
62 9 10 8 2 0 0 0 0 0 0 0 0 0 0 0 0 24 8 14 31 42 6 6 0 0 5 1 0 0 0 0 0 0 0 0 0 0 0 0 0 0 0 0 0 0 0 0 0
41 15 15 10 9 3 5 0 0 0 0 0 0 0 0 0 0 0 1 0 3 0 8 1 8 7 0 0 0 0 0 0 0 0 0 0 0 0 0 0 0 0 0 0 0 0 0 0 0
42 53 33 17 20 18 22 16 13 0 0 0 0 0 0 0 0 0 0 0 0 0 1 1 0 0 0 0 0 0 0 0 0 0 0 0 0 0 0 0 0 0 0 0 0 0 0 0 0
53 45 62 16 29 28 28 34 13 0 0 0 0 0 0 0 0 0 0 0 0 0 0 0 0 0 0 0 0 0 0 0 0 0 0 0 0 0 0 0 0 0 0 0 0 0 0 0 0
58 85 52 20 12 31 21 36 4 0 0 0 0 0 0 0 0 0 0 0 0 0 0 0 0 0 0 0 0 0 0 0 0 0 0 0 0 0 0 0 0 0 0 0 0 0 0 0 0
101 36 109 24 0 3 43 26 0 0 0 0 0 0 0 0 0 0 0 0 0 0 0 0 0 0 0 0 0 0 0 0 0 0 0 0 0 0 0 0 0 0 0 0 0 0 0 0 0
49 52 32 9 0 0 16 26 10 0 0 0 0 0 0 0 0 0 0 0 0 0 0 0 0 0 0 0 0 0 0 0 0 0 0 0 0 0 0 0 0 0 0 0 0 0 0 0 0
27 25 21 8 0 2 6 8 16 0 0 0 0 0 0 0 0 0 0 0 0 0 0 0 0 0 0 0 0 0 0 0 0 0 0 0 0 0 0 0 0 0 0 0 0 0 0 0 0
50 46 13 21 17 8 0 0 3 0 0 0 0 0 0 0 0 0 0 0 0 0 0 0 0 0 0 0 0 0 0 0 0 0 0 0 0 0 0 0 0 0 0 0 0 0 0 0 0
107 18 31 23 0 8 0 0 0 0 0 0 0 0 0 0 0 0 0 0 0 0 0 0 0 0 0 0 0 0 0 0 0 0 0 0 0 0 0 0 0 0 0 0 0 0 0 0 0
5 6 0 0 0 0 0 0 0 0 0 0 0 0 0 0 0 0 0 0 0 0 0 0 0 0 0 0 0 0 0 0 0 0 0 0 0 0 0 0 0 0 0 0 0 0 0 0 0
5 0 4 0 0 0 0 0 0 0 0 0 0 0 0 0 0 0 0 0 0 0 0 0 0 0 0 0 0 0 0 0 0 0 0 0 0 0 0 0 0 0 0 0 0 0 0 0 0
6 24 0 0 0 0 0 0 0 0 0 0 0 0 0 0 0 0 0 0 0 0 0 0 0 0 0 0 0 0 0 0 0 0 0 0 0 0 0 0 0 0 0 0 0 0 0 0 0
8 0 0 0 0 0 0 0 0 0 0 0 0 0 0 0 0 0 0 0 0 0 0 0 0 0 0 0 0 0 0 0 0 0 0 0 0 0 0 0 0 0 0 0 0 0 0 0 0
0 0 0 0 0 0 0 0 0 0 0 0 0 0 0 0 0 0 0 0 0 0 0 0 0 0 0 0 0 0 0 0 0 0 0 0 0 0 0 0 0 0 0 0 0 0 0 0 0
0 0 0 0 0 0 0 0 0 0 0 0 0 0 0 0 0 0 0 0 0 0 0 0 0 0 0 0 0 0 0 0 0 0 0 0 0 0 0 0 0 0 0 0 0 0 0 0 0
0 0 0 0 0 0 0 0 0 0 0 0 0 0 0 0 0 0 0 0 0 0 0 0 0 0 0 0 0 0 0 0 0 0 0 0 0 0 0 0 0 0 0 0 0 0 0 0 0
0 0 0 0 0 0 0 0 0 0 0 0 0 0 0 0 0 0 0 0 0 0 0 0 0 0 0 0 0 0 0 0 0 0 0 0 0 0 0 0 0 0 0 0 0 0 0 0 0

GFSSGP_con_mucape_072.txt.gz
CAPE
676 922 1034 2696 1894 899 14 0 0 0 0 0 0 0 0 0 0 96 10 0 0 78 522 950 953 423 77 25 19 0 0 0 0 1 1 0 0 0 0 0 218 416 566 928 1127 1156 1137 1102 1139
71 432 1985 2529 1119 405 40 0 16 0 0 0 0 0 0 0 0 0 0 0 0 2 217 604 693 290 245 253 77 0 0 0 0 0 0 0 0 0 0 0 0 0 0 89 619 1077 1108 1038 1034
26 467 1829 1780 1196 263 58 2 0 0 0 0 0 0 0 0 0 0 0 0 0 360 359 808 631 297 133 270 10 0 0 0 0 0 0 0 0 0 0 0 0 0 0 0 0 193 689 1016 1145
336 1162 907 667 485 72 17 0 0 0 0 0 0 0 0 0 0 0 0 0 0 171 389 1369 700 445 329 142 131 54 0 0 0 0 0 0 0 0 0 0 2 0 0 0 0 0 9 269 257
103 911 1225 651 333 105 7 0 0 0 0 0 0 0 0 0 0 0 0 0 2 17 260 1044 753 372 332 453 282 76 18 12 16 7 0 1 7 31 52 66 140 221 96 42 16 0 0 0 20
557 934 632 516 138 1 0 0 0 0 0 0 0 0 0 0 0 0 0 0 8 1 186 707 1017 655 441 686 679 725 731 553 445 546 549 221 271 419 383 513 558 570 472 200 87 16 0 0 0
494 967 691 228 149 24 1 0 0 0 0 0 0 1 0 0 0 0 0 4 6 71 84 208 402 712 1162 736 899 767 583 575 517 540 410 506 216 165 120 75 53 12 20 3 0 0 0 0 0
713 1067 786 464 81 10 0 0 0 0 0 0 0 0 0 0 0 0 0 3 13 54 154 227 290 442 367 657 618 322 89 137 72 48 140 3 0 0 0 0 0 0 0 0 0 0 0 0 0
129 530 387 295 283 29 0 0 0 0 0 0 0 0 0 105 82 5 0 12 32 54 325 210 263 250 188 82 58 28 26 0 1 1 0 36 0 0 0 0 0 0 0 0 0 0 0 0 0
49 400 455 337 31 2 0 0 0 0 0 0 0 0 206 258 196 77 15 42 62 71 334 186 183 362 97 9 21 0 0 0 0 0 0 0 0 0 0 0 0 0 0 0 0 0 0 0 0
171 53 404 238 59 0 0 0 0 0 0 0 0 0 20 137 190 142 55 0 8 44 193 358 284 183 4 0 2 0 0 0 0 0 0 0 0 0 0 0 0 0 0 0 0 0 0 0 0
74 51 170 91 19 20 5 0 0 0 0 0 0 0 0 0 45 65 39 23 79 139 86 192 195 60 1 0 0 0 0 0 0 0 0 0 0 0 0 0 0 0 0 0 0 0 0 0 0
86 70 15 23 49 15 3 4 1 7 0 0 0 0 0 0 1 25 37 81 179 126 82 53 42 28 0 0 0 0 0 0 0 0 0 0 0 0 0 0 0 0 0 0 0 0 0 0 0
48 9 11 27 37 11 11 2 14 13 11 1 0 0 0 0 0 2 37 1 6 0 2 0 5 0 0 0 0 0 0 0 0 0 0 0 0 0 0 0 0 0 0 0 0 0 0 0 0
68 89 34 49 22 10 9 3 23 20 9 0 0 0 0 0 0 0 2 0 0 0 0 0 6 10 0 0 0 0 0 0 0 0 0 0 0 0 0 0 0 0 0 0 0 0 0 0 0
75 69 53 31 33 19 28 28 15 25 5 1 0 0 0 0 0 0 0 0 1 0 0 0 0 0 0 0 0 0 0 0 0 0 0 0 0 0 0 0 0 0 0 0 0 0 0 0 0
64 49 70 31 38 34 33 25 25 39 31 9 0 0 0 0 0 0 0 0 0 0 0 0 0 0 0 0 0 0 0 0 0 0 0 0 0 0 0 0 0 0 0 0 0 0 0 0 0
25 31 52 102 79 27 28 16 2 25 5 9 0 0 0 0 0 0 0 0 0 0 0 0 0 0 0 0 0 0 0 0 0 0 0 0 0 0 0 0 0 0 0 0 0 0 0 0 0
136 101 73 86 66 34 3 1 0 0 0 0 0 0 0 0 0 0 0 0 0 0 0 0 0 0 0 0 0 0 0 0 0 0 0 0 0 0 0 0 0 0 0 0 0 0 0 0 0
179 171 147 31 0 4 0 0 0 1 0 0 0 0 0 0 0 0 0 0 0 0 0 0 0 0 0 0 0 0 0 0 0 0 0 0 0 0 0 0 0 0 0 0 0 0 0 0 0
168 52 101 26 0 3 1 0 0 0 0 0 0 0 0 0 0 0 0 0 0 0 0 0 0 0 0 0 0 0 0 0 0 0 0 0 0 0 0 0 0 0 0 0 0 0 0 0 0
72 24 46 11 8 5 0 0 0 0 0 0 0 0 0 0 0 0 0 0 0 0 0 0 0 0 0 0 0 0 0 0 0 0 0 0 0 0 0 0 0 0 0 0 0 0 0 0 0
28 17 52 34 25 0 0 0 0 0 0 0 0 0 0 0 0 0 0 0 0 0 0 0 0 0 0 0 0 0 0 0 0 0 0 0 0 0 0 0 0 0 0 0 0 0 0 0 0
37 40 5 0 3 0 0 0 0 0 0 0 0 0 0 0 0 0 0 0 0 0 0 0 0 0 0 0 0 0 0 0 0 0 0 0 0 0 0 0 0 0 0 0 0 0 0 0 0
46 12 3 0 0 0 0 0 0 0 0 0 0 0 0 0 0 0 0 0 0 0 0 0 0 0 0 0 0 0 0 0 0 0 0 0 0 0 0 0 0 0 0 0 0 0 0 0 0
20 1 0 0 0 0 0 0 0 0 0 0 0 0 0 0 0 0 0 0 0 0 0 0 0 0 0 0 0 0 0 0 0 0 0 0 0 0 0 0 0 0 0 0 0 0 0 0 0
0 0 0 0 0 0 0 0 0 0 0 0 0 0 0 0 0 0 0 0 0 0 0 0 0 0 0 0 0 0 0 0 0 0 0 0 0 0 0 0 0 0 0 0 0 0 0 0 0
0 0 0 0 0 0 0 0 0 0 0 0 0 0 0 0 0 0 0 0 0 0 0 0 0 0 0 0 0 0 0 0 0 0 0 0 0 0 0 0 0 0 0 0 0 0 0 0 0
0 0 0 0 0 0 0 0 0 0 0 0 0 0 0 0 0 0 0 0 0 0 0 0 0 0 0 0 0 0 0 0 0 0 0 0 0 0 0 0 0 0 0 0 0 0 0 0 0
0 0 0 0 0 0 0 0 0 0 0 0 0 0 0 0 0 0 0 0 0 0 0 0 0 0 0 0 0 0 0 0 0 0 0 0 0 0 0 0 0 0 0 0 0 0 0 0 0

GFSSGP_con_mucape_075.txt.gz
CAPE
668 192 823 1295 902 184 0 0 0 0 0 0 0 0 0 0 0 15 1 220 361 505 811 721 568 59 34 1 0 0 0 0 2 0 0 0 0 0 0 2 5 43 365 851 839 852 903 841 1028
356 751 934 1243 689 263 1 2 0 0 0 0 0 0 0 0 0 0 0 122 276 601 733 575 321 240 113 3 0 0 0 0 0 0 0 0 0 0 0 0 0 0 0 77 412 822 879 984 1088
193 469 731 1198 574 169 67 6 0 0 0 0 0 0 0 0 0 0 0 19 337 391 547 342 350 206 459 1 0 0 0 0 0 0 0 0 0 1 2 1 0 0 0 0 0 57 330 331 891
117 540 429 627 247 111 34 0 0 0 0 0 0 0 0 0 0 0 0 253 247 511 562 937 400 268 100 99 53 0 0 0 0 1 4 0 1 7 7 8 10 5 5 0 0 0 0 2 2
27 299 743 517 249 18 0 0 0 0 0 0 0 0 0 0 0 0 0 227 304 612 701 392 463 392 376 210 79 51 47 99 65 1 2 47 104 63 300 495 456 353 138 79 5 1 0 0 0
55 317 449 271 150 13 0 0 0 0 0 0 0 0 0 0 0 0 0 75 256 633 817 367 643 595 886 592 609 686 620 585 561 475 275 289 313 388 233 179 171 165 10 4 0 0 0 0 0
25 354 478 510 139 48 5 0 0 0 0 0 0 0 0 0 0 0 0 15 14 604 694 446 505 815 1162 1037 883 670 581 477 492 413 349 113 59 2 0 1 0 0 0 0 0 0 0 0 0
90 472 419 442 297 55 13 0 0 0 0 0 0 0 0 0 0 0 0 0 239 364 339 355 472 476 683 594 592 499 449 281 289 170 0 0 0 0 0 0 0 0 0 0 0 0 0 0 0
92 28 370 414 109 99 7 0 0 0 0 0 0 3 0 0 0 0 0 6 163 163 183 310 333 392 209 229 173 32 1 0 0 21 10 0 0 0 0 0 0 0 0 0 0 0 0 0 0
134 35 30 152 85 55 0 5 5 0 0 0 16 27 33 56 57 0 0 12 141 264 354 406 438 133 38 17 0 0 0 0 0 0 0 0 0 0 0 0 0 0 0 0 0 0 0 0 0
185 84 108 93 85 37 25 2 0 0 0 0 2 165 129 187 166 62 26 30 215 289 263 315 132 15 16 1 0 0 0 0 0 0 0 0 0 0 0 0 0 0 0 0 0 0 0 0 0
136 186 80 10 63 88 12 1 0 0 0 0 0 393 405 326 293 237 78 97 266 319 269 268 195 0 0 0 0 0 0 0 0 0 0 0 0 0 0 0 0 0 0 0 0 0 0 0 0
173 230 92 8 34 45 4 5 0 0 0 0 0 18 229 309 304 282 154 106 220 268 262 293 84 5 0 0 0 0 0 0 0 0 0 0 0 0 0 0 0 0 0 0 0 0 0 0 0
204 199 96 20 75 65 9 3 2 0 3 11 6 4 23 26 105 149 78 229 226 164 117 104 60 6 0 0 0 0 0 0 0 0 0 0 0 0 0 0 0 0 0 0 0 0 0 0 0
177 103 82 36 53 52 24 30 36 0 7 23 0 0 0 0 14 61 117 150 145 184 180 119 47 0 0 0 0 0 0 0 0 0 0 0 0 0 0 0 0 0 0 0 0 0 0 0 0
78 99 110 32 48 41 35 17 17 0 2 0 0 0 0 0 0 38 66 49 44 66 87 26 0 0 0 0 0 0 0 0 0 0 0 0 0 0 0 0 0 0 0 0 0 0 0 0 0
22 14 79 63 48 42 45 39 7 26 22 0 1 3 0 0 0 35 56 37 26 29 9 0 0 0 0 0 0 0 0 0 0 0 0 0 0 0 0 0 0 0 0 0 0 0 0 0 0
0 9 59 44 41 23 17 21 28 24 28 18 1 7 0 0 0 0 0 0 0 0 0 0 0 0 0 0 0 0 0 0 0 0 0 0 0 0 0 0 0 0 0 0 0 0 0 0 0
35 82 74 38 60 23 51 38 35 20 11 0 0 0 0 0 0 0 0 0 0 0 0 0 0 0 0 0 0 0 0 0 0 0 0 0 0 0 0 0 0 0 0 0 0 0 0 0 0
123 101 43 17 53 106 59 7 7 0 0 0 0 0 0 0 0 0 0 0 0 0 0 0 0 0 0 0 0 0 0 0 0 0 0 0 0 0 0 0 0 0 0 0 0 0 0 0 0
86 104 70 64 58 50 22 0 2 0 0 0 0 0 0 0 0 0 0 0 0 0 0 0 0 0 0 0 0 0 0 0 0 0 0 0 0 0 0 0 0 0 0 0 0 0 0 0 0
70 104 52 69 25 1 0 0 0 0 0 0 0 0 0 0 0 0 0 0 0 0 0 0 0 0 0 0 0 0 0 0 0 0 0 0 0 0 0 0 0 0 0 0 0 0 0 0 0
97 60 52 52 29 22 0 0 0 0 0 0 0 0 0 0 0 0 0 0 0 0 0 0 0 0 0 0 0 0 0 0 0 0 0 0 0 0 0 0 0 0 0 0 0 0 0 0 0
27 32 59 53 40 1 0 0 0 0 0 0 0 0 0 0 0 0 0 0 0 0 0 0 0 0 0 0 0 0 0 0 0 0 0 0 0 0 0 0 0 0 0 0 0 0 0 0 0
86 52 26 19 0 0 0 0 0 0 0 0 0 0 0 0 0 0 0 0 0 0 0 0 0 0 0 0 0 0 0 0 0 0 0 0 0 0 0 0 0 0 0 0 0 0 0 0 0
44 29 1 0 0 0 0 0 0 0 0 0 0 0 0 0 0 0 0 0 0 0 0 0 0 0 0 0 0 0 0 0 0 0 0 0 0 0 0 0 0 0 0 0 0 0 0 0 0
13 0 5 0 0 0 0 0 0 0 0 0 0 0 0 0 0 0 0 0 0 0 0 0 0 0 0 0 0 0 0 0 0 0 0 0 0 0 0 0 0 0 0 0 0 0 0 0 0
4 5 0 0 0 0 0 0 0 0 0 0 0 0 0 0 0 0 0 0 0 0 0 0 0 0 0 0 0 0 0 0 0 0 0 0 0 0 0 0 0 0 0 0 0 0 0 0 0
0 0 0 0 0 0 0 0 0 0 0 0 0 0 0 0 0 0 0 0 0 0 0 0 0 0 0 0 0 0 0 0 0 0 0 0 0 0 0 0 0 0 0 0 0 0 0 0 0
0 0 0 0 0 0 0 0 0 0 0 0 0 0 0 0 0 0 0 0 0 0 0 0 0 0 0 0 0 0 0 0 0 0 0 0 0 0 0 0 0 0 0 0 0 0 0 0 0

GFSSGP_con_mucape_078.txt.gz
CAPE
288 104 630 1186 545 72 0 0 0 0 0 0 0 0 0 0 0 0 0 143 420 663 663 609 135 31 0 0 0 0 2 5 0 0 0 0 0 0 3 5 20 140 436 831 715 751 829 859 944
98 794 929 1171 423 222 0 0 0 0 0 0 0 0 0 0 0 51 172 345 516 648 557 221 138 68 1 0 0 0 1 1 0 0 0 0 0 0 0 0 0 0 1 86 504 593 641 858 908
240 443 602 1052 533 219 3 0 0 0 0 0 0 0 0 0 0 74 154 346 521 598 454 119 269 253 1 0 1 0 0 0 0 0 0 1 6 7 3 0 0 0 0 0 0 21 19 12 479
40 489 384 512 288 111 64 2 0 0 0 0 0 0 0 0 0 0 194 445 524 509 215 558 316 276 53 13 5 6 4 2 5 2 0 6 9 8 71 147 11 9 9 3 0 0 0 0 0
40 239 651 305 162 66 18 0 0 0 0 0 0 0 0 0 0 38 256 346 401 391 386 188 362 271 189 110 47 40 66 19 2 73 126 60 165 374 497 281 248 12 103 17 2 0 0 0 0
60 269 409 186 129 82 1 0 0 0 0 0 0 0 0 0 0 224 243 368 515 499 320 266 587 558 388 211 297 539 646 545 480 289 330 344 312 343 153 125 19 1 0 0 0 0 0 0 0
95 312 438 263 240 74 11 0 0 0 0 0 0 0 0 0 0 250 246 325 608 471 251 270 510 1112 1059 948 787 674 498 562 430 305 259 110 2 0 0 0 0 0 0 0 0 0 0 0 0
164 295 348 448 296 60 32 3 0 0 0 0 0 0 0 0 0 61 62 150 603 510 302 418 563 842 769 749 813 678 469 436 226 0 0 0 0 0 0 0 0 0 0 0 0 0 0 0 0
188 145 268 343 218 200 32 0 0 0 0 0 0 0 0 0 0 8 74 207 582 431 297 508 533 680 529 373 413 218 28 50 83 0 0 0 0 0 0 0 0 0 0 0 0 0 0 0 0
190 236 181 159 55 24 12 0 0 0 0 9 23 3 0 0 0 0 3 243 438 140 297 444 423 428 264 157 23 0 0 0 0 0 0 0 0 0 0 0 0 0 0 0 0 0 0 0 0
160 266 189 6 11 97 30 12 0 0 0 0 23 28 3 24 19 0 7 173 400 170 368 415 365 185 102 0 0 0 0 0 0 0 0 0 0 0 0 0 0 0 0 0 0 0 0 0 0
167 285 288 91 30 98 86 10 2 0 0 0 26 44 40 54 48 0 0 65 234 347 510 572 227 15 0 0 0 0 0 0 0 0 0 0 0 0 0 0 0 0 0 0 0 0 0 0 0
338 262 324 146 50 168 43 36 2 0 0 0 34 39 58 98 132 46 34 59 303 491 543 420 165 25 1 8 6 0 0 0 0 0 0 0 0 0 0 0 0 0 0 0 0 0 0 0 0
315 358 333 263 105 119 39 18 14 3 0 0 155 181 257 370 307 230 192 90 395 484 466 334 201 104 57 33 0 0 0 0 0 0 0 0 0 0 0 0 0 0 0 0 0 0 0 0 0
116 319 308 265 110 87 31 5 8 0 0 0 35 584 581 475 473 399 322 184 550 532 472 353 150 142 108 0 0 0 0 0 0 0 0 0 0 0 0 0 0 0 0 0 0 0 0 0 0
52 252 322 232 177 125 109 30 23 1 1 13 9 9 16 0 43 103 162 299 433 439 348 177 131 85 11 3 0 0 0 0 0 0 0 0 0 0 0 0 0 0 0 0 0 0 0 0 0
48 0 70 118 163 153 108 46 21 23 31 24 31 20 0 0 0 8 322 459 441 295 123 124 123 44 0 0 0 0 0 0 0 0 0 0 0 0 0 0 0 0 0 0 0 0 0 0 0
2 4 2 15 31 131 99 40 43 31 13 2 10 2 1 11 0 73 326 220 122 105 95 100 13 0 0 0 0 0 0 0 0 0 0 0 0 0 0 0 0 0 0 0 0 0 0 0 0
1 0 0 0 31 92 62 36 35 37 25 8 10 11 7 0 0 5 138 73 42 21 0 0 0 0 0 0 0 0 0 0 0 0 0 0 0 0 0 0 0 0 0 0 0 0 0 0 0
18 21 38 64 63 29 30 64 42 21 19 1 2 9 0 0 0 0 2 8 3 0 0 0 0 0 0 0 0 0 0 0 0 0 0 0 0 0 0 0 0 0 0 0 0 0 0 0 0
86 86 61 53 135 107 81 74 0 0 0 0 0 2 0 0 0 0 0 0 0 0 0 0 0 0 0 0 0 0 0 0 0 0 0 0 0 0 0 0 0 0 0 0 0 0 0 0 0
103 102 105 89 81 58 49 6 0 0 0 4 16 0 0 0 0 0 0 0 0 0 0 0 0 0 0 0 0 0 0 0 0 0 0 0 0 0 0 0 0 0 0 0 0 0 0 0 0
58 43 58 62 42 44 5 0 0 0 0 0 0 0 0 0 0 0 0 0 0 0 0 0 0 0 0 0 0 0 0 0 0 0 0 0 0 0 0 0 0 0 0 0 0 0 0 0 0
41 41 58 43 34 26 1 8 0 0 0 0 0 0 0 0 0 0 0 0 0 0 0 0 0 0 0 0 0 0 0 0 0 0 0 0 0 0 0 0 0 0 0 0 0 0 0 0 0
36 54 27 32 27 3 13 0 0 0 0 0 0 0 0 0 0 0 0 0 0 0 0 0 0 0 0 0 0 0 0 0 0 0 0 0 0 0 0 0 0 0 0 0 0 0 0 0 0
57 44 0 0 0 0 0 0 0 0 0 0 0 0 0 0 0 0 0 0 0 0 0 0 0 0 0 0 0 0 0 0 0 0 0 0 0 0 0 0 0 0 0 0 0 0 0 0 0
9 18 16 3 0 0 0 0 0 0 0 0 0 0 0 0 0 0 0 0 0 0 0 0 0 0 0 0 0 0 0 0 0 0 0 0 0 0 0 0 0 0 0 0 0 0 0 0 0
8 26 12 4 0 0 0 0 0 0 0 0 0 0 0 0 0 0 0 0 0 0 0 0 0 0 0 0 0 0 0 0 0 0 0 0 0 0 0 0 0 0 0 0 0 0 0 0 0
8 0 0 0 0 0 0 0 0 0 0 0 0 0 0 0 0 0 0 0 0 0 0 0 0 0 0 0 0 0 0 0 0 0 0 0 0 0 0 0 0 0 0 0 0 0 0 0 0
2 0 0 0 0 0 0 0 0 0 0 0 0 0 0 0 0 0 0 0 0 0 0 0 0 0 0 0 0 0 0 0 0 0 0 0 0 0 0 0 0 0 0 0 0 0 0 0 0

GFSSGP_con_mucape_081.txt.gz
CAPE
170 18 466 1253 574 86 0 0 0 0 0 0 0 0 0 0 0 0 1 50 412 712 614 28 4 0 0 2 4 4 5 1 0 0 0 0 0 2 7 62 78 242 392 695 596 769 839 861 933
71 649 835 1116 362 202 0 0 0 0 0 0 0 0 0 0 0 24 115 240 607 674 545 2 90 2 0 0 0 4 1 0 0 0 0 0 0 0 0 0 0 0 1 93 277 78 145 476 473
311 525 591 981 410 250 12 1 0 0 0 0 0 0 0 0 13 76 95 493 671 529 348 0 120 4 2 0 0 1 0 0 0 0 2 4 4 2 0 0 0 0 0 0 0 0 0 0 0
47 381 374 392 418 272 71 18 0 0 0 0 0 0 0 0 60 3 337 561 508 531 59 450 269 18 4 5 3 0 2 5 0 1 6 6 9 87 148 98 8 12 11 5 0 0 0 0 0
45 285 484 233 160 221 94 28 0 0 0 0 0 0 0 0 0 337 333 539 480 309 243 199 537 129 96 91 51 37 7 54 66 75 58 144 281 249 265 245 96 6 3 1 0 0 0 0 0
46 182 416 316 105 174 11 7 0 0 0 0 0 0 0 0 207 334 432 444 372 286 229 191 427 314 235 194 259 365 273 261 244 343 294 395 302 221 120 2 0 0 0 0 0 0 0 0 0
101 305 387 215 102 117 52 5 0 0 0 0 0 0 0 32 169 375 466 437 426 367 242 264 321 464 491 584 787 723 587 441 562 464 223 94 61 1 0 0 0 0 0 0 0 0 0 0 0
158 113 382 412 377 191 47 3 0 0 0 0 0 0 0 0 295 390 508 535 516 354 327 436 721 716 846 780 762 649 694 618 263 68 0 0 0 0 0 0 0 0 0 0 0 0 0 0 0
143 161 203 397 410 353 90 14 0 0 0 0 0 0 0 0 344 401 437 556 558 327 320 567 1030 892 769 680 675 550 481 162 0 0 0 0 0 0 0 0 0 0 0 0 0 0 0 0 0
76 171 254 270 203 92 64 71 20 0 0 0 0 0 0 0 294 333 242 483 450 355 384 596 912 773 581 457 150 22 33 17 0 0 0 0 0 0 0 0 0 0 0 0 0 0 0 0 0
132 117 340 215 144 97 59 143 95 0 0 0 0 2 0 0 98 237 198 350 375 285 397 571 705 577 292 129 0 6 0 0 0 0 0 0 0 0 0 0 0 0 0 0 0 0 0 0 0
191 218 284 327 80 52 95 66 33 3 0 0 0 15 0 0 0 28 203 326 405 186 447 559 561 424 177 2 8 20 0 0 0 0 0 0 0 0 0 0 0 0 0 0 0 0 0 0 0
168 355 310 349 223 60 116 77 68 8 0 0 0 6 0 0 0 6 124 236 453 301 509 520 479 297 69 31 35 19 0 0 0 0 0 0 0 0 0 0 0 0 0 0 0 0 0 0 0
54 386 365 292 304 131 143 120 79 12 18 0 2 5 4 17 14 0 61 161 405 453 621 610 379 116 71 79 50 3 0 0 0 0 0 0 0 0 0 0 0 0 0 0 0 0 0 0 0
0 208 372 271 308 163 146 93 67 53 3 16 40 26 32 85 194 149 83 194 424 570 696 693 282 199 104 109 26 0 0 0 0 0 0 0 0 0 0 0 0 0 0 0 0 0 0 0 0
0 9 279 303 317 257 118 106 31 18 16 24 55 157 214 341 467 464 383 464 489 623 759 550 252 139 132 56 0 0 0 0 0 0 0 0 0 0 0 0 0 0 0 0 0 0 0 0 0
0 0 101 330 303 313 209 145 64 30 17 16 4 463 601 678 560 634 657 526 454 732 710 477 262 201 128 60 0 0 0 0 0 0 0 0 0 0 0 0 0 0 0 0 0 0 0 0 0
1 4 48 215 324 427 313 232 105 49 32 20 20 12 2 23 0 62 274 312 654 826 678 375 208 96 20 0 0 0 0 0 0 0 0 0 0 0 0 0 0 0 0 0 0 0 0 0 0
48 95 4 99 209 197 230 161 110 59 42 32 11 19 12 4 0 5 47 419 787 729 503 166 110 24 0 0 0 0 0 0 0 0 0 0 0 0 0 0 0 0 0 0 0 0 0 0 0
76 32 31 35 77 90 112 90 44 19 22 21 21 11 1 0 2 6 284 590 661 380 122 80 21 0 0 0 0 0 0 0 0 0 0 0 0 0 0 0 0 0 0 0 0 0 0 0 0
90 87 58 63 100 94 79 27 31 27 13 22 25 11 0 0 0 25 480 621 310 119 34 7 0 0 0 0 0 0 0 0 0 0 0 0 0 0 0 0 0 0 0 0 0 0 0 0 0
86 99 103 88 97 79 78 26 86 89 20 15 5 1 0 0 0 0 76 355 223 22 0 0 0 0 0 0 0 0 0 0 0 0 0 0 0 0 0 0 0 0 0 0 0 0 0 0 0
97 132 152 105 84 68 31 31 48 0 0 0 0 0 0 0 0 0 0 155 64 0 0 0 0 0 0 0 0 0 0 0 0 0 0 0 0 0 0 0 0 0 0 0 0 0 0 0 0
127 89 76 89 97 12 14 20 0 0 0 0 0 0 0 0 0 0 0 0 0 0 0 0 0 0 0 0 0 0 0 0 0 0 0 0 0 0 0 0 0 0 0 0 0 0 0 0 0
82 51 32 46 33 1 11 17 0 10 0 0 0 0 0 0 0 0 0 0 0 0 0 0 0 0 0 0 0 0 0 0 0 0 0 0 0 0 0 0 0 0 0 0 0 0 0 0 0
99 59 27 11 0 0 15 0 0 0 0 0 0 0 0 0 0 0 0 0 0 0 0 0 0 0 0 0 0 0 0 0 0 0 0 0 0 0 0 0 0 0 0 0 0 0 0 0 0
9 18 22 0 0 0 0 0 0 0 0 0 0 0 0 0 0 0 0 0 0 0 0 0 0 0 0 0 0 0 0 0 0 0 0 0 0 0 0 0 0 0 0 0 0 0 0 0 0
2 6 11 8 0 0 0 0 0 0 0 0 0 0 0 0 0 0 0 0 0 0 0 0 0 0 0 0 0 0 0 0 0 0 0 0 0 0 0 0 0 0 0 0 0 0 0 0 0
3 0 0 0 0 1 0 0 0 0 0 0 0 0 0 0 0 0 0 0 0 0 0 0 0 0 0 0 0 0 0 0 0 0 0 0 0 0 0 0 0 0 0 0 0 0 0 0 0
0 3 6 7 0 0 0 0 0 0 0 0 0 0 0 0 0 0 0 0 0 0 0 0 0 0 0 0 0 0 0 0 0 0 0 0 0 0 0 0 0 0 0 0 0 0 0 0 0

GFSSGP_con_mucape_084.txt.gz
CAPE
219 9 445 1367 509 110 0 0 0 0 0 0 0 0 0 0 0 0 33 88 350 577 399 0 0 0 4 7 7 5 2 0 0 0 0 0 2 8 49 12 46 313 472 493 342 273 339 260 469
75 360 761 989 261 130 30 0 0 0 0 0 0 0 0 0 1 12 113 289 588 594 100 0 2 0 0 3 4 1 0 0 0 0 0 0 0 0 0 0 0 1 0 2 0 0 0 0 0
219 631 661 880 279 104 116 0 8 0 0 0 0 0 0 0 23 38 65 543 662 556 17 4 4 1 0 1 2 2 0 0 0 0 1 1 0 0 0 0 0 0 0 0 0 0 0 0 0
0 226 376 546 367 407 228 51 40 0 0 0 0 0 0 0 39 86 406 669 546 415 27 328 25 4 2 1 1 0 0 0 0 4 8 9 90 41 86 13 24 41 50 7 4 5 3 1 0
16 159 434 249 151 275 195 116 78 0 0 0 0 0 0 3 1 324 615 593 482 334 43 62 191 11 23 18 7 7 50 4 9 61 25 243 309 283 217 118 15 4 1 0 0 2 0 0 0
43 44 336 320 148 173 140 77 100 0 0 0 0 0 0 0 347 454 602 533 457 144 245 373 313 126 184 169 159 147 172 255 351 219 281 345 274 130 1 0 0 0 0 0 0 0 0 0 0
22 181 130 226 204 159 150 20 29 0 0 0 0 0 0 150 395 455 603 529 396 304 291 273 206 394 493 348 711 544 483 462 530 429 264 127 3 0 0 0 0 0 0 0 0 0 0 0 0
14 81 123 190 230 205 130 105 22 3 0 0 0 0 0 21 487 544 560 535 443 364 272 284 304 257 317 693 1024 824 665 756 365 121 0 0 0 0 0 0 0 0 0 0 0 0 0 0 0
44 22 77 330 401 438 238 102 47 22 0 0 0 0 0 105 601 615 621 552 468 362 354 426 635 498 783 578 771 830 879 253 0 0 0 0 0 0 0 0 0 0 0 0 0 0 0 0 0
108 19 79 245 419 444 254 134 88 31 0 0 0 0 0 449 613 651 868 687 625 354 405 568 849 819 724 651 612 453 181 0 0 0 0 0 0 0 0 0 0 0 0 0 0 0 0 0 0
33 58 113 247 234 198 136 97 128 97 10 0 0 0 86 480 562 574 661 464 229 252 356 615 1000 705 663 573 201 178 52 0 0 0 0 0 0 0 0 0 0 0 0 0 0 0 0 0 0
0 78 171 214 287 163 121 56 118 150 159 7 0 0 5 411 409 512 575 465 339 335 282 754 746 630 476 221 13 16 18 0 0 0 0 0 0 0 0 0 0 0 0 0 0 0 0 0 0
0 7 238 252 222 204 64 66 90 161 196 55 0 1 0 230 358 385 510 462 408 343 248 903 602 501 249 80 11 5 3 0 0 0 0 0 0 0 0 0 0 0 0 0 0 0 0 0 0
0 0 122 327 273 230 80 70 83 145 62 43 8 0 0 0 160 297 368 486 480 409 416 586 527 409 175 71 54 34 1 0 0 0 0 0 0 0 0 0 0 0 0 0 0 0 0 0 0
0 0 49 216 290 275 190 69 118 121 150 71 49 3 0 0 9 102 231 461 555 590 404 576 561 406 123 67 86 34 1 0 0 0 0 0 0 0 0 0 0 0 0 0 0 0 0 0 0
0 0 2 69 289 261 234 93 124 123 139 101 73 5 0 6 45 213 304 290 509 662 602 504 552 393 96 91 83 23 0 0 0 0 0 0 0 0 0 0 0 0 0 0 0 0 0 0 0
0 0 0 3 182 292 225 182 81 119 109 103 57 151 63 58 175 358 543 451 470 658 733 604 531 284 89 104 32 0 0 0 0 0 0 0 0 0 0 0 0 0 0 0 0 0 0 0 0
6 0 0 0 32 326 297 256 253 158 133 83 38 154 294 324 373 476 638 617 605 675 678 754 631 213 108 54 0 0 0 0 0 0 0 0 0 0 0 0 0 0 0 0 0 0 0 0 0
62 56 35 49 149 224 288 260 257 149 56 44 33 37 255 627 710 798 741 808 751 537 717 800 503 107 119 21 0 0 0 0 0 0 0 0 0 0 0 0 0 0 0 0 0 0 0 0 0
115 101 97 92 116 153 182 195 168 126 122 87 60 18 19 14 30 235 26 68 374 522 822 746 359 112 64 0 0 0 0 0 0 0 0 0 0 0 0 0 0 0 0 0 0 0 0 0 0
117 74 59 75 56 82 79 60 61 37 35 37 41 42 58 50 27 51 4 15 173 693 915 629 152 78 0 0 0 0 0 0 0 0 0 0 0 0 0 0 0 0 0 0 0 0 0 0 0
72 82 83 94 73 61 62 0 0 5 20 26 47 70 53 33 33 0 0 67 415 960 934 176 70 9 0 0 0 0 0 0 0 0 0 0 0 0 0 0 0 0 0 0 0 0 0 0 0
74 178 107 60 88 56 0 7 0 0 0 89 124 108 42 1 0 0 0 250 608 828 351 86 10 0 0 0 0 0 0 0 0 0 0 0 0 0 0 0 0 0 0 0 0 0 0 0 0
70 47 44 52 41 26 2 20 0 9 1 0 13 0 0 0 0 0 0 0 537 634 289 7 0 0 0 0 0 0 0 0 0 0 0 0 0 0 0 0 0 0 0 0 0 0 0 0 0
78 41 10 36 42 2 0 0 0 0 0 0 0 0 0 0 0 0 0 0 95 439 124 0 0 0 0 0 0 0 0 0 0 0 0 0 0 0 0 0 0 0 0 0 0 0 0 0 0
54 31 32 16 0 0 0 0 0 14 37 10 0 0 0 0 0 0 0 0 74 170 0 0 0 0 0 0 0 0 0 0 0 0 0 0 0 0 0 0 0 0 0 0 0 0 0 0 0
22 38 13 19 7 0 0 0 0 0 0 0 0 0 0 0 0 0 0 0 0 0 0 0 0 0 0 0 0 0 0 0 0 0 0 0 0 0 0 0 0 0 0 0 0 0 0 0 0
25 30 27 31 0 0 0 0 0 0 0 0 0 0 0 0 0 0 0 0 0 0 0 0 0 0 0 0 0 0 0 0 0 0 0 0 0 0 0 0 0 0 0 0 0 0 0 0 0
5 29 14 2 7 0 0 0 0 0 0 0 0 0 0 0 0 0 0 0 0 0 0 0 0 0 0 0 0 0 0 0 0 0 0 0 0 0 0 0 0 0 0 0 0 0 0 0 0
29 2 0 5 13 0 0 0 0 0 0 0 0 0 0 0 0 0 0 0 0 0 0 0 0 0 0 0 0 0 0 0 0 0 0 0 0 0 0 0 0 0 0 0 0 0 0 0 0

GFSSGP_con_mucape_090.txt.gz
CAPE
25 864 1578 2086 1199 542 19 55 33 0 0 0 0 0 0 0 0 90 573 239 249 265 118 286 0 135 188 105 8 1 0 0 0 1 0 0 27 3 1 50 92 10 0 0 0 0 0 40 605
45 543 1242 1777 658 101 2 51 88 16 0 0 0 0 0 3 201 414 435 396 341 290 37 219 9 14 3 3 1 0 0 0 0 0 0 0 2 1 0 0 0 0 0 0 1 0 0 112 806
100 758 1600 745 488 298 86 338 206 0 0 0 0 0 0 4 260 278 376 441 401 309 93 73 41 13 2 1 0 0 0 0 0 0 0 0 0 0 0 1 2 3 3 3 2 0 0 109 725
288 921 819 733 332 435 479 465 111 15 0 0 0 0 0 0 221 176 524 366 256 69 104 87 33 2 2 1 0 0 0 2 7 8 2 2 11 44 32 16 17 7 19 10 0 0 0 109 608
265 633 483 554 391 447 716 671 274 51 0 0 0 0 0 222 341 573 584 285 59 48 28 30 2 0 2 2 0 0 1 20 7 11 200 197 163 192 100 10 1 7 5 0 0 0 0 14 181
24 236 438 470 485 457 552 559 201 100 27 0 0 0 21 471 634 588 434 197 18 98 5 0 12 1 1 1 40 56 25 109 402 301 316 275 178 0 0 0 0 0 0 0 0 0 0 6 22
6 293 319 449 610 559 522 432 258 208 20 0 0 0 111 549 577 519 317 168 56 97 25 0 0 127 145 167 258 267 350 410 492 375 279 1 0 0 0 0 0 0 0 0 0 0 0 0 0
0 146 252 385 544 581 486 271 241 264 60 2 5 13 204 542 688 592 510 298 91 21 7 7 0 13 202 496 619 546 667 579 529 161 0 0 0 0 0 0 0 0 0 0 0 0 0 0 0
2 8 134 323 477 618 362 240 239 210 96 16 9 65 86 785 804 864 741 401 83 19 158 32 8 94 507 760 751 589 598 476 0 0 0 0 0 0 0 0 0 0 0 0 0 0 0 0 0
0 7 64 197 455 662 516 291 253 241 166 39 141 71 480 979 934 990 776 542 174 122 191 112 109 269 745 673 694 645 606 57 0 0 0 0 0 0 0 0 0 0 0 0 0 0 0 0 0
0 0 2 75 277 533 465 261 317 261 202 157 124 447 1051 1116 964 1002 836 629 348 147 234 275 230 473 852 791 768 625 93 0 0 0 0 0 0 0 0 0 0 0 0 0 0 0 0 0 0
0 0 0 6 174 362 335 240 225 295 366 205 11 574 1194 1262 1026 1021 923 779 487 267 345 553 495 897 1105 903 713 487 12 0 0 0 0 0 0 0 0 0 0 0 0 0 0 0 0 0 0
0 0 0 0 3 234 163 164 185 137 183 232 95 588 1251 1303 1150 951 915 957 625 439 456 785 1133 1298 1149 982 625 250 11 0 0 0 0 0 0 0 0 0 0 0 0 0 0 0 0 0 0
0 0 0 0 5 84 28 126 109 160 147 147 185 500 1169 1269 1260 1088 1069 1093 948 616 529 892 1236 1324 1078 570 168 112 24 0 0 0 0 0 0 0 0 0 0 0 0 0 0 0 0 0 0
0 0 0 0 0 42 74 159 46 113 160 119 127 446 960 1210 1249 1171 1183 1164 1127 889 644 977 1225 1187 973 238 57 21 30 0 0 0 0 0 0 0 0 0 0 0 0 0 0 0 0 0 0
0 0 0 0 0 0 77 58 304 175 227 143 115 245 393 1011 1386 1426 1266 1211 1256 1152 727 865 995 1127 887 103 61 34 43 0 0 0 0 0 0 0 0 0 0 0 0 0 0 0 0 0 0
0 0 0 0 3 2 49 0 260 178 246 192 173 164 271 548 1188 1250 1113 1254 1312 1354 1277 1122 950 1053 289 201 44 42 45 0 0 0 0 0 0 0 0 0 0 0 0 0 0 0 0 0 0
0 0 0 0 0 91 84 168 50 144 217 215 325 330 452 462 405 803 776 1033 1219 1209 1283 1403 1193 544 311 210 68 45 22 0 0 0 0 0 0 0 0 0 0 0 0 0 0 0 0 0 0
0 0 0 0 1 44 56 146 159 153 189 191 345 506 512 447 145 49 21 507 565 918 1381 1529 920 342 385 150 74 51 1 0 0 0 0 0 0 0 0 0 0 0 0 0 0 0 0 0 0
0 0 0 26 54 113 46 271 299 212 264 190 115 136 274 260 336 262 182 381 658 1168 1463 1381 670 442 342 112 98 24 0 0 0 0 0 0 0 0 0 0 0 0 0 0 0 0 0 0 0
39 48 0 58 213 192 57 45 187 96 191 219 133 90 25 47 109 234 412 618 907 1173 1297 1166 469 487 384 129 74 2 0 0 0 0 0 0 0 0 0 0 0 0 0 0 0 0 0 0 0
111 101 12 174 182 116 228 7 17 190 187 208 190 113 67 52 39 244 352 508 949 1128 957 488 548 372 236 109 17 4 0 0 0 0 0 0 0 0 0 0 0 0 0 0 0 0 0 0 0
191 145 20 54 223 200 144 80 127 8 246 244 161 138 123 99 75 51 40 16 42 339 339 462 558 425 205 74 57 2 0 0 0 0 0 0 0 0 0 0 0 0 0 0 0 0 0 0 0
339 311 163 181 236 181 76 141 64 23 17 97 126 127 84 63 72 59 51 44 73 0 77 434 650 275 83 116 86 2 0 0 0 0 0 0 0 0 0 0 0 0 0 0 0 0 0 0 0
455 204 101 129 6 125 73 107 57 3 0 0 0 0 0 20 59 121 132 79 19 21 127 568 502 133 158 204 63 2 0 0 0 0 0 0 0 0 0 0 0 0 0 0 0 0 0 0 0
106 80 93 258 53 112 0 36 0 0 0 0 0 0 0 0 4 43 73 19 20 214 726 742 282 173 286 175 31 1 0 0 0 0 0 0 0 0 0 0 0 0 0 0 0 0 0 0 0
160 70 0 1 0 103 52 1 0 0 0 0 0 0 0 0 0 0 0 0 3 389 983 483 231 419 254 95 4 0 0 0 0 0 0 0 0 0 0 0 0 0 0 0 0 0 0 0 0
65 16 0 0 18 26 7 0 32 0 0 0 3 1 0 0 0 0 0 0 1 279 445 167 267 323 96 1 0 0 0 0 0 0 0 0 0 0 0 0 0 0 0 0 0 0 0 0 0
8 12 52 48 24 97 17 0 0 0 0 0 0 0 0 0 0 0 0 0 5 225 177 171 338 42 0 0 0 0 0 0 0 0 0 0 0 0 0 0 0 0 0 0 0 0 0 0 0
0 20 52 195 4 0 0 0 0 0 0 0 0 0 0 0 0 0 0 0 46 168 172 37 0 0 0 0 0 0 0 0 0 0 0 0 0 0 0 0 0 0 0 0 0 0 0 0 0

GFSSGP_con_mucape_093.txt.gz
CAPE
109 438 2285 2517 1546 430 37 82 52 23 0 0 0 0 0 0 51 839 638 7 1 64 191 19 438 653 550 156 66 0 0 50 87 2 35 142 62 50 115 88 0 0 0 0 0 0 226 669 314
62 402 1455 1906 392 82 198 23 111 187 13 0 0 0 0 126 358 721 405 148 70 44 53 57 100 403 227 113 11 0 0 0 0 0 1 1 0 0 0 0 0 0 2 3 2 70 230 681 361
544 581 1495 811 172 70 183 162 162 224 0 0 0 0 0 98 353 387 308 189 103 1 25 155 217 112 23 1 0 0 0 0 0 0 0 0 0 1 2 3 6 4 7 0 0 0 309 661 465
146 1169 1122 652 171 296 173 188 326 110 16 0 0 0 0 0 123 173 163 166 145 5 217 225 199 71 2 0 0 0 0 1 0 0 0 2 7 31 48 8 9 91 0 0 0 0 287 672 544
9 931 704 167 93 145 437 416 619 260 63 2 0 0 5 76 166 197 192 152 38 3 134 174 117 33 2 1 0 0 2 20 7 94 92 95 281 233 27 3 6 1 0 0 0 72 200 369 385
121 376 504 223 324 455 406 513 747 451 95 39 0 0 71 371 313 299 191 96 0 26 1 11 33 19 13 3 1 1 45 130 242 245 225 211 74 8 0 0 1 0 0 0 0 0 1 25 21
27 468 384 387 504 610 601 513 752 606 376 170 0 0 421 291 351 307 215 2 12 11 0 0 0 61 167 106 139 145 321 454 491 405 118 2 0 0 0 0 0 0 0 0 0 0 0 0 0
9 327 435 543 498 629 743 573 621 606 618 196 0 0 414 367 324 314 246 33 18 0 0 0 0 0 2 295 663 581 538 561 507 138 0 0 0 0 0 0 0 0 0 0 0 0 0 0 0
0 52 192 428 604 596 674 655 596 404 568 245 24 101 236 565 366 420 353 55 17 0 3 2 0 35 372 427 771 694 749 378 0 0 0 2 1 0 0 0 0 0 0 0 0 0 0 0 0
0 0 5 191 380 559 620 682 589 257 454 364 130 284 620 656 562 635 510 156 24 24 163 6 15 74 354 485 546 678 598 188 6 0 0 1 0 0 0 0 0 0 0 0 0 0 0 0 0
0 0 0 0 88 331 637 727 626 392 518 553 354 318 974 811 802 850 657 361 76 154 220 32 85 192 381 248 508 521 358 2 0 0 0 0 0 0 0 0 0 0 0 0 0 0 0 0 0
0 0 0 0 0 212 416 609 632 488 612 588 290 325 1160 1023 1009 975 798 504 143 226 226 169 168 297 397 343 734 281 12 0 0 0 0 0 0 0 0 0 0 0 0 0 0 0 0 0 0
0 0 0 0 0 3 186 445 508 489 501 244 207 366 1228 1220 1066 1014 827 524 261 280 318 399 401 603 565 745 666 318 4 0 0 0 0 0 0 0 0 0 0 0 0 0 0 0 0 0 0
0 0 0 0 0 0 0 26 279 424 427 185 276 179 1050 1304 1167 1076 907 704 455 343 489 657 664 853 797 633 682 273 5 0 0 0 0 0 0 0 0 0 0 0 0 0 0 0 0 0 0
0 0 0 0 0 0 0 4 14 176 226 201 254 415 732 1243 1303 1098 1014 927 649 498 580 899 1148 1078 1009 931 322 100 32 11 0 0 0 0 0 0 0 0 0 0 0 0 0 0 0 0 0
0 0 0 0 0 0 0 0 0 52 272 125 267 412 610 1164 1318 1233 1044 1020 922 617 728 1082 1539 1326 1170 694 210 52 15 18 2 0 0 0 0 0 0 0 0 0 0 0 0 0 0 0 0
0 0 0 0 0 0 0 0 0 0 309 141 285 336 678 1149 1266 1320 1218 1180 1118 975 933 1098 1619 1330 805 544 56 23 15 1 1 0 0 0 0 0 0 0 0 0 0 0 0 0 0 0 0
0 0 0 0 0 0 0 0 0 0 242 200 390 295 324 684 1219 737 895 1501 1234 1241 1274 1157 1377 1313 821 244 112 4 9 0 0 0 0 0 0 0 0 0 0 0 0 0 0 0 0 0 0
0 0 0 0 0 0 9 14 19 0 257 270 478 440 310 368 843 1189 1388 1352 1380 1506 905 1599 1428 1032 632 221 121 13 23 3 0 0 0 0 0 0 0 0 0 0 0 0 0 0 0 0 0
0 0 0 0 0 1 6 20 28 37 216 220 561 584 348 360 541 999 1278 1327 1387 606 135 1620 1420 746 329 250 88 13 29 0 0 0 0 0 0 0 0 0 0 0 0 0 0 0 0 0 0
25 0 0 1 0 0 92 43 44 39 264 181 267 465 380 323 462 583 753 920 719 348 975 1472 1235 726 315 235 73 70 40 0 0 0 0 0 0 0 0 0 0 0 0 0 0 0 0 0 0
61 61 27 18 15 105 167 88 65 71 301 292 340 234 163 178 209 509 538 517 505 827 1349 1630 1193 547 312 101 88 93 24 10 0 0 0 0 0 0 0 0 0 0 0 0 0 0 0 0 0
157 135 58 106 56 146 167 137 20 33 114 269 428 366 183 189 67 116 354 661 842 1215 1361 1473 1083 429 157 114 122 124 41 13 0 0 0 0 0 0 0 0 0 0 0 0 0 0 0 0 0
296 164 173 191 237 37 0 60 31 47 6 55 274 519 335 233 84 75 34 207 433 1102 1441 1111 803 352 208 104 174 108 90 14 5 0 0 0 0 0 0 0 0 0 0 0 0 0 0 0 0
359 201 21 170 268 174 0 3 56 171 136 56 130 349 361 179 157 88 68 30 27 123 356 521 250 275 186 173 130 149 90 31 5 0 0 0 0 0 0 0 0 0 0 0 0 0 0 0 0
240 158 75 14 35 22 124 221 1 1 23 0 3 95 162 157 15 28 90 120 122 73 41 151 197 263 209 153 135 127 137 5 1 0 0 0 0 0 0 0 0 0 0 0 0 0 0 0 0
91 68 0 0 0 0 2 26 6 7 0 0 0 0 0 0 0 14 58 112 89 65 70 191 360 327 264 173 134 198 59 17 0 0 0 0 0 0 0 0 0 0 0 0 0 0 0 0 0
6 27 0 6 191 45 19 10 3 0 0 0 0 0 0 0 0 0 6 38 36 27 458 678 677 458 306 247 247 114 43 0 0 0 0 0 0 0 0 0 0 0 0 0 0 0 0 0 0
12 24 0 11 5 116 19 0 0 0 0 0 0 0 0 0 0 0 0 0 0 291 809 819 535 166 226 336 113 30 0 0 0 0 0 0 0 0 0 0 0 0 0 0 0 0 0 0 0
0 6 8 1 1 40 0 0 0 0 0 0 0 0 0 0 0 0 0 0 4 312 158 133 73 98 153 69 1 0 0 0 0 0 0 0 0 0 0 0 0 0 0 0 0 0 0 0 0

GFSSGP_con_mucape_096.txt.gz
CAPE
107 86 2176 2885 1629 1231 76 51 68 38 0 0 0 0 0 39 466 1313 486 165 309 43 0 940 1417 927 583 340 44 16 331 214 66 116 264 138 197 175 1 0 0 2 3 3 85 257 553 211 148
297 59 2089 1942 1189 86 105 63 145 61 14 0 0 0 0 333 671 608 307 33 148 96 0 427 936 775 457 292 0 0 0 0 1 3 7 4 0 0 0 0 0 3 4 1 2 328 486 305 262
248 377 1565 1331 402 170 4 81 75 81 64 0 0 0 0 339 605 355 122 1 41 64 0 159 850 421 247 16 0 0 0 0 0 1 1 0 3 3 5 6 9 1 0 0 53 485 494 375 286
67 1070 967 780 427 178 12 78 227 105 10 0 0 0 0 173 276 285 121 43 0 128 106 681 520 172 0 0 0 0 0 0 0 0 0 4 9 21 11 112 2 0 0 14 71 387 452 309 171
116 869 692 275 40 41 24 65 394 218 13 0 0 0 0 72 184 97 110 92 1 420 188 330 288 54 0 0 0 2 8 4 12 13 148 296 231 49 8 14 0 0 0 3 53 112 195 159 56
49 551 467 380 293 90 19 7 304 413 155 2 0 0 18 158 91 121 149 90 0 252 102 128 351 108 1 1 1 28 74 184 262 179 238 180 37 3 6 5 1 0 0 0 0 1 1 0 0
46 270 303 271 320 305 179 256 471 471 419 31 12 11 265 151 148 129 121 2 56 41 14 0 25 222 294 172 63 264 572 584 504 348 11 1 1 0 1 0 0 0 0 0 0 0 0 0 0
53 189 125 293 398 357 297 283 537 504 489 284 156 204 315 156 191 131 51 0 18 0 0 0 0 12 50 225 801 735 701 690 209 0 0 0 0 0 0 0 0 0 0 0 0 0 0 0 0
68 43 23 163 380 375 393 311 229 270 305 305 106 50 293 305 203 171 21 0 0 0 0 0 0 0 67 343 863 760 878 508 55 20 42 0 0 0 0 0 0 0 0 0 0 0 0 0 0
1 20 14 57 145 242 240 220 469 187 224 401 114 313 278 272 243 233 93 3 0 0 0 0 0 110 209 457 569 549 281 0 0 0 0 6 0 0 0 0 0 0 0 0 0 0 0 0 0
0 0 0 0 0 142 95 130 467 185 285 434 325 553 425 296 314 374 196 39 0 0 1 0 8 309 216 538 425 482 316 16 0 0 0 0 0 0 0 0 0 0 0 0 0 0 0 0 0
0 0 0 0 0 0 2 78 262 261 237 449 502 557 641 450 487 561 351 98 1 44 55 0 22 131 229 498 353 454 38 0 0 0 0 0 0 0 0 0 0 0 0 0 0 0 0 0 0
0 0 0 0 0 0 0 0 131 213 418 529 439 320 826 641 661 745 538 266 40 133 65 12 28 277 467 610 311 82 0 0 0 0 0 0 0 0 0 0 0 0 0 0 0 0 0 0 0
0 0 0 0 0 0 0 0 40 39 284 351 391 297 1024 929 838 871 639 381 140 166 101 106 81 265 468 541 429 30 2 0 0 0 0 0 0 0 0 0 0 0 0 0 0 0 0 0 0
0 0 0 0 0 0 0 0 0 0 7 218 315 333 741 1182 976 952 787 380 203 209 156 256 399 675 582 457 308 108 2 0 0 0 0 0 0 0 0 0 0 0 0 0 0 0 0 0 0
0 0 0 0 0 0 0 0 0 0 0 187 218 324 332 1008 1180 1018 796 520 308 196 310 589 775 692 691 485 336 82 35 13 1 0 0 0 0 0 0 0 0 0 0 0 0 0 0 0 0
0 0 0 0 0 0 0 0 0 0 1 56 221 260 430 647 1146 1118 922 670 467 252 455 1293 1186 918 826 628 368 141 30 22 16 7 0 0 0 0 0 0 0 0 0 0 0 0 0 0 0
0 0 0 0 0 0 0 0 0 0 0 37 239 272 377 530 1220 1146 950 734 362 368 608 1685 1487 1157 842 681 297 69 39 16 0 0 0 0 0 0 0 0 0 0 0 0 0 0 0 0 0
3 0 0 0 0 0 0 0 0 0 0 0 30 261 329 793 1306 1292 1151 1013 631 497 663 1688 1511 1179 740 509 123 67 43 1 0 0 0 0 0 0 0 0 0 0 0 0 0 0 0 0 0
18 16 0 0 0 0 0 0 0 4 0 19 443 410 214 366 1078 1253 1130 610 191 864 443 1370 1263 1183 889 386 214 47 22 44 9 0 0 0 0 0 0 0 0 0 0 0 0 0 0 0 0
24 35 13 2 0 0 0 0 0 0 7 280 368 350 507 464 327 1030 799 629 1142 1298 1043 1349 1239 1099 902 450 187 49 48 69 32 0 0 0 0 0 0 0 0 0 0 0 0 0 0 0 0
47 69 45 26 33 0 0 0 0 27 28 160 293 362 541 484 319 975 1404 1363 1515 1156 709 1437 1273 1175 915 366 193 74 79 66 1 0 0 0 0 0 0 0 0 0 0 0 0 0 0 0 0
92 68 84 186 62 15 0 4 0 48 60 227 220 357 499 417 394 723 1283 1191 1080 608 984 1552 1303 909 661 282 160 88 68 54 21 17 4 0 0 0 0 0 0 0 0 0 0 0 0 0 0
106 35 42 101 151 25 0 95 57 22 25 342 358 367 333 273 250 519 695 718 542 993 1356 1515 1324 843 397 129 118 111 96 109 84 63 28 1 0 0 0 0 0 0 0 0 0 0 0 0 0
53 40 0 0 0 0 107 5 0 68 8 88 135 48 364 235 228 144 298 638 1142 1322 1423 1407 1307 755 270 107 108 98 93 178 97 45 18 6 0 0 0 0 0 0 0 0 0 0 0 0 0
59 0 0 0 0 12 0 0 20 13 16 79 95 214 400 410 348 234 111 80 337 875 899 912 764 739 313 65 77 63 136 138 73 40 4 1 0 0 0 0 0 0 0 0 0 0 0 0 0
0 0 0 1 0 0 0 0 8 2 26 0 23 74 279 325 243 155 180 132 82 58 97 228 188 225 126 97 96 153 110 88 38 9 0 0 0 0 0 0 0 0 0 0 0 0 0 0 0
32 4 0 0 0 0 1 0 0 1 5 0 0 16 21 90 100 2 7 49 98 145 102 89 118 156 165 178 181 103 129 7 4 0 2 0 0 0 0 0 0 0 0 0 0 0 0 0 0
1 0 0 3 3 20 0 0 0 0 1 11 12 0 0 4 5 0 0 3 60 33 28 108 234 350 342 236 135 64 42 15 0 0 0 0 0 0 0 0 0 0 0 0 0 0 0 0 0
0 0 0 1 3 0 0 0 2 0 0 0 0 12 17 2 0 10 1 0 0 136 160 204 143 142 257 152 111 25 59 2 0 0 0 0 0 0 0 0 0 0 0 0 0 0 0 0 0

GFSSGP_con_mucape_102.txt.gz
CAPE
190 823 1386 1966 323 386 5 0 0 0 0 0 0 0 9 248 152 4 430 296 293 822 1169 1478 1833 1221 811 999 1078 828 870 822 734 521 379 99 38 4 8 8 7 6 23 330 141 74 101 150 187
150 642 634 962 88 0 0 25 14 2 1 1 9 14 41 428 545 482 447 479 569 956 1169 1245 1483 1035 692 910 648 417 472 509 177 15 16 2 0 1 4 4 5 10 220 345 291 156 116 131 59
8 89 520 561 126 0 0 0 0 1 9 24 14 9 161 429 422 649 487 654 825 1007 1111 1188 1186 538 295 335 290 176 134 82 10 0 1 3 4 7 3 4 6 13 482 440 369 185 130 14 107
0 185 268 426 159 150 0 16 23 26 76 31 35 9 223 90 262 458 637 484 806 902 950 1506 1072 164 101 4 3 1 3 2 1 4 6 10 22 12 11 22 82 40 329 299 247 159 40 0 463
30 311 192 191 262 301 186 77 35 117 209 68 21 1 213 144 187 385 423 22 575 793 947 951 865 216 3 0 0 2 4 3 7 26 140 425 136 20 8 17 49 41 71 55 33 15 10 0 3
105 73 178 28 88 214 240 112 114 292 101 27 13 7 171 207 208 460 244 48 398 691 640 515 434 61 7 6 2 2 5 45 119 457 198 87 86 19 5 2 5 7 6 1 0 0 0 0 0
14 40 19 127 186 251 421 267 179 137 266 153 55 11 155 365 175 322 285 141 246 567 315 105 2 89 449 353 453 491 534 693 651 373 132 30 13 8 2 1 0 0 0 0 0 0 0 0 0
0 11 0 21 106 244 494 613 419 530 399 111 21 100 259 292 93 320 344 181 269 233 167 0 0 16 97 311 1145 971 924 824 575 188 32 8 5 2 0 0 0 0 0 0 0 0 0 0 0
0 0 0 2 80 254 477 228 316 161 123 80 159 55 37 79 99 244 233 185 259 180 61 0 25 79 210 654 1003 1189 1123 775 464 80 3 0 0 0 0 0 0 0 0 0 0 0 0 0 0
0 0 0 8 30 55 189 86 299 150 87 44 58 119 20 118 148 360 428 425 218 87 39 32 68 119 361 990 862 579 394 67 0 0 0 0 0 0 0 0 0 0 0 0 0 0 0 0 0
0 0 0 0 0 0 0 2 0 177 131 114 94 120 191 219 228 320 467 267 138 15 25 73 82 219 538 782 685 219 9 0 0 0 0 0 0 0 0 0 0 0 0 0 0 0 0 0 0
0 0 0 0 0 0 0 0 28 330 334 426 466 256 145 194 234 220 344 249 184 0 0 25 63 348 748 680 555 241 0 0 0 0 0 0 0 0 0 0 0 0 0 0 0 0 0 0 0
0 0 0 0 0 0 0 0 0 94 225 404 488 416 310 243 197 86 190 274 230 5 0 3 62 457 699 526 343 8 0 0 0 0 0 0 0 0 0 0 0 0 0 0 0 0 0 0 0
0 0 0 0 0 0 0 0 0 0 198 377 447 466 407 292 183 84 19 278 257 70 76 16 194 490 587 378 227 6 0 0 0 0 0 0 0 0 0 0 0 0 0 0 0 0 0 0 0
0 0 0 0 0 0 0 0 0 0 185 231 316 445 518 418 272 102 66 196 247 112 138 197 341 549 485 343 202 71 2 0 0 0 0 1 0 0 0 0 0 0 0 0 0 0 0 0 0
0 0 0 0 0 0 0 0 0 0 0 69 352 549 617 432 324 309 184 239 185 105 188 163 483 589 563 280 426 100 0 0 0 0 0 0 0 0 0 0 0 0 0 0 0 0 0 0 0
0 0 0 0 0 0 0 0 0 0 0 0 0 250 734 688 491 441 323 219 130 134 198 182 418 573 585 415 533 132 0 3 3 1 3 0 0 0 0 0 0 0 0 0 0 0 0 0 0
0 0 0 0 0 0 0 0 0 0 0 0 0 0 66 433 673 599 380 334 190 156 202 318 485 644 671 514 282 149 85 50 16 4 5 0 0 0 0 0 0 0 0 0 0 0 0 0 0
0 0 0 0 0 0 0 0 0 0 0 0 0 0 0 12 672 875 609 542 281 262 241 469 579 721 639 411 222 177 162 88 36 32 4 0 0 0 0 0 0 0 0 0 0 0 0 0 0
0 0 0 0 0 0 0 0 0 0 0 0 0 0 0 0 120 632 725 708 360 313 289 527 625 611 500 339 243 293 188 116 43 45 14 0 0 0 0 0 0 0 0 0 0 0 0 0 0
0 0 0 0 0 0 0 0 0 0 0 0 0 0 0 0 723 648 728 768 409 494 466 409 567 508 490 402 337 222 170 102 52 19 10 0 0 0 0 0 0 0 0 0 0 0 0 0 0
0 0 0 0 0 0 0 0 0 0 0 0 0 0 0 426 813 828 821 583 498 781 733 600 486 523 430 290 353 213 177 88 20 4 20 0 0 0 0 0 0 0 0 0 0 0 0 0 0
0 0 0 0 0 0 0 0 0 0 0 0 0 0 0 734 1039 996 885 623 522 436 836 703 570 416 423 472 329 242 144 79 49 18 48 46 2 0 0 0 0 0 0 0 0 0 0 0 0
0 0 0 0 0 0 2 2 0 57 15 13 0 7 0 206 1210 1141 1037 865 656 640 934 818 620 472 347 406 241 233 118 56 84 70 57 33 52 22 3 0 0 0 0 0 0 0 0 0 0
0 0 0 0 0 0 0 4 0 46 73 14 58 63 26 191 325 496 762 659 664 828 956 829 559 133 30 199 114 127 109 51 46 52 62 55 69 17 14 0 0 0 0 0 0 0 0 0 0
0 0 0 0 0 0 0 0 10 100 55 166 178 131 300 481 511 631 583 691 753 740 601 458 377 86 72 142 91 104 121 126 73 46 42 42 21 12 2 0 0 0 0 0 0 0 0 0 0
0 0 0 0 0 0 0 0 8 35 48 146 231 242 215 326 473 542 588 686 526 645 503 494 331 273 196 180 105 144 157 52 55 29 50 31 24 15 0 0 0 0 0 0 0 0 0 0 0
0 0 0 0 0 0 0 1 0 0 18 7 77 101 122 156 122 131 194 303 465 678 506 526 452 155 92 54 19 11 22 40 38 36 23 12 4 0 0 0 0 0 0 0 0 0 0 0 0
0 0 0 0 0 0 0 0 0 0 27 31 0 22 3 49 25 23 20 30 135 206 244 239 68 32 8 68 6 12 10 16 3 8 2 1 0 0 0 0 0 0 0 0 0 0 0 0 0
0 0 0 0 0 0 0 0 0 0 0 17 21 5 1 2 4 28 25 34 60 62 68 54 57 48 13 7 12 6 7 11 3 14 0 0 0 0 0 0 0 0 0 0 0 0 0 0 0

GFSSGP_con_mucape_105.txt.gz
CAPE
224 8 1257 1415 25 121 0 0 0 1 0 0 0 0 0 45 0 0 250 173 96 682 556 1548 1709 1246 1227 1179 1073 1075 1033 1009 827 747 587 172 41 15 10 6 5 143 151 60 121 187 179 138 45
180 117 614 674 7 0 0 0 0 1 0 0 0 19 7 335 273 265 204 182 414 757 1224 1108 1508 1767 1384 1315 992 1061 919 745 709 376 16 10 6 5 3 3 4 309 211 119 172 67 45 98 10
0 95 349 492 133 0 0 0 0 7 9 10 0 20 129 357 292 190 260 321 628 1186 1193 977 1734 1522 1410 995 842 707 647 149 11 9 6 7 6 3 4 8 153 309 265 190 121 6 226 23 0
0 98 286 336 79 106 0 0 32 35 20 12 15 5 120 104 385 421 414 601 906 1164 1038 1449 1354 905 936 822 406 239 121 61 6 7 7 10 12 13 11 17 426 389 283 163 34 22 177 28 1
0 336 319 245 256 336 253 142 77 106 76 43 26 6 149 174 280 442 562 782 843 1007 1167 993 693 272 233 179 86 48 13 5 10 11 11 98 15 63 280 241 42 200 167 63 6 1 45 9 0
0 204 245 55 173 330 334 207 114 229 84 51 32 72 164 113 323 509 564 628 742 910 1005 734 777 274 105 14 7 5 5 8 39 386 551 221 47 15 53 36 53 24 5 4 0 0 2 0 0
6 197 88 148 228 361 403 339 249 193 180 127 67 45 49 255 312 661 266 550 779 826 808 599 103 93 283 109 17 6 51 162 603 400 223 173 101 10 8 7 6 2 0 0 0 0 0 0 0
0 33 12 21 130 305 439 614 420 460 529 205 140 52 87 399 406 402 73 562 783 684 531 190 2 0 35 55 723 529 776 786 618 276 189 25 7 10 3 0 0 0 0 0 0 0 0 0 0
0 0 0 17 122 321 460 404 411 180 269 172 117 124 176 431 465 339 253 420 582 470 304 34 0 29 95 240 759 876 901 755 541 253 55 3 0 0 0 0 0 0 0 0 0 0 0 0 0
0 0 0 14 52 75 134 127 114 44 72 137 130 137 43 362 352 410 373 235 267 300 143 12 28 78 214 817 753 737 601 278 9 0 0 0 0 0 0 0 0 0 0 0 0 0 0 0 0
0 0 0 0 0 0 0 6 0 47 74 91 182 157 118 398 434 490 487 188 140 219 102 30 66 132 472 787 800 706 387 16 0 0 0 0 0 0 0 0 0 0 0 0 0 0 0 0 0
0 0 0 0 0 0 0 0 0 79 10 39 193 217 239 373 463 443 427 248 290 266 82 54 71 205 749 755 668 396 61 0 0 0 0 0 0 0 0 0 0 0 0 0 0 0 0 0 0
0 0 0 0 0 0 0 0 0 0 11 103 577 342 354 344 422 452 418 459 391 123 79 76 101 276 826 740 376 158 1 0 0 0 0 0 0 0 0 0 0 0 0 0 0 0 0 0 0
0 0 0 0 0 0 0 0 0 0 0 277 615 470 390 436 395 346 498 554 194 153 51 47 85 379 850 573 399 97 0 0 0 0 0 0 0 0 0 0 0 0 0 0 0 0 0 0 0
0 0 0 0 0 0 0 0 0 0 0 12 286 600 577 321 306 233 338 197 7 179 65 17 57 439 814 543 352 1 0 0 0 0 0 0 0 0 0 0 0 0 0 0 0 0 0 0 0
0 0 0 0 0 0 0 0 0 0 0 0 0 275 669 576 372 366 317 91 68 176 123 17 50 455 717 403 223 1 0 0 0 0 0 0 0 0 0 0 0 0 0 0 0 0 0 0 0
0 0 0 0 0 0 0 0 0 0 0 0 0 0 184 686 485 503 257 89 29 141 298 62 84 461 619 353 225 34 15 2 0 0 0 0 0 0 0 0 0 0 0 0 0 0 0 0 0
0 0 0 0 0 0 0 0 0 0 0 0 0 0 7 571 562 547 326 165 176 52 228 55 147 509 647 415 170 132 73 8 34 6 2 0 0 0 0 0 0 0 0 0 0 0 0 0 0
0 0 0 0 0 0 0 0 0 0 0 0 0 0 0 0 530 607 523 340 240 158 152 29 228 489 747 623 256 289 78 40 48 27 2 0 0 0 0 0 0 0 0 0 0 0 0 0 0
0 0 0 0 0 0 0 0 0 0 0 0 0 0 0 0 0 298 529 516 469 346 154 66 168 337 630 773 224 298 90 51 74 55 23 32 0 0 0 0 0 0 0 0 0 0 0 0 0
0 0 0 0 0 0 0 0 0 0 0 0 0 0 0 0 0 312 587 497 451 288 174 129 172 239 474 679 351 292 136 69 82 49 27 44 13 0 0 0 0 0 0 0 0 0 0 0 0
0 0 0 0 0 0 0 0 0 0 0 0 0 0 0 0 2 402 582 663 411 325 231 176 162 186 390 530 466 238 131 95 53 61 24 42 0 0 0 0 0 0 0 0 0 0 0 0 0
0 0 0 0 0 0 0 0 0 1 33 11 0 0 0 0 154 567 594 764 812 562 373 277 234 220 269 434 246 150 130 111 97 37 47 11 2 0 0 0 0 0 0 0 0 0 0 0 0
0 0 0 0 0 0 0 0 0 32 51 94 49 66 14 0 838 723 656 607 773 717 650 465 291 341 329 358 137 78 89 100 40 48 26 60 30 0 0 0 0 0 0 0 0 0 0 0 0
0 0 0 0 0 0 0 0 24 51 163 172 234 248 290 224 1074 977 885 692 781 544 609 413 441 106 120 231 57 101 94 51 45 10 3 47 67 21 30 2 0 0 0 0 0 0 0 0 0
0 0 0 0 0 0 0 0 11 41 189 481 378 685 734 593 539 904 828 642 744 569 450 155 41 54 77 6 113 55 17 35 105 112 59 66 38 22 2 0 0 0 0 0 0 0 0 0 0
0 0 0 0 0 0 0 0 0 32 47 231 129 226 554 496 566 351 538 528 547 821 962 884 360 308 62 92 24 4 4 58 132 116 94 101 27 24 15 0 0 0 0 0 0 0 0 0 0
0 0 0 0 0 0 0 0 2 7 0 16 85 152 154 141 185 309 459 537 550 772 545 312 246 138 90 129 136 120 84 105 65 9 22 24 27 6 0 0 0 0 0 1 0 0 0 0 0
0 0 0 0 0 0 0 0 0 2 27 6 43 58 105 56 50 41 142 233 362 617 418 162 79 61 46 19 2 0 2 3 11 20 12 11 0 0 0 0 0 0 0 0 0 0 0 0 0
0 0 0 0 0 0 0 0 0 0 15 22 0 4 0 56 23 24 101 83 68 50 59 68 54 45 23 3 5 5 10 9 0 0 14 0 0 0 0 0 0 0 0 0 0 0 0 0 0

GFSSGP_con_mucape_108.txt.gz
CAPE
193 18 1009 1079 6 0 0 0 0 0 0 0 0 0 0 1 0 0 54 102 29 28 870 1228 2075 1778 1487 1337 1291 1273 1168 1059 902 774 556 11 10 9 2 0 272 21 11 176 121 198 44 23 5
60 103 642 525 0 0 0 0 0 0 0 0 0 0 2 123 176 802 174 101 96 441 711 1362 1898 1683 1593 1373 1362 1206 1064 1041 778 387 7 10 6 5 1 1 288 171 131 170 44 179 31 1 0
0 135 388 406 41 0 0 0 0 4 1 16 0 32 111 298 278 531 135 261 507 431 1075 1235 1985 1693 1523 1348 1254 1083 954 748 304 9 8 7 6 3 3 104 277 240 76 12 127 62 14 1 0
0 241 341 255 46 64 0 0 0 24 13 32 33 4 83 164 278 245 216 428 763 1195 1135 1825 1913 1808 1387 1153 1290 1026 190 22 18 4 6 10 9 10 12 438 333 260 78 31 242 61 12 0 0
3 315 196 179 128 303 272 177 129 86 44 55 49 23 133 182 444 380 509 752 874 1130 1074 1178 1765 1519 1247 873 343 340 270 14 4 8 15 17 13 60 43 304 348 248 75 13 160 46 4 0 0
0 250 212 30 105 325 371 275 159 186 178 87 54 77 140 124 421 659 755 861 1102 1052 1046 956 1364 1014 854 531 204 104 21 7 10 59 200 142 283 269 204 206 74 36 14 5 9 27 0 0 0
0 297 147 188 225 381 454 491 340 177 186 177 92 77 53 305 501 803 795 896 1095 1054 736 509 271 339 608 303 93 23 14 13 197 393 351 236 98 66 22 13 14 8 3 0 5 7 0 0 0
0 35 40 96 123 226 402 422 604 494 286 252 193 82 89 336 529 750 747 868 933 880 621 266 147 38 6 14 397 131 186 597 634 715 410 144 19 15 10 3 0 0 0 0 0 0 0 0 0
12 1 0 30 152 275 252 366 275 225 181 182 242 160 209 374 714 643 600 733 793 787 701 377 46 1 0 0 116 528 737 514 703 605 315 14 1 0 0 0 0 0 0 0 0 0 0 0 0
0 3 0 32 51 40 50 134 121 49 110 80 207 206 290 500 752 354 419 592 633 667 550 225 0 11 16 198 385 438 493 261 40 1 1 0 0 0 0 0 0 0 0 0 0 0 0 0 0
0 0 0 1 9 0 0 0 0 0 0 1 86 260 429 504 726 479 295 352 266 291 396 117 7 50 105 511 563 567 363 200 27 0 0 0 0 0 0 0 0 0 0 0 0 0 0 0 0
0 0 0 0 0 0 0 0 0 0 0 0 6 163 471 521 682 648 409 300 189 221 326 55 50 88 354 612 679 617 650 114 7 0 0 0 0 0 0 0 0 0 0 0 0 0 0 0 0
0 0 0 0 0 0 0 0 0 0 0 0 60 207 397 597 632 633 558 442 241 262 222 142 79 135 490 755 710 617 347 32 0 0 0 0 0 0 0 0 0 0 0 0 0 0 0 0 0
0 0 0 0 0 0 0 0 0 0 0 0 38 433 359 664 710 709 651 589 393 369 294 132 68 147 506 706 706 452 115 0 0 0 0 0 0 0 0 0 0 0 0 0 0 0 0 0 0
0 0 0 0 0 0 0 0 0 0 0 0 0 361 532 459 686 749 744 709 490 528 336 185 98 168 522 1035 595 353 21 0 0 0 0 0 0 0 0 0 0 0 0 0 0 0 0 0 0
0 0 0 0 0 0 0 0 0 0 0 0 0 0 426 548 604 737 740 640 591 611 306 171 118 188 471 808 449 197 2 0 0 0 0 0 0 0 0 0 0 0 0 0 0 0 0 0 0
0 0 0 0 0 0 0 0 0 0 0 0 0 0 0 621 664 653 566 684 747 396 143 115 61 194 407 666 581 314 4 0 0 0 0 0 1 0 0 0 0 0 0 0 0 0 0 0 0
1 0 0 0 0 0 0 0 0 0 0 0 0 0 0 0 633 702 544 453 665 155 67 228 94 175 387 533 675 326 0 0 4 0 1 3 13 0 0 0 0 0 0 0 0 0 0 0 0
0 0 0 0 0 0 0 0 0 0 0 0 0 0 0 0 21 612 716 481 465 144 125 256 146 232 392 528 595 288 53 36 21 24 6 38 6 0 0 0 0 0 0 0 0 0 0 0 0
0 0 0 0 0 0 0 0 0 0 0 0 0 0 0 0 0 41 666 658 504 219 199 107 99 334 397 396 268 180 154 69 46 40 25 26 24 0 0 0 0 0 0 0 0 0 0 0 0
0 0 0 0 0 0 0 0 0 0 0 0 0 0 0 0 0 0 344 661 666 414 218 161 107 137 223 196 226 236 91 94 59 41 53 33 14 0 0 0 3 0 0 0 0 0 0 0 0
0 0 0 0 0 0 0 0 0 0 0 0 0 0 0 0 0 0 122 577 608 611 457 177 136 61 106 69 215 252 180 85 86 69 44 17 10 0 0 0 0 0 0 0 0 0 0 0 0
0 0 0 0 0 0 0 0 0 0 0 0 0 0 0 0 0 0 248 485 553 554 591 510 196 125 183 150 94 155 434 210 123 59 27 54 11 3 0 0 0 0 0 0 0 0 0 0 0
0 0 0 0 0 0 0 0 0 4 6 33 26 118 249 204 269 469 574 596 476 557 508 444 240 194 172 149 107 107 160 373 78 44 4 47 16 11 0 0 0 0 0 0 0 0 0 0 0
0 0 0 0 0 0 0 0 0 1 10 173 171 266 457 647 1054 1018 816 749 684 653 712 533 284 221 158 138 130 178 135 37 28 53 40 65 43 21 16 4 0 0 0 0 0 0 0 0 0
0 0 0 0 0 0 0 0 0 3 17 70 292 182 375 643 825 824 1128 784 661 864 612 417 236 335 231 164 213 182 24 42 0 0 8 2 26 70 20 0 0 0 0 0 0 0 0 0 0
0 0 0 0 0 0 0 0 0 0 12 100 186 203 296 435 621 403 706 891 777 746 762 631 298 280 135 123 25 2 36 88 17 42 63 80 33 41 87 19 0 0 0 0 0 0 0 0 0
0 0 0 0 0 0 0 0 0 5 15 27 166 158 246 247 312 368 536 485 885 758 697 524 234 168 74 21 12 2 2 22 82 113 107 49 60 81 32 4 0 0 0 0 0 0 0 0 0
0 0 0 0 0 0 0 0 0 0 0 18 28 133 225 288 330 487 365 601 403 508 492 190 78 60 77 58 74 81 103 112 127 76 42 26 13 9 0 0 1 0 0 0 0 0 0 0 0
0 0 0 0 0 0 0 0 0 0 0 0 15 32 58 111 132 118 270 475 77 29 93 91 40 19 24 15 7 5 10 10 12 4 0 0 13 4 0 0 0 0 0 0 0 0 0 0 0

GFSSGP_con_mucape_111.txt.gz
CAPE
226 31 1242 987 9 4 0 0 0 0 0 0 0 0 0 0 0 0 57 162 30 3 1621 1552 2358 2255 1664 1597 1463 1236 1127 1024 868 459 108 9 3 0 1 271 6 113 82 265 77 7 3 11 23
52 101 589 433 3 0 0 0 0 0 0 0 0 0 0 135 316 292 177 127 0 919 1531 1322 2517 2336 2086 1523 1352 1271 1221 976 794 412 55 6 2 0 0 377 81 231 92 285 25 2 1 1 9
0 305 787 724 36 0 0 0 0 0 0 8 2 27 166 429 230 368 127 196 3 1150 1180 1360 2374 2228 2050 1876 1447 1257 1064 855 287 24 7 3 1 0 1 371 260 186 6 273 38 4 1 1 0
95 360 342 444 69 76 0 0 0 55 24 30 36 13 109 155 414 327 453 262 105 888 1299 1917 1847 1880 1882 1522 1338 1118 937 568 53 8 5 2 2 2 428 372 211 3 99 239 29 2 0 0 0
56 329 351 170 117 261 250 254 227 202 92 125 67 57 240 195 469 501 751 492 142 895 1510 1377 1638 1703 1748 1405 1245 895 512 107 16 3 5 6 5 265 468 420 261 42 329 196 8 1 0 0 0
85 410 180 69 137 395 313 383 258 233 258 246 142 199 156 210 640 793 903 635 222 1216 1318 1098 1687 1687 1618 1412 893 778 131 31 4 46 12 82 114 156 407 272 126 23 58 182 7 0 0 0 0
26 357 65 136 246 380 490 593 464 354 194 433 267 133 130 340 758 1001 1006 544 1305 1293 1219 1059 1158 1304 1526 1170 802 422 37 4 17 408 306 333 282 193 84 13 22 13 3 45 0 0 0 0 0
0 225 92 203 82 246 290 413 704 230 284 398 345 290 360 345 1131 978 930 1088 1511 1234 966 741 517 575 455 211 661 269 81 162 610 686 592 274 100 35 13 13 14 2 1 28 0 0 0 0 0
26 33 11 56 164 68 92 170 128 312 43 88 415 242 222 350 960 1087 854 1062 1019 844 688 506 296 190 94 31 92 330 383 839 589 448 621 47 10 13 1 0 3 0 0 1 0 0 0 0 0
0 47 4 69 130 59 22 39 83 123 237 180 204 381 351 443 1105 1059 866 768 962 788 455 346 202 90 21 9 49 97 417 519 266 76 0 2 0 0 0 0 0 0 0 0 0 0 0 0 0
0 0 0 2 2 0 0 0 0 0 0 3 33 417 556 545 1022 996 850 685 662 578 596 469 231 72 36 56 349 594 259 108 20 0 0 0 0 0 0 0 0 0 0 0 0 0 0 0 0
0 0 0 0 0 0 0 0 0 0 0 0 0 179 708 651 869 880 787 613 612 748 681 550 216 123 147 572 628 303 319 119 50 0 0 0 0 0 0 0 0 0 0 0 0 0 0 0 0
0 0 0 0 0 0 0 0 0 0 0 0 0 116 742 842 820 988 797 665 590 588 642 476 156 180 348 628 479 522 249 268 92 0 0 0 0 0 0 0 0 0 0 0 0 0 0 0 0
0 0 0 0 0 0 0 0 0 0 0 0 0 0 119 848 996 907 810 830 702 519 514 382 177 196 425 442 476 433 514 261 56 0 0 0 0 0 0 0 0 0 0 0 0 0 0 0 0
0 0 0 0 0 0 0 0 0 0 0 0 0 0 494 524 942 1056 1059 866 614 536 497 332 176 215 474 580 599 349 489 237 0 0 0 0 0 0 0 0 0 0 0 0 0 0 0 0 0
0 0 0 0 0 0 0 0 0 0 0 0 0 0 0 668 818 1106 1169 984 739 592 509 312 202 285 641 686 559 611 509 44 0 0 0 0 0 0 0 0 0 0 0 0 0 0 0 0 0
0 0 0 0 0 0 0 0 0 0 0 0 0 0 0 0 678 887 1105 1055 800 622 515 486 268 348 725 611 503 588 363 5 0 0 0 0 0 0 0 0 0 0 0 0 0 0 0 0 0
0 0 0 0 0 0 0 0 0 0 0 0 0 0 0 0 2 818 956 1059 872 768 648 458 300 292 600 743 798 488 316 32 0 0 0 0 0 0 0 0 0 0 0 0 0 0 0 0 0
0 0 0 0 0 0 0 0 0 0 0 0 0 0 0 0 0 0 803 857 817 795 610 546 336 275 381 509 685 380 279 87 0 0 0 0 0 0 0 0 0 0 0 0 0 0 0 0 0
0 0 0 0 0 0 0 0 0 0 0 0 0 0 0 0 0 0 248 744 712 636 623 310 177 354 212 163 283 568 288 189 4 9 32 4 0 0 0 0 0 0 0 0 0 0 0 0 0
0 0 0 0 0 0 0 0 0 0 0 0 0 0 0 0 0 0 0 885 752 663 512 376 180 422 198 129 160 179 182 125 40 45 51 21 1 1 0 0 0 0 0 0 0 0 0 0 0
0 0 0 0 0 0 0 0 0 0 0 0 0 0 0 0 0 0 0 116 870 762 584 350 250 410 261 145 115 140 123 97 89 65 35 19 9 2 0 0 0 0 0 0 0 0 0 0 0
0 0 0 0 0 0 0 0 0 0 0 0 0 2 2 2 3 1 0 0 1034 728 705 594 282 233 171 136 60 20 130 146 140 107 69 13 68 3 2 0 1 0 0 0 0 0 0 0 0
0 0 0 0 0 0 0 0 0 0 0 0 55 155 142 239 420 679 311 446 757 634 613 566 297 154 135 86 64 18 45 64 58 108 62 19 4 21 11 0 1 0 0 0 0 0 0 0 0
0 0 0 0 0 0 0 0 0 0 15 62 196 148 207 469 826 945 959 893 758 662 518 420 320 205 167 128 92 155 48 53 62 1 10 1 33 15 7 0 0 0 0 0 0 0 0 0 0
0 0 0 0 0 0 0 0 0 2 37 87 72 47 124 292 702 738 911 994 932 776 572 415 295 285 220 167 140 138 43 2 0 2 0 19 45 11 13 3 3 0 0 0 0 0 0 0 0
0 0 0 0 0 0 0 0 0 2 52 69 155 170 294 314 527 832 1006 873 831 891 535 520 398 360 334 84 38 18 5 0 0 1 0 3 6 29 43 45 30 14 1 0 0 0 0 0 0
0 0 0 0 0 0 0 0 0 0 5 23 183 311 283 342 434 573 726 884 682 763 512 248 297 356 72 50 0 0 14 16 33 35 14 50 33 21 12 36 16 5 0 0 0 0 0 0 0
0 0 0 0 0 0 0 0 0 0 0 5 9 70 250 196 295 547 711 487 441 437 268 115 69 34 17 23 6 24 40 48 50 69 64 6 25 29 39 29 9 0 0 0 0 0 0 0 1
0 0 0 0 0 0 0 0 0 0 1 11 4 19 87 239 394 460 123 90 117 103 29 43 26 49 49 21 41 50 61 49 47 48 19 14 19 1 0 0 0 0 0 0 0 0 0 0 0

GFSSGP_con_mucape_114.txt.gz
CAPE
297 189 1908 2026 376 0 0 0 0 0 0 0 0 0 0 0 0 70 519 347 90 0 1336 1929 2403 2305 1765 1816 1595 1420 1250 1089 975 538 209 69 0 378 84 3 165 289 223 51 3 4 17 16 15
238 384 1443 886 31 0 0 0 0 0 0 3 0 1 2 0 455 716 584 469 218 0 1051 1623 2362 2191 2129 1832 1498 1429 1227 1002 768 253 90 14 1 15 408 94 238 142 226 10 2 1 2 12 16
36 688 870 292 87 5 0 0 0 0 0 15 16 109 292 596 882 832 769 422 0 244 906 1051 2400 2185 2175 1734 1615 1295 1182 1089 606 125 11 1 0 0 531 308 225 238 208 18 6 2 1 1 3
247 692 656 499 97 163 33 10 2 23 4 41 103 109 543 609 971 914 762 151 164 1252 1246 1992 2260 2102 1780 1723 1542 1404 1098 650 196 32 1 0 0 21 461 301 31 353 199 16 2 1 0 0 0
411 352 21 195 59 136 380 337 317 242 126 140 228 153 506 801 1062 998 698 33 569 697 618 1603 2186 1784 1741 1489 1476 1250 889 588 86 2 1 0 12 591 489 199 41 256 145 16 4 0 0 0 0
0 129 0 0 0 90 443 555 563 476 361 332 386 407 705 973 1224 1086 744 281 395 353 355 1086 1777 1787 1718 1744 1413 1037 523 181 26 2 1 5 517 540 405 170 205 225 113 6 0 0 0 0 0
0 0 0 0 0 2 181 565 593 533 407 562 659 469 791 1099 1186 994 896 489 264 493 1133 1193 1381 1445 1708 1607 1601 1045 268 62 35 5 136 675 536 417 283 108 5 192 27 2 0 0 0 0 0
6 77 0 0 0 0 10 262 869 511 352 168 662 678 827 1121 1221 1216 992 575 203 700 1038 1117 1280 1148 1176 923 1421 894 396 189 448 575 837 705 587 168 105 55 11 18 15 0 0 0 0 0 0
262 0 0 0 0 0 91 206 202 56 140 121 111 405 600 1274 1387 1264 1113 858 787 1138 1202 1206 1174 1053 768 492 530 401 377 578 639 575 666 281 142 14 22 62 23 19 3 0 0 0 0 0 0
1 0 0 0 0 0 0 25 14 2 63 36 110 286 686 1467 1671 1628 1193 964 1270 1196 1137 1004 892 573 405 22 22 0 4 270 450 154 60 32 18 35 6 12 11 19 0 0 0 0 0 0 0
0 0 0 0 0 0 0 0 0 0 0 2 109 128 782 1349 1519 1522 1255 968 1163 1135 1160 911 766 461 33 0 0 4 11 949 387 184 36 8 10 0 0 0 0 15 0 0 0 0 0 0 0
0 0 0 0 0 0 0 0 0 0 0 0 0 194 102 874 1532 1577 1454 1178 982 1103 1058 848 700 401 0 0 0 103 833 792 276 91 11 2 1 0 0 0 0 0 0 0 0 0 0 0 0
0 0 0 0 0 0 0 0 0 0 0 0 0 0 0 219 737 1830 1743 1304 977 889 983 925 815 395 0 0 52 845 233 242 164 148 0 0 0 0 0 0 0 0 0 0 0 0 0 0 0
0 0 0 0 0 0 0 0 0 0 0 0 0 0 0 0 245 1093 1534 1297 941 1050 861 1133 760 373 0 8 542 611 576 654 253 43 0 0 0 0 0 0 0 0 0 0 0 0 0 0 0
0 0 0 0 0 0 0 0 0 0 0 0 0 0 0 0 0 236 1256 1517 1117 995 1014 1080 680 344 5 30 673 633 904 225 181 49 0 0 0 0 0 0 0 0 0 0 0 0 0 0 0
0 0 0 0 0 0 0 0 0 0 0 0 0 0 0 0 233 739 1135 1315 1360 1150 1025 776 558 275 17 137 678 585 478 338 112 0 0 0 0 0 0 0 0 0 0 0 0 0 0 0 0
0 0 0 0 0 0 0 0 0 0 0 0 0 0 0 0 0 845 1435 1568 1469 1297 741 646 780 367 72 456 901 800 409 339 60 0 0 0 0 0 0 0 0 0 0 0 0 0 0 0 0
0 0 0 0 0 0 0 0 1 5 0 0 0 0 0 0 0 12 1282 1621 1566 1532 1226 1245 1040 490 193 966 722 450 508 232 3 0 0 0 0 0 0 0 0 0 0 0 0 0 0 0 0
0 0 0 0 0 0 0 0 0 0 0 0 0 0 0 0 0 0 12 1283 1551 1501 1363 1124 980 616 410 401 665 448 304 111 19 0 0 0 0 0 0 0 0 0 0 0 0 0 0 0 0
0 0 0 0 0 0 0 0 0 0 0 0 2 0 0 0 0 0 0 655 1424 1468 1447 1260 1084 781 562 479 327 573 513 235 26 2 0 0 0 0 0 0 0 0 0 0 0 0 0 0 0
0 0 0 0 0 0 0 0 0 0 5 3 0 3 0 0 0 0 0 113 1014 1314 1306 1277 1192 924 807 390 244 536 408 146 97 13 0 0 0 0 0 0 0 0 0 0 0 0 0 0 0
0 0 0 0 0 0 0 0 0 0 0 7 10 2 1 22 47 13 46 2 761 1197 1313 1285 1100 947 859 330 116 191 147 79 75 59 2 4 7 0 0 0 0 0 0 0 0 0 0 0 0
0 0 0 0 0 0 0 0 0 0 0 0 1 3 6 88 288 191 133 72 125 1107 1145 1036 506 466 276 80 23 41 88 59 76 74 58 29 32 6 4 1 0 0 0 0 0 0 0 0 0
0 0 0 0 0 7 0 0 0 0 5 3 16 56 44 479 676 852 835 411 194 1109 1216 969 713 567 174 100 95 50 40 31 20 39 59 74 60 20 4 7 7 9 1 0 0 0 0 0 0
0 0 0 0 5 0 0 0 0 1 21 8 101 157 95 413 843 1102 1272 1140 1086 955 1236 1054 911 371 221 119 101 98 69 11 2 17 20 24 9 20 1 0 0 3 2 0 0 0 0 0 0
0 0 0 0 0 0 0 0 0 5 21 63 104 69 82 199 394 622 1313 1291 1509 1220 1140 1095 677 488 190 187 177 66 15 4 0 0 0 4 4 0 0 0 1 3 5 0 0 0 0 0 0
0 0 0 0 0 2 0 0 0 2 16 24 50 119 52 138 228 629 901 1212 974 734 960 1026 714 427 163 122 97 16 0 0 0 0 0 0 1 28 4 2 3 1 0 0 0 0 0 0 0
0 0 0 0 0 0 0 0 0 0 0 2 22 115 103 83 184 509 795 978 946 552 496 415 350 71 57 37 2 45 0 0 3 0 1 3 13 3 10 1 3 13 11 5 3 1 0 0 0
0 0 0 0 0 0 0 0 0 0 1 0 5 118 370 171 410 721 834 804 350 527 489 399 112 93 34 46 0 6 0 7 12 4 8 8 8 16 9 12 4 6 2 8 10 3 0 0 0
0 0 0 0 0 0 0 0 0 0 0 0 0 27 227 346 67 350 590 560 296 257 118 59 133 22 60 13 3 39 68 56 52 34 32 28 14 37 21 25 10 3 0 0 0 0 0 0 0

GFSSGP_con_mucape_117.txt.gz
CAPE
544 311 1242 2072 732 33 0 0 0 0 0 5 13 0 3 6 87 753 741 354 0 0 1022 1900 2592 2320 2063 1951 1930 1596 1397 1225 931 425 183 73 565 101 29 239 459 279 35 6 9 11 14 10 10
352 287 1357 1124 337 4 54 2 0 0 0 0 6 34 59 16 480 997 738 492 0 124 1064 1524 2652 2556 2233 1826 1707 1448 1297 1139 826 398 125 0 279 256 123 292 415 208 47 8 4 6 12 17 26
162 395 987 581 279 55 2 93 26 4 0 1 76 152 305 819 1094 1084 1051 580 0 586 1127 1759 2618 2520 2148 1948 1729 1460 1229 1089 602 257 62 1 0 529 289 275 430 240 23 7 3 1 3 5 11
2 239 537 306 208 142 157 220 17 3 4 9 91 170 557 888 1155 1318 1074 586 0 687 818 2196 2603 2321 2224 1988 1547 1506 1207 1013 414 117 3 0 0 467 347 255 357 190 10 3 1 0 0 0 0
0 0 0 0 57 46 120 266 237 238 108 114 176 230 551 1345 1415 1326 918 142 294 1082 1184 1804 2275 1961 2090 1488 1511 1368 1127 614 250 35 0 0 14 542 334 114 453 195 10 6 1 0 0 0 0
0 0 0 0 0 3 54 341 254 342 336 288 330 376 951 1509 1484 1250 599 339 1061 1038 1399 1553 2094 2181 1942 1763 1536 1363 856 446 88 17 0 29 646 465 289 324 274 151 7 2 0 0 0 0 0
0 0 0 0 0 0 8 226 151 274 275 432 634 570 1164 1465 1463 1237 576 553 796 590 524 1110 1250 1394 2001 1790 1585 1524 697 289 63 6 58 550 609 453 332 323 251 108 1 0 0 0 0 0 0
3 0 18 49 0 1 11 21 379 557 538 365 598 663 698 1611 1369 1251 967 610 590 484 479 804 1080 1162 1113 1114 1287 1218 897 202 381 368 600 842 523 444 318 294 194 31 1 0 0 0 0 0 0
0 5 0 0 11 36 23 122 191 198 311 246 225 617 467 738 1572 1217 1105 700 476 536 949 1140 1004 856 751 734 895 891 830 594 686 674 661 373 190 75 68 110 163 12 0 0 0 0 0 0 0
0 2 1 0 2 0 0 12 100 166 72 57 51 253 522 1521 1846 1390 1126 839 400 583 696 1155 1091 814 551 503 659 155 33 3 88 165 73 176 18 26 34 14 133 0 0 0 0 0 0 0 0
0 0 0 0 0 0 0 0 0 0 0 0 26 187 552 851 1532 1658 1359 1107 687 1018 1013 1153 1338 1076 618 221 151 1 0 17 689 174 34 17 20 1 2 0 25 1 0 0 0 0 0 0 0
0 0 0 0 0 0 0 0 0 0 0 0 0 0 0 215 1067 1463 1618 1339 826 989 971 1331 976 1083 291 63 4 0 1 541 1118 226 20 7 8 0 4 0 12 1 0 0 0 0 0 0 0
0 0 0 0 0 0 0 0 0 0 0 0 0 0 0 0 535 936 1377 1439 1098 982 1222 1285 927 457 150 9 1 5 714 1081 465 156 12 7 0 0 0 0 1 0 0 0 0 0 0 0 0
0 0 0 0 0 0 0 0 0 0 0 0 0 0 0 0 6 259 974 1524 1253 975 976 1062 716 697 101 2 0 314 759 788 385 219 33 0 0 0 0 0 0 0 0 0 0 0 0 0 0
0 0 0 0 0 0 0 0 0 0 0 0 0 0 0 0 0 0 278 1122 1421 1272 1052 965 878 454 142 2 38 932 715 466 608 216 3 0 0 0 0 0 0 0 0 0 0 0 0 0 0
0 0 5 1 0 0 0 0 0 1 0 0 0 0 0 0 0 0 0 454 995 1294 1106 889 1050 376 213 8 762 839 641 430 373 88 0 0 0 0 0 0 0 0 0 0 0 0 0 0 0
10 1 0 1 0 0 0 1 5 11 13 8 7 1 0 0 0 0 69 241 816 1510 1095 832 959 467 284 24 799 897 534 552 344 66 0 0 0 0 0 0 0 0 0 0 0 0 0 0 0
0 0 0 1 0 0 0 4 6 3 0 1 2 3 0 0 0 0 43 692 1012 1616 711 665 728 584 462 210 678 544 784 457 292 0 0 0 0 0 0 0 0 0 0 0 0 0 0 0 0
0 0 0 0 0 0 1 0 0 11 13 15 4 22 1 3 0 0 0 705 1389 1273 582 79 439 729 413 553 1136 737 470 457 159 0 0 0 0 0 0 0 0 0 0 0 0 0 0 0 0
0 0 0 0 0 0 0 0 0 5 23 27 22 17 33 2 0 0 0 1 626 1303 731 687 801 869 575 964 625 296 337 266 75 9 0 0 0 0 0 0 0 0 0 0 0 0 0 0 0
0 0 0 0 0 0 0 0 0 2 14 15 10 17 12 31 4 0 0 1 268 1174 1139 839 374 1099 722 830 270 165 422 300 54 0 1 0 0 0 0 0 0 0 0 0 0 0 0 0 0
0 0 0 0 0 4 1 13 0 0 3 0 10 23 33 32 55 36 2 36 117 651 1287 1221 878 879 800 458 85 130 175 251 220 63 22 7 0 0 6 0 0 0 0 0 0 0 0 0 0
0 0 0 0 0 2 3 0 0 0 0 0 4 4 2 28 149 464 64 37 14 349 707 1296 667 166 477 400 149 107 262 148 115 62 51 26 22 4 19 7 1 1 0 0 0 0 0 0 0
0 0 0 0 0 11 0 0 0 0 4 26 48 13 4 2 367 625 440 143 99 524 1053 895 346 178 333 332 149 48 50 2 53 65 52 60 26 9 31 15 7 9 12 7 3 1 0 0 0
0 0 19 16 17 9 0 0 21 7 4 40 2 15 29 127 537 578 733 523 433 1288 1284 757 477 357 369 51 45 54 47 6 19 41 43 20 26 32 30 14 26 16 9 4 8 0 0 0 0
0 0 0 0 0 0 6 0 13 3 10 14 80 43 42 179 710 754 1276 1361 1156 1212 1015 714 617 505 385 209 198 48 16 11 9 7 0 3 13 16 14 0 18 10 4 12 1 0 0 0 0
0 0 0 1 1 22 24 0 31 37 13 0 87 62 42 171 308 1147 765 1042 1273 905 921 898 533 693 277 247 119 72 3 1 0 0 0 0 0 0 12 10 0 2 7 0 1 0 0 0 0
0 0 0 9 0 0 0 0 0 0 0 0 45 93 150 48 199 578 886 853 917 920 809 708 452 341 232 176 31 9 0 0 0 0 0 0 8 2 0 3 2 2 0 1 1 0 0 0 0
0 0 0 0 0 0 0 0 0 0 0 0 2 40 54 245 323 674 598 979 716 664 424 122 42 50 15 9 0 0 0 0 5 16 9 7 1 2 4 1 0 1 2 3 1 4 2 0 1
0 0 0 0 0 0 0 0 0 0 0 0 8 4 34 151 198 308 463 473 519 248 153 115 23 6 0 8 10 0 0 16 19 23 14 22 11 3 18 3 6 4 3 8 3 0 0 0 0

GFSSGP_con_mucape_120.txt.gz
CAPE
185 397 459 1636 747 591 27 23 19 0 0 0 0 12 0 20 775 1037 769 240 14 136 1478 2303 2926 2655 2282 2072 2004 1537 1453 1128 697 378 394 262 62 78 382 361 109 13 7 8 10 18 19 13 73
232 311 1285 1393 806 87 38 69 18 0 0 6 16 34 51 622 1062 726 589 102 0 712 1719 1821 2929 2648 2553 2302 2137 1578 1400 1075 605 217 57 622 169 131 347 409 133 28 7 8 9 13 15 9 0
17 220 962 938 274 142 52 16 39 4 2 0 6 103 270 1025 1007 831 860 92 16 795 1422 1935 2821 2482 2296 2120 1912 1376 1323 1087 614 213 0 91 420 281 344 472 151 10 8 4 3 5 8 9 62
0 113 339 84 156 171 183 139 172 61 3 0 0 87 869 951 1120 1255 587 180 250 903 1439 2595 2737 2578 2229 1844 1638 1563 1312 890 520 125 1 0 348 477 360 331 185 11 5 2 0 0 0 0 1
0 0 0 0 0 0 2 100 100 154 70 37 108 115 1204 1201 1364 1301 615 125 637 1203 1893 2223 2687 2269 2041 1731 1470 1516 1296 785 330 52 0 0 125 467 344 322 142 13 8 3 0 0 0 0 0
0 0 0 0 0 0 0 33 246 214 80 159 285 280 1173 1413 1363 1132 613 55 763 1715 1779 1777 2643 2461 2060 1795 1645 1454 1123 630 191 13 0 1 587 362 291 284 200 13 4 2 0 0 0 0 0
0 0 0 0 0 0 0 0 105 190 26 172 568 586 1300 1244 1257 955 322 323 1091 1280 1627 1432 1705 1846 2161 1953 1778 1517 940 389 83 0 24 745 666 395 441 289 98 4 1 1 0 0 0 0 0
0 0 0 0 1 21 9 15 59 279 354 337 547 692 306 582 1060 779 373 909 853 1290 1283 1099 1322 1261 1319 1251 1459 1369 1228 436 51 347 1079 1035 542 430 369 221 24 1 0 0 0 0 0 0 0
0 0 0 0 0 27 20 40 51 162 207 208 247 225 880 326 452 1165 740 657 563 406 788 684 870 1034 1067 870 898 1010 1254 724 570 623 1062 600 90 46 37 238 16 0 0 0 0 0 0 0 0
0 0 0 0 0 0 0 2 44 150 186 155 3 199 996 660 565 813 1074 539 527 474 648 1137 967 920 882 810 522 302 117 55 3 216 148 47 16 0 9 31 0 0 0 0 0 0 0 0 0
0 0 0 0 0 0 0 0 0 8 83 104 0 85 1222 1507 1514 1385 1114 752 555 893 990 1178 998 796 642 694 425 226 1 0 4 78 30 30 3 6 9 0 0 0 0 0 0 0 0 0 0
0 0 0 0 0 0 0 0 0 0 0 0 0 89 85 144 1421 1453 1533 1218 777 1186 1047 1142 989 734 607 748 181 0 0 1 84 65 43 7 6 0 0 0 0 0 0 0 0 0 0 0 0
0 0 0 0 0 0 0 0 0 0 0 0 0 0 101 54 0 952 1352 1321 838 630 717 1260 1127 1072 840 190 27 0 4 174 86 104 16 7 1 0 0 0 0 0 0 0 0 0 0 0 0
0 0 0 0 0 0 0 0 0 0 0 0 0 0 0 0 0 0 1133 871 1137 755 729 1061 1019 838 480 307 12 291 674 641 183 54 8 3 0 0 0 0 0 0 0 0 0 0 0 0 0
0 0 0 0 0 0 0 0 0 0 0 0 0 0 0 0 0 0 65 932 1158 1106 1169 974 721 662 237 122 0 662 553 286 158 81 22 2 0 0 0 0 0 0 0 0 0 0 0 0 0
0 0 12 5 0 0 0 0 0 0 0 0 1 0 0 0 0 0 0 0 958 1255 930 549 815 514 359 61 553 637 415 312 202 204 22 1 0 0 0 0 0 0 0 0 0 0 0 0 0
1 0 0 0 3 0 0 0 4 0 0 0 0 0 0 0 0 0 0 0 500 1119 1166 886 501 440 345 63 667 664 519 431 336 237 51 0 0 0 0 0 0 0 0 0 0 0 0 0 0
0 0 0 0 0 0 0 0 0 0 0 0 0 0 0 0 0 0 0 0 289 1218 1330 1095 871 884 465 666 850 665 485 463 244 289 27 0 0 0 0 0 0 0 0 0 0 0 0 0 0
0 0 0 0 0 0 0 0 0 0 0 0 0 0 2 0 3 5 0 0 582 2074 1522 1044 683 429 252 528 601 572 459 352 275 228 27 0 0 0 0 0 0 0 0 0 0 0 0 0 0
0 0 0 0 0 0 0 5 0 0 0 0 0 0 0 2 0 3 0 0 1 1477 1249 848 581 233 38 297 445 402 431 283 153 144 1 0 0 0 0 0 0 0 0 0 0 0 0 0 0
0 0 0 0 0 0 0 0 1 0 1 0 0 1 0 1 0 0 0 1 0 993 1313 809 594 90 0 143 426 392 351 174 64 58 0 0 0 0 0 0 0 7 6 0 0 0 0 0 0
0 0 0 0 0 1 1 0 10 7 0 0 0 16 2 0 0 0 25 57 0 575 1045 825 266 1 6 292 312 327 238 188 80 57 0 0 0 0 0 0 0 0 6 1 0 0 0 0 0
0 0 0 0 0 1 0 0 9 7 0 0 0 1 4 4 3 0 143 403 0 72 1059 702 532 91 84 11 253 229 179 158 266 240 97 5 0 1 0 0 0 0 5 0 0 0 0 0 6
0 0 0 0 0 3 0 0 0 0 0 0 26 60 6 16 65 4 273 597 35 1092 1112 699 349 218 6 90 16 108 158 165 138 81 64 56 24 4 5 3 6 6 15 4 5 15 7 4 0
0 0 0 0 2 0 0 0 7 0 0 19 41 41 23 210 177 338 437 603 996 1021 1150 896 358 97 21 0 3 50 148 31 12 8 3 18 28 31 13 11 18 9 6 6 22 32 5 3 0
0 0 0 0 0 0 0 0 0 6 14 14 25 33 132 242 405 612 359 784 868 785 738 772 469 383 87 68 77 76 71 39 0 0 0 0 0 0 16 4 3 4 5 4 4 4 0 0 0
0 0 0 0 0 0 34 0 0 0 0 0 8 18 1 190 338 352 630 627 731 608 633 648 474 445 372 364 259 58 55 11 0 0 0 0 0 0 2 5 8 0 0 1 0 0 3 0 0
0 0 0 0 0 0 0 0 0 0 0 0 10 0 83 180 193 465 724 570 481 522 486 459 441 436 367 280 124 95 24 1 0 0 0 0 0 0 0 0 1 3 0 0 1 0 0 0 3
0 0 0 0 0 0 0 0 0 0 0 0 1 6 33 170 214 384 481 480 508 531 498 372 397 300 376 98 16 5 0 0 0 0 4 1 0 4 7 8 4 0 3 0 0 0 1 1 2
0 0 0 0 0 0 0 0 0 0 0 0 1 125 35 37 221 458 317 332 323 303 70 83 34 6 1 0 0 0 0 1 0 2 0 0 2 6 14 4 15 11 13 10 8 2 2 1 1

GFSSGP_con_mucape_123.txt.gz
CAPE
7 177 471 587 286 423 159 3 121 0 0 0 0 7 56 531 697 189 574 441 726 1337 1821 1946 2958 2759 2577 1927 1852 1683 1426 1248 1039 440 121 20 174 531 320 72 6 8 9 16 21 15 64 146 321
14 172 388 796 363 124 108 80 9 0 1 12 8 2 8 877 652 604 671 341 630 1394 1988 1765 3018 2773 2605 2354 2230 1640 1249 840 634 492 294 71 145 622 287 94 7 6 9 11 16 15 30 216 291
0 152 266 479 343 124 54 23 3 0 4 0 2 39 620 932 790 327 484 161 777 1565 1789 2298 2921 2644 2551 2437 2137 1665 1301 771 290 179 580 160 323 543 274 42 7 5 5 5 8 13 115 187 451
0 0 92 246 192 82 50 126 40 12 18 22 3 244 917 1044 1019 913 560 520 1549 1609 1699 2761 2876 2644 2487 2218 1845 1519 1281 835 368 10 140 409 487 437 372 39 9 4 2 0 0 7 11 23 66
0 0 0 0 0 0 0 0 58 54 51 46 34 96 1107 1318 1305 1196 352 809 1627 1627 1893 2404 2899 2651 2278 2061 1727 1445 1402 773 319 16 0 255 610 462 357 25 9 5 0 0 0 0 1 35 9
0 0 0 0 0 0 0 0 2 44 98 117 116 192 1146 1227 1059 643 369 806 1138 1893 2003 2104 2730 2661 2379 2057 1769 1618 1194 630 213 6 0 126 610 400 306 57 10 5 0 0 0 0 0 9 205
0 0 0 0 0 0 0 0 0 109 129 78 194 62 537 1030 1033 840 277 1643 1868 1958 1929 1971 1953 2034 2177 2127 1891 1694 1184 523 117 0 47 885 817 412 324 23 5 3 0 0 0 0 0 7 89
0 0 0 0 0 0 0 0 0 33 332 469 486 726 574 727 814 582 234 839 1826 1728 1770 1887 1849 1678 1519 1367 1792 1601 1293 580 69 329 1062 1176 828 419 266 13 4 0 0 0 0 0 0 0 11
0 0 0 0 0 0 0 0 0 0 166 150 126 230 565 274 71 199 146 274 1297 1467 1571 1586 1451 1471 1396 1207 1096 1266 1288 752 594 1103 1144 593 16 35 0 8 1 0 0 0 0 0 0 0 6
0 0 0 0 0 0 0 0 0 0 73 214 160 1222 707 371 74 0 0 146 361 1060 1241 1306 1234 1303 1130 881 773 601 363 74 162 402 33 18 0 0 0 0 0 0 0 0 0 0 0 0 0
0 0 0 0 0 0 0 0 0 0 13 110 174 282 786 479 259 70 30 1 36 377 940 1036 1036 1093 875 693 475 294 85 17 146 117 21 15 0 0 0 0 0 0 0 0 0 0 0 0 0
0 0 0 0 0 0 0 0 0 0 0 0 61 65 176 1123 1082 891 700 332 179 755 908 807 962 940 767 527 297 127 0 0 119 37 14 0 0 0 0 0 0 0 0 0 0 0 0 0 0
0 0 0 0 0 0 0 0 0 0 0 0 0 0 0 13 2 360 1087 767 421 512 736 761 697 665 720 530 378 178 0 0 53 16 3 5 0 0 0 0 0 0 0 0 0 0 0 0 0
0 0 0 0 0 0 0 0 0 0 0 0 0 0 0 0 26 0 362 1054 807 827 547 349 806 224 548 548 314 137 15 0 55 46 24 0 0 0 0 0 0 0 0 0 0 0 0 0 0
0 0 0 0 0 0 0 0 0 0 0 0 0 0 0 0 0 1 0 1103 1104 781 496 256 501 647 686 230 95 165 100 51 90 130 10 6 0 0 0 0 0 0 0 0 0 0 0 0 0
0 0 0 0 0 0 0 0 0 0 0 0 0 0 0 0 0 0 0 0 966 1030 785 717 900 656 314 155 594 491 304 103 145 92 58 16 0 0 0 0 0 0 0 0 0 0 0 0 0
0 0 0 0 0 0 0 0 0 0 0 0 0 0 0 0 0 0 0 0 409 1247 1139 828 956 609 485 194 607 576 424 285 233 124 75 57 8 0 0 0 0 0 0 0 0 0 0 0 0
0 0 0 0 0 0 0 0 0 0 0 0 0 0 0 0 0 0 0 0 364 1140 1259 1054 844 391 285 548 519 390 330 328 291 252 196 149 49 0 0 0 0 0 0 0 0 0 0 0 0
0 0 0 0 0 0 0 0 0 0 0 0 0 0 0 0 0 0 0 0 1689 1202 1248 1104 723 420 243 330 439 391 412 363 299 253 205 221 17 0 0 0 0 0 0 0 0 0 0 0 0
0 0 0 0 0 0 0 0 0 0 1 0 0 0 0 0 0 0 0 1 3 1453 1157 1023 947 604 262 134 148 265 295 355 297 242 152 170 18 0 0 0 0 0 0 0 0 0 0 0 0
0 0 0 0 0 0 0 0 0 0 0 2 0 0 0 0 0 0 4 7 36 1084 1185 913 668 352 273 82 66 62 143 246 193 240 189 175 2 0 0 0 0 0 0 0 2 0 0 0 0
0 0 0 0 0 0 0 0 0 0 0 0 0 0 1 0 0 0 5 49 114 136 1268 947 695 442 252 86 59 84 101 65 158 206 72 134 0 0 0 0 0 0 0 0 0 0 0 0 0
0 0 0 0 0 0 0 0 0 0 0 0 0 7 3 0 0 0 10 71 221 186 976 779 473 219 46 29 0 45 147 49 151 193 76 67 2 0 3 0 0 0 0 0 0 1 1 0 0
0 0 0 0 0 0 0 0 0 0 0 0 1 29 72 80 179 57 2 81 401 1106 963 730 517 341 26 4 54 47 64 89 65 97 101 93 55 10 2 2 0 0 0 0 0 3 4 2 0
0 0 0 0 0 0 0 0 0 0 0 0 13 4 74 182 231 38 232 564 734 689 854 575 532 382 61 0 9 2 0 47 66 59 66 111 76 67 10 50 44 12 8 9 2 3 7 4 4
0 0 0 0 0 0 0 0 0 0 0 0 6 77 65 199 117 28 196 424 942 703 602 519 335 97 4 0 0 1 3 0 1 23 25 27 40 27 33 7 3 11 3 22 10 4 8 1 0
0 0 0 0 0 0 0 0 0 0 0 0 0 32 67 117 282 382 492 584 670 470 663 500 177 241 69 158 65 41 25 13 22 14 11 3 0 0 3 1 0 0 1 2 5 0 1 0 2
0 0 0 0 0 0 0 0 0 0 0 0 1 4 59 67 169 295 418 465 755 599 576 492 307 270 189 297 197 66 56 40 29 5 0 0 0 2 5 8 0 7 2 4 3 2 5 1 0
0 0 0 0 0 0 0 0 0 0 0 0 0 16 19 80 116 160 325 365 386 545 399 315 289 357 228 173 159 102 95 24 13 0 12 3 2 12 5 4 7 4 3 3 8 4 4 0 6
0 0 0 0 0 0 0 0 0 0 0 0 0 0 1 43 79 156 163 183 161 290 347 223 224 96 52 17 6 0 0 2 4 4 2 0 0 6 3 9 2 12 7 1 16 1 10 11 17

GFSSGP_con_mucape_126.txt.gz
CAPE
0 26 538 595 26 252 88 0 0 0 0 0 0 1 95 355 565 79 595 531 551 1275 1359 2294 2828 2814 2654 2289 1872 1719 1468 938 212 45 80 267 547 143 68 9 10 14 20 23 80 307 362 454 496
0 108 312 703 18 0 0 26 0 0 0 0 0 39 62 866 683 441 679 716 755 1733 1456 2211 3068 2964 2673 2355 2151 2182 1583 1151 439 106 84 662 512 236 77 10 11 11 15 18 47 207 243 443 431
0 122 340 334 181 0 0 0 0 0 0 0 0 161 921 973 744 611 573 979 1398 1682 1392 2225 3036 3023 2708 2472 2507 2144 1555 1212 899 251 104 605 641 196 79 10 6 9 11 17 25 191 118 369 346
0 1 21 146 150 64 0 0 0 0 0 0 0 81 1002 1150 712 576 684 1024 1741 1750 1459 2774 3099 2948 2795 2500 2341 2040 1309 948 1069 722 150 389 618 253 59 6 3 2 5 15 19 13 42 120 173
0 0 0 0 0 0 0 0 0 1 0 0 13 75 1164 1022 1023 933 701 1014 1736 1876 1706 2603 2986 2748 2802 2588 2323 1873 1605 794 663 985 633 680 499 329 46 8 2 0 0 7 15 22 7 63 35
0 0 0 0 0 0 0 0 0 0 1 11 23 45 957 1098 933 596 823 1666 1656 1808 2173 2278 2436 2545 2490 2251 1957 1717 1323 715 333 369 564 787 560 344 15 9 1 0 0 0 14 2 36 130 18
0 0 0 0 0 0 0 0 0 0 32 97 92 58 98 688 890 524 333 1393 1657 1887 2195 2082 1880 1966 2266 2104 1998 1646 1366 807 248 25 272 953 572 391 59 6 1 0 0 0 6 33 22 37 4
0 0 0 0 0 0 0 0 0 0 84 262 445 560 375 928 768 528 145 950 1375 1296 1623 1931 1823 1643 1306 1400 1855 1566 1487 947 372 270 961 990 761 535 121 8 1 0 0 0 0 29 2 6 0
0 0 0 0 0 0 0 0 0 0 16 85 615 526 530 731 553 610 189 327 766 770 602 1233 1436 1525 1343 1144 1192 1468 1545 966 531 681 1094 590 151 8 1 1 2 0 0 0 0 15 1 0 0
0 0 0 0 0 0 0 0 0 0 0 101 135 774 810 552 231 151 240 125 455 501 239 4 1087 1283 1227 1145 763 585 425 57 251 631 204 68 23 0 0 0 0 0 0 0 0 7 0 0 0
0 0 0 0 0 0 0 0 0 0 0 0 3 56 874 698 375 213 232 128 48 18 0 0 165 1147 998 902 726 468 158 140 580 249 5 30 0 0 0 0 0 0 0 0 0 0 0 0 0
0 0 0 0 0 0 0 0 0 0 0 0 0 0 756 734 508 220 188 40 163 151 39 0 315 971 858 774 696 407 56 268 340 20 0 0 0 0 0 0 0 0 0 0 0 0 0 0 0
0 0 0 0 0 0 0 0 0 0 0 0 0 0 0 2 0 360 463 152 275 188 105 67 165 276 633 658 543 346 58 110 127 38 8 0 0 0 0 0 0 0 0 0 0 0 0 0 0
0 0 0 0 0 0 0 0 0 0 0 0 0 0 0 0 0 0 0 573 472 256 244 208 11 1 427 488 460 361 135 33 217 181 114 0 0 0 0 0 0 0 0 0 0 0 0 0 0
0 0 0 0 0 0 0 0 0 0 0 0 0 0 0 0 0 0 0 14 668 410 567 458 330 322 365 109 358 288 67 49 309 184 150 29 0 0 0 0 0 0 0 0 0 0 0 0 0
0 0 0 0 0 0 0 0 0 0 0 0 0 0 0 1 0 0 0 0 28 714 650 530 224 468 256 214 306 222 115 148 344 192 156 24 13 0 0 0 0 0 0 0 0 0 0 0 0
0 0 0 0 0 0 0 0 0 0 0 0 0 0 0 0 0 0 0 0 0 694 793 597 452 573 335 229 207 227 173 157 311 305 80 58 40 12 0 0 0 0 0 0 0 0 0 0 0
0 0 0 0 0 0 0 0 0 0 0 0 0 0 0 0 0 0 0 0 0 378 755 546 467 570 395 332 215 313 164 138 200 238 89 90 91 77 0 0 0 0 0 0 0 0 0 0 0
0 0 0 0 0 0 0 0 0 0 0 0 0 0 0 0 0 0 0 5 0 541 746 716 560 556 391 303 253 272 172 106 142 197 224 74 50 85 0 0 0 0 0 0 0 0 0 0 0
0 0 0 0 0 0 0 0 0 0 0 2 0 0 0 0 0 0 0 13 29 396 747 562 475 346 370 304 204 235 189 170 170 175 216 90 53 52 0 0 0 0 0 0 0 0 0 0 0
0 0 0 0 0 0 0 0 0 0 1 0 0 0 0 0 0 0 0 21 49 216 614 504 378 352 303 230 234 132 133 122 132 179 163 149 65 41 0 0 0 0 0 0 0 0 0 0 0
0 0 0 0 0 0 0 0 0 0 0 0 0 0 0 0 0 0 0 12 48 137 652 546 457 436 453 313 214 101 91 21 56 72 96 84 79 66 0 0 0 0 0 0 0 0 0 2 9
0 0 0 0 0 0 0 0 0 0 0 0 0 2 1 104 44 0 0 16 54 113 662 598 493 439 357 286 169 80 2 1 34 49 99 105 54 18 0 0 0 0 0 0 0 0 0 0 4
0 0 0 0 0 0 0 0 0 0 0 0 0 1 1 20 27 54 98 21 575 561 611 632 573 397 174 68 29 39 31 32 29 56 56 69 24 7 7 7 0 0 0 0 0 0 0 0 3
0 0 0 0 0 0 0 0 0 0 0 0 1 2 2 8 20 116 202 519 1052 837 704 530 349 277 64 48 90 148 93 48 68 36 28 8 25 48 21 3 23 2 0 0 0 0 3 6 5
0 0 0 0 0 0 0 0 0 0 0 0 1 13 5 5 1 44 248 581 674 772 1028 554 520 375 47 68 6 8 34 38 11 0 0 0 28 33 4 30 4 18 11 8 2 4 5 3 3
0 0 0 0 0 0 0 0 0 0 0 0 0 2 8 36 38 78 385 397 627 430 434 497 341 182 26 8 0 1 9 52 18 17 27 13 8 18 10 4 2 1 5 1 3 4 5 4 3
0 0 0 0 0 0 0 0 0 0 0 0 0 2 1 18 51 159 294 322 342 356 316 182 199 138 83 61 47 18 14 19 13 2 2 5 0 1 11 5 3 0 1 2 6 4 3 4 1
0 0 0 0 0 0 0 0 0 0 0 0 0 0 1 4 24 55 125 173 362 418 395 281 255 170 158 111 94 14 4 17 16 9 0 5 5 8 10 5 6 7 11 4 2 13 6 5 0
0 0 0 0 0 0 0 0 0 0 0 0 0 0 1 3 11 23 55 97 185 260 190 221 309 178 159 65 59 62 5 2 12 2 4 4 7 9 8 12 3 3 10 7 0 0 0 2 0

GFSSGP_con_mucape_129.txt.gz
CAPE
0 89 568 649 5 55 0 0 0 0 0 0 0 0 20 100 266 13 639 649 425 316 1331 2444 3064 2774 2537 2292 1974 1465 730 219 176 302 972 778 172 13 9 12 12 14 25 321 363 584 608 680 625
0 110 310 542 0 0 0 0 2 0 0 0 0 256 17 728 679 573 839 647 525 617 1355 2285 3249 2894 2702 2452 2162 1885 890 415 202 128 562 528 141 10 13 14 14 14 82 269 303 637 569 472 429
1 150 257 134 0 0 0 0 0 0 0 0 0 766 1060 1100 821 813 594 892 998 1003 1358 2306 2903 2820 2668 2410 2031 2142 1145 437 226 317 835 558 183 8 14 15 15 15 21 265 216 499 375 246 344
16 28 4 70 0 0 0 0 0 0 0 0 0 131 1127 890 696 765 1083 1148 1694 1610 1501 2569 2744 2806 2527 1965 1855 2072 1348 641 309 430 995 635 199 7 12 12 13 13 23 60 43 186 200 244 238
0 0 0 0 0 0 0 0 0 0 0 0 0 163 1172 969 1032 1075 1457 1828 1930 1694 1729 2329 2496 2231 2370 1889 1986 1807 1447 1215 829 652 1017 706 255 23 10 5 6 13 19 17 27 54 52 165 181
0 0 0 0 0 0 0 0 0 0 0 0 5 11 1108 897 949 1154 1466 1919 2117 1835 1840 2242 2271 2341 2164 2007 2023 1762 1210 1348 1206 864 1217 726 439 45 8 2 0 10 23 33 27 58 49 39 40
0 0 0 0 0 0 0 0 0 0 3 2 34 297 179 694 886 968 1748 1878 2117 2037 1947 2178 1679 1589 1880 1984 2000 1694 1371 1027 1186 1142 960 843 618 144 32 3 0 1 33 33 141 79 56 31 20
0 0 0 0 0 0 0 0 0 0 0 0 146 81 73 844 950 857 1495 1854 1811 1713 1366 1276 897 1117 1248 1384 1929 1562 1530 1207 881 1024 963 860 651 492 58 2 0 0 30 44 27 51 29 27 0
0 0 0 0 0 0 0 0 0 0 0 0 124 436 525 901 888 756 843 1613 1729 1060 737 673 592 571 521 1157 1179 1483 1481 1364 820 751 1014 639 182 28 3 0 2 0 19 47 18 31 18 2 1
0 0 0 0 0 0 0 0 0 0 0 0 0 122 504 591 462 920 619 400 661 815 504 285 188 451 357 738 857 773 753 406 165 599 446 320 98 56 0 1 4 0 6 56 13 28 0 0 0
0 0 0 0 0 0 0 0 0 0 0 0 0 0 41 794 540 332 476 580 528 670 273 143 294 60 1 140 526 568 475 279 565 700 397 301 57 1 0 0 0 0 1 19 0 0 0 0 0
0 0 0 0 0 0 0 0 0 0 0 0 0 0 0 0 79 384 224 272 218 66 181 81 132 29 0 127 355 411 365 422 717 620 329 256 0 0 0 0 0 0 0 0 0 0 0 0 0
0 0 0 0 0 0 0 0 0 0 0 0 0 0 0 0 0 0 0 127 274 120 136 176 120 10 89 205 249 337 299 418 562 389 249 213 0 0 0 0 0 0 0 0 0 0 0 0 0
0 0 0 0 0 0 0 0 0 0 0 0 0 0 0 0 0 0 0 0 132 164 218 164 143 118 95 115 144 248 263 384 473 305 193 122 0 0 0 0 0 0 0 0 0 0 0 0 0
0 0 0 0 0 0 0 0 0 0 0 0 0 0 0 0 0 0 0 0 0 22 360 149 80 99 4 139 101 145 207 357 448 315 173 106 12 0 0 0 0 0 0 0 0 0 0 0 0
0 0 0 0 0 0 0 0 0 0 0 0 0 0 0 0 0 0 0 0 0 3 459 217 174 97 68 25 11 53 148 196 374 316 262 183 24 5 0 0 0 0 0 0 0 0 0 0 0
0 0 0 0 0 0 0 0 0 0 0 0 0 0 0 0 0 0 0 0 0 24 421 419 261 201 176 46 26 32 33 166 429 423 397 246 84 19 0 0 0 0 0 0 0 0 0 0 0
0 0 0 0 0 0 0 0 0 0 0 0 0 0 0 0 0 0 0 0 0 351 589 508 399 413 239 165 126 69 108 168 303 357 353 261 174 56 0 0 0 0 0 0 0 0 0 0 0
0 0 0 0 0 0 0 0 0 0 0 0 0 0 0 0 0 0 0 0 1 733 692 614 562 569 367 234 246 262 191 196 143 258 245 195 172 127 30 0 0 0 0 0 0 0 0 0 0
0 0 0 0 0 0 0 0 0 0 0 0 0 0 0 0 0 0 0 0 16 639 922 702 477 431 393 322 185 181 182 143 91 115 182 140 99 105 75 1 0 0 0 0 0 0 0 0 0
0 0 0 0 0 0 0 0 0 0 0 0 0 0 0 1 1 0 0 0 69 602 622 585 476 449 475 421 301 185 113 96 56 82 98 63 84 56 52 17 0 0 0 0 0 0 0 0 0
0 0 0 0 0 0 0 0 0 0 0 0 0 0 1 31 139 0 0 20 71 256 674 490 399 372 373 368 308 222 170 91 44 68 67 65 60 29 32 0 0 0 0 0 0 0 0 0 0
0 0 0 0 0 0 0 0 0 0 0 0 0 0 1 29 188 4 23 64 74 261 760 638 405 433 418 321 358 283 169 113 5 0 34 65 26 61 23 4 0 0 0 0 0 0 0 0 0
0 0 0 0 0 0 0 0 0 0 0 0 0 1 2 1 147 48 152 271 555 540 459 474 476 462 395 335 289 216 173 121 3 21 0 1 42 28 20 0 0 0 0 0 0 0 0 0 0
0 0 0 0 0 0 0 0 0 0 0 0 0 3 0 7 107 66 112 225 389 472 537 396 392 255 101 108 56 71 36 45 23 35 3 33 33 42 22 2 3 1 2 0 0 0 0 0 0
0 0 0 0 0 0 0 0 0 0 0 0 0 5 0 22 103 184 172 207 249 361 586 312 285 204 63 131 175 245 72 32 14 9 20 4 10 3 7 15 6 6 5 6 3 2 0 0 0
0 0 0 0 0 0 0 0 0 0 0 0 0 0 0 1 40 32 117 315 209 193 52 174 492 152 162 95 14 15 20 16 64 10 2 7 5 1 0 4 1 4 9 4 10 11 11 9 1
0 0 0 0 0 0 0 0 0 0 0 0 0 0 1 2 5 21 52 42 76 156 41 31 30 10 24 14 0 0 19 12 14 38 39 26 11 6 1 0 1 0 1 2 11 6 1 4 0
0 0 0 0 0 0 0 0 0 0 0 0 0 0 0 0 14 19 28 24 130 28 108 39 126 67 47 60 12 31 8 10 0 7 5 0 0 0 3 1 4 1 0 2 7 16 10 11 5
0 0 0 0 0 0 0 0 0 0 0 0 0 0 0 2 6 16 14 31 183 28 91 68 116 64 127 57 10 43 21 9 4 4 5 5 0 10 4 6 0 3 5 13 13 14 13 6 10

GFSSGP_con_mucape_132.txt.gz
CAPE
0 23 347 472 0 0 0 0 0 0 0 0 0 0 0 340 302 9 720 634 177 137 1100 2047 2477 2700 1927 2171 1726 809 387 484 1016 1152 948 314 25 8 7 12 7 250 444 579 712 752 729 657 635
0 104 294 259 0 0 0 0 0 0 0 0 0 229 333 683 523 763 884 734 382 478 1436 2160 2322 2447 2623 1938 1622 1156 401 455 936 1212 879 135 12 10 13 10 44 248 350 657 676 638 573 605 695
0 104 113 7 0 0 0 0 0 0 0 0 0 378 985 967 626 888 633 888 503 1058 1852 2279 2654 2199 2259 1828 1531 1376 528 408 558 1130 683 402 13 11 13 13 51 312 390 562 434 443 436 459 465
18 45 0 8 0 0 0 0 0 0 0 0 0 5 901 737 589 725 873 1051 746 1405 1856 2547 2572 2190 2547 2009 1650 1600 760 441 400 914 749 444 10 10 11 13 16 275 272 441 390 318 318 351 319
0 0 0 0 0 0 0 0 0 0 0 0 0 22 996 883 933 1272 1359 1526 1429 1466 1832 2441 2761 2309 2038 1908 1727 1553 1156 699 751 1301 1037 495 328 15 12 14 16 113 29 308 310 348 243 195 129
0 0 0 0 0 0 0 0 0 0 0 0 0 17 731 779 849 1509 1978 2086 1868 1664 1930 2396 2093 2202 2160 1913 1751 1639 1351 964 844 1267 1017 845 148 26 11 13 19 19 31 132 149 73 55 86 145
0 0 0 0 0 0 0 0 0 0 0 0 0 101 10 226 679 1514 1982 2330 2212 1951 2093 2133 1534 1376 1419 1807 1893 1674 1453 1361 1048 1243 1215 756 337 21 10 11 20 83 40 106 120 58 71 109 76
0 0 0 0 0 0 0 0 0 0 0 0 0 0 57 619 848 1387 1947 2190 2439 2227 1832 1862 1307 1065 743 670 1503 1539 1650 1411 1487 1421 1169 549 753 334 11 4 33 130 155 242 85 48 54 38 35
0 0 0 0 0 0 0 0 0 0 0 0 3 0 93 652 1084 887 1822 2094 1876 2169 1652 1361 1151 802 599 438 330 1282 1424 1673 1712 1537 1182 562 157 35 2 1 8 119 78 79 58 59 39 5 1
0 0 0 0 0 0 0 0 0 0 0 0 0 0 104 524 647 857 927 1700 1702 1359 1364 1093 705 588 449 353 233 303 513 701 541 747 545 203 123 24 0 4 11 122 47 78 58 34 1 0 0
0 0 0 0 0 0 0 0 0 0 0 0 0 0 0 81 176 363 259 671 738 1043 1137 888 693 260 43 153 181 33 76 383 318 697 425 291 114 1 0 1 0 33 20 44 11 0 0 0 0
0 0 0 0 0 0 0 0 0 0 0 0 0 0 0 0 0 0 36 31 126 513 743 754 228 36 0 0 11 0 173 277 313 701 482 344 130 13 0 4 0 6 11 11 0 0 0 0 0
0 0 0 0 0 0 0 0 0 0 0 0 0 0 0 0 0 0 0 0 12 108 296 444 104 8 5 2 39 12 117 191 331 628 541 391 210 28 0 0 0 0 2 0 0 0 0 0 0
0 0 0 0 0 0 0 0 0 0 0 0 0 0 0 0 0 0 0 0 0 0 116 180 65 79 53 23 42 70 77 237 284 549 480 405 241 24 0 0 0 0 0 0 0 0 0 0 0
0 0 0 0 0 0 0 0 0 0 0 0 0 0 0 0 0 0 0 0 0 0 0 85 91 193 30 95 43 38 138 139 209 414 455 395 243 13 0 0 0 0 0 0 0 0 0 0 0
0 0 0 0 0 0 0 0 0 0 0 0 0 0 0 0 0 0 0 0 0 0 3 236 256 260 73 67 21 14 42 44 220 347 401 377 209 0 0 0 0 0 0 0 0 0 0 0 0
0 0 0 0 0 0 0 0 0 0 0 0 0 0 0 0 0 0 0 0 0 0 16 358 377 312 123 113 4 5 29 145 227 287 360 314 190 1 0 0 0 0 0 0 0 0 0 0 0
0 0 0 0 0 0 0 0 0 0 0 0 0 0 0 0 0 0 0 0 0 0 338 408 397 323 178 117 40 1 21 104 175 204 342 314 229 31 3 0 0 0 0 0 0 0 0 0 0
0 0 0 0 0 0 0 0 0 0 0 0 0 0 0 0 0 0 0 0 0 96 555 677 615 402 301 145 20 17 4 87 126 218 290 271 219 65 0 0 0 0 0 0 0 0 0 0 0
0 0 0 0 0 0 0 0 0 0 0 0 0 0 0 0 0 0 0 0 1 410 1124 885 668 438 406 199 64 58 22 128 107 158 189 167 167 78 24 0 0 0 0 0 0 0 0 0 0
0 0 0 0 0 0 0 0 0 0 0 0 0 0 0 2 0 0 0 0 317 264 884 815 628 569 430 246 96 102 146 151 121 105 147 118 117 81 34 1 0 0 0 0 0 0 0 0 0
0 0 0 0 0 0 0 0 0 0 0 0 0 1 0 5 98 1 11 246 321 325 671 863 565 571 399 339 196 165 105 132 83 70 103 57 85 56 32 57 0 0 0 0 0 0 0 0 0
0 0 0 0 0 0 0 0 0 0 0 0 0 0 0 14 10 183 124 199 237 373 539 360 699 591 281 325 369 235 182 147 73 97 3 32 72 53 38 15 1 0 0 0 0 0 0 0 0
0 0 0 0 0 0 0 0 0 0 0 0 0 0 7 13 27 227 115 200 422 176 231 203 376 402 392 398 334 275 295 191 51 14 1 20 34 29 0 19 6 0 0 0 0 0 0 0 0
0 0 0 0 0 0 0 0 0 0 0 0 0 0 0 35 38 43 240 332 240 263 114 147 244 233 162 112 218 211 176 131 70 56 12 35 20 12 16 13 14 6 0 0 0 0 0 0 0
0 0 0 0 0 0 0 0 0 0 0 0 0 0 0 15 45 75 253 237 129 178 151 193 160 31 164 144 42 76 39 21 33 41 26 5 1 10 25 8 11 0 0 0 2 5 8 0 0
0 0 0 0 0 0 0 0 0 0 0 0 0 2 22 4 19 59 42 39 107 260 263 200 119 53 24 0 0 8 30 45 37 37 13 2 8 10 15 8 10 10 15 4 12 8 9 9 4
0 0 0 0 0 0 0 0 0 0 0 0 0 0 7 1 6 25 27 22 58 13 132 30 2 0 4 0 1 11 34 34 6 0 3 3 3 3 4 12 5 4 7 11 4 7 3 2 6
0 0 0 0 0 0 0 0 0 0 0 0 0 0 4 11 8 21 44 45 18 48 24 19 11 13 26 49 23 1 5 10 16 38 12 3 4 4 7 12 17 13 6 11 4 5 10 9 3
0 0 0 0 0 0 0 0 0 0 0 0 0 0 0 11 12 19 32 26 37 40 28 12 13 82 12 12 21 15 24 2 0 0 13 4 8 4 3 5 2 0 0 0 0 2 6 3 0

GFSSGP_con_mucape_135.txt.gz
CAPE
0 0 137 124 0 0 0 0 0 0 0 0 0 0 0 440 229 150 899 607 444 277 1274 2163 2416 2333 1939 1416 1327 747 830 1246 1364 959 209 58 5 8 64 133 532 652 772 821 802 855 717 674 592
0 16 152 18 0 0 0 0 0 0 0 0 0 330 353 718 590 949 1020 977 385 493 1410 2121 2569 2548 2393 1519 1461 1246 874 1331 1474 1074 263 74 9 9 35 43 463 487 726 773 664 762 708 686 461
0 41 16 0 0 0 0 0 0 0 0 0 0 401 984 992 661 885 637 931 424 915 1630 2278 2606 2476 2675 1769 1329 1382 1084 1376 1494 1142 324 75 13 12 9 309 401 633 616 600 554 571 530 553 339
0 7 0 0 0 0 0 0 0 0 0 0 0 1 739 692 463 614 768 1050 585 1388 2093 2625 2530 2088 2103 1851 1522 1568 1214 1080 1470 1424 532 53 10 15 14 219 451 600 497 474 429 414 365 353 252
0 0 0 0 0 0 0 0 0 0 0 0 0 0 578 654 800 1114 1418 1182 992 1522 2264 2566 2153 2087 2094 1875 1609 1446 1338 1256 1379 1495 1146 94 9 13 17 63 393 381 334 390 346 276 356 315 238
0 0 0 0 0 0 0 0 0 0 0 0 0 0 137 629 449 1269 1648 1857 1336 1629 2288 2538 2535 2547 2059 2043 1811 1563 1463 1328 1675 1374 1093 482 7 16 10 40 50 72 349 228 144 253 266 222 174
0 0 0 0 0 0 0 0 0 0 0 0 0 0 0 273 430 1339 2222 2270 2035 1841 2276 1965 2084 2049 2082 2344 1988 1747 1782 1344 1511 1547 1428 948 9 13 16 40 20 97 292 139 84 108 117 125 119
0 0 0 0 0 0 0 0 0 0 0 0 0 0 0 260 679 1306 1723 2128 2399 1919 1893 1992 1741 1422 1135 1435 1650 1620 1860 1747 1611 1475 1425 923 259 38 69 213 203 79 189 117 57 97 93 78 66
0 0 0 0 0 0 0 0 0 0 0 0 0 0 0 424 935 1009 1678 1908 1964 2033 1460 1440 1361 1202 1126 876 727 1162 1346 1811 1639 1510 1020 664 347 10 7 129 486 244 158 72 62 44 71 40 18
0 0 0 0 0 0 0 0 0 0 0 0 0 0 0 318 549 529 1072 1479 1733 1924 1377 1236 1137 1053 985 692 498 495 433 413 670 1028 663 433 278 46 0 57 487 294 67 76 49 19 0 0 0
0 0 0 0 0 0 0 0 0 0 0 0 0 0 0 0 0 21 162 284 1009 1381 1432 1211 1073 788 692 613 328 287 487 139 113 561 409 404 277 43 0 2 231 134 161 39 7 0 0 0 0
0 0 0 0 0 0 0 0 0 0 0 0 0 0 0 0 0 0 0 13 165 471 1068 1227 1197 940 641 257 48 171 234 190 191 228 346 309 291 121 1 0 7 12 9 0 0 0 0 0 0
0 0 0 0 0 0 0 0 0 0 0 0 0 0 0 0 0 0 0 0 0 73 413 988 1031 951 544 143 10 3 19 120 246 166 297 323 295 149 10 0 1 0 0 0 0 0 0 0 0
0 0 0 0 0 0 0 0 0 0 0 0 0 0 0 0 0 0 0 0 0 0 0 111 469 667 188 97 178 187 170 86 92 151 340 336 298 167 63 2 0 0 0 0 0 0 0 0 0
0 0 0 0 0 0 0 0 0 0 0 0 0 0 0 0 0 0 0 0 0 0 0 0 243 234 457 457 277 145 128 257 122 120 169 302 329 233 133 0 0 0 0 0 0 0 0 0 0
0 0 0 0 0 0 0 0 0 0 0 0 0 0 0 0 0 0 0 0 0 0 0 0 173 384 369 276 104 121 161 25 109 206 169 228 310 266 131 0 0 0 0 0 0 0 0 0 0
0 0 0 0 0 0 0 0 0 0 0 0 0 0 0 0 0 0 0 0 0 0 0 0 216 379 412 217 56 137 33 17 86 140 155 165 258 216 10 0 0 0 0 0 0 0 0 0 0
0 0 0 0 0 0 0 0 0 0 0 0 0 0 0 0 0 0 0 0 0 0 0 0 158 471 532 344 168 101 33 24 135 19 136 119 239 156 0 0 0 0 0 0 0 0 0 0 0
0 0 0 0 0 0 0 0 0 0 0 0 0 0 0 0 0 0 0 0 0 0 0 485 319 570 572 265 151 54 6 55 179 16 110 99 195 132 28 1 0 0 0 0 0 0 0 0 0
0 0 0 0 0 0 0 0 0 0 0 0 0 0 0 0 0 0 0 0 0 0 260 728 560 590 621 404 215 93 9 93 107 44 112 158 151 100 40 0 0 0 0 0 0 0 0 0 0
0 0 0 0 0 0 0 0 0 0 0 0 0 0 0 6 3 15 3 16 11 277 664 814 1038 828 681 404 218 49 52 52 73 87 154 174 106 116 57 0 0 0 0 0 0 0 0 0 0
0 0 0 0 0 0 0 0 0 0 0 0 0 0 1 19 13 22 45 167 207 327 741 838 1064 777 779 577 319 126 64 69 34 111 117 146 146 112 3 0 0 0 0 0 0 0 0 0 0
0 0 0 0 0 0 0 0 0 0 0 0 0 0 3 15 262 116 400 209 383 362 294 482 529 473 469 414 209 197 93 63 108 84 83 109 107 101 6 1 7 0 0 0 0 0 0 0 0
0 0 0 0 0 0 0 0 0 0 0 0 0 0 7 19 58 74 225 88 155 75 123 347 303 418 495 446 269 267 134 104 97 79 77 23 15 19 26 21 4 0 0 0 0 0 0 0 0
0 0 0 0 0 0 0 0 0 0 0 0 0 0 0 23 5 31 87 243 115 68 91 145 317 498 425 421 311 246 219 159 90 85 44 11 2 22 24 36 13 7 0 0 0 0 0 0 0
0 0 0 0 0 0 0 0 0 0 0 0 0 0 0 32 9 9 4 35 126 97 71 66 58 32 19 8 101 143 110 100 83 86 32 14 21 40 39 42 4 2 1 0 0 0 0 0 0
0 0 0 0 0 0 0 0 0 0 0 0 0 0 1 30 51 10 4 1 39 63 151 49 9 6 0 1 77 30 21 31 39 71 37 58 29 24 34 13 6 2 2 1 0 0 0 2 5
0 0 0 0 0 0 0 0 0 0 0 0 0 0 3 0 10 16 16 4 4 30 0 2 0 2 0 0 12 18 6 0 2 22 33 16 4 2 4 9 14 14 20 7 3 1 1 0 0
0 0 0 0 0 0 0 0 0 0 0 0 0 0 0 2 2 23 19 29 18 26 11 0 1 18 15 2 4 9 16 0 0 0 2 2 2 2 0 9 5 8 7 3 3 6 5 2 3
0 0 0 0 0 0 0 0 0 0 0 0 0 0 0 1 17 12 43 30 35 19 13 11 2 5 5 9 9 6 0 5 5 5 0 0 0 2 2 7 14 11 10 9 0 0 0 0 6

GFSSGP_con_mucape_141.txt.gz
CAPE
0 0 131 159 0 0 0 0 0 0 0 0 0 11 69 188 1052 1471 1518 1583 797 525 2165 2137 2588 2198 1343 1025 853 477 376 350 331 117 90 176 618 858 905 896 910 958 925 866 819 734 699 629 473
0 0 19 0 0 0 0 0 0 0 0 0 0 53 158 1220 1141 1502 1607 1277 1330 612 2588 2242 2632 2721 2282 1981 1654 1116 809 1118 660 281 101 163 388 603 843 840 732 746 900 897 777 726 681 444 280
0 0 0 0 0 0 0 0 0 0 0 0 0 0 615 1491 1215 1231 1459 1398 937 735 2575 2284 2797 2993 2627 2418 2119 1824 1756 1488 1068 462 156 87 241 459 727 802 794 769 842 815 740 749 465 230 139
0 0 0 0 0 0 0 0 0 0 0 0 0 0 593 1041 1241 1490 1829 1204 631 831 2351 2705 2959 2719 2599 2499 2123 1796 1888 1650 1345 811 321 108 178 326 612 853 876 831 866 773 729 600 237 130 149
0 0 0 0 0 0 0 0 0 0 0 0 0 0 217 781 997 1632 1953 1072 502 923 2419 2701 3021 2732 2457 2542 2188 1924 2135 1743 1713 1287 682 329 104 629 779 885 834 755 696 651 566 469 421 508 291
0 0 0 0 0 0 0 0 0 0 0 0 0 0 157 413 820 1617 1935 1511 418 959 1363 2498 2689 2813 2642 2474 2403 2151 2140 1987 1837 1532 1124 754 258 684 857 801 748 698 685 535 469 433 430 259 201
0 0 0 0 0 0 0 0 0 0 0 0 0 0 2 80 685 1400 1874 2142 1567 1026 1222 2474 2475 2117 2569 2294 2522 1990 1958 2179 1784 1676 1273 714 214 612 796 742 690 561 588 487 444 388 332 268 212
0 0 0 0 0 0 0 0 0 0 0 0 0 0 0 0 46 1067 1642 1875 2431 1453 1311 2048 2363 2179 1893 1517 2145 1751 1741 1883 1757 1470 1218 878 307 628 688 789 692 438 434 410 337 278 248 165 126
0 0 0 0 0 0 0 0 0 0 0 0 0 0 0 0 0 381 869 1632 1899 2371 1617 2053 2068 1956 2142 2144 2000 2071 1290 1339 1532 1271 1066 520 152 35 33 268 986 384 378 423 367 227 91 63 64
0 0 0 0 0 0 0 0 0 0 0 0 0 0 0 0 0 0 52 293 1585 1481 1995 1774 1943 1945 1911 1894 1880 1842 1701 635 837 595 447 298 174 111 47 371 707 551 256 276 246 135 105 93 9
0 0 0 0 0 0 0 0 0 0 0 0 0 0 0 0 0 0 0 0 27 1035 2024 1987 1911 1818 1822 1939 1268 1009 957 547 201 123 270 300 352 128 227 304 172 406 215 108 82 77 87 61 45
0 0 0 0 0 0 0 0 0 0 0 0 0 0 0 0 0 0 0 0 0 0 529 2126 2055 1949 1787 1939 1783 976 615 516 184 82 91 84 196 232 89 284 142 436 124 49 15 9 7 5 12
0 0 0 0 0 0 0 0 0 0 0 0 0 0 0 0 0 0 0 0 0 0 0 702 1789 2012 1805 1750 1883 1544 926 451 411 162 2 62 35 73 123 165 206 230 63 37 19 6 4 1 7
0 0 0 0 0 0 0 0 0 0 0 0 0 0 0 0 0 0 0 0 0 0 0 0 178 1446 2027 1628 1474 1374 1309 853 430 251 19 47 0 196 187 90 152 87 8 7 1 1 2 11 10
0 0 0 0 0 0 0 0 0 0 0 0 0 0 0 0 0 0 0 0 0 0 0 0 31 96 1470 1819 1482 1500 1327 944 898 267 116 1 11 151 173 97 206 123 12 0 0 0 0 0 0
0 0 0 0 0 0 0 0 0 0 0 0 0 0 0 0 0 0 0 0 0 0 0 0 0 33 455 1639 1445 1259 1069 1039 754 636 212 39 209 323 131 107 107 94 8 1 0 0 2 1 5
0 0 0 0 0 0 0 0 0 0 0 0 0 0 0 0 0 2 11 4 0 4 16 5 0 28 490 1053 1427 1253 1029 954 1000 743 558 393 308 338 131 54 94 41 0 6 0 0 0 2 5
0 0 0 0 0 0 0 0 0 0 0 0 0 0 0 2 0 0 6 15 42 88 9 29 43 32 605 1090 1244 1086 1040 670 751 1061 730 335 363 302 113 56 52 25 25 11 0 0 0 0 1
0 0 0 0 0 0 0 0 0 0 0 0 0 0 0 0 0 3 5 10 70 182 114 44 36 25 675 1228 1059 1015 763 709 900 874 383 219 164 81 67 47 78 84 36 3 0 0 0 0 0
0 0 0 0 0 0 0 0 0 0 0 0 0 0 0 0 5 4 15 14 154 209 109 40 47 156 867 1185 1032 960 731 804 655 364 235 147 96 98 52 60 93 14 44 0 1 0 0 0 0
0 0 0 0 0 0 0 0 0 0 0 0 0 0 0 1 2 7 4 120 333 661 579 495 497 664 1066 1017 1114 681 639 355 331 243 158 106 69 24 17 64 88 48 0 0 2 0 0 0 0
0 0 0 0 0 0 0 0 0 0 0 0 0 0 4 5 32 5 13 279 364 712 864 1027 932 840 1211 987 1006 723 539 304 155 109 52 55 17 11 42 107 100 48 18 0 0 0 0 0 0
0 0 0 0 0 0 0 0 0 0 0 0 0 0 5 5 4 5 12 101 350 527 856 993 1075 1136 1072 1126 947 922 330 98 26 63 68 35 13 4 44 119 84 40 12 0 0 0 0 0 0
0 0 0 0 0 0 0 0 0 0 0 0 0 0 0 2 3 9 7 122 327 498 685 573 859 1007 1065 1338 1035 653 141 55 17 34 49 44 11 7 61 107 81 15 0 0 1 35 28 5 0
0 0 0 0 0 0 0 0 0 0 0 0 0 0 0 3 2 5 4 49 163 265 426 444 425 432 523 937 697 221 61 37 38 37 20 15 21 26 61 75 53 26 0 0 0 24 58 68 65
0 0 0 0 0 0 0 0 0 0 0 0 0 0 1 5 3 5 2 4 25 21 27 60 115 169 414 373 247 109 25 19 19 46 31 4 13 11 20 64 41 6 0 0 0 0 19 46 78
0 0 0 0 0 0 0 0 0 0 0 0 0 0 2 3 5 1 1 2 3 38 6 13 13 19 105 366 293 230 170 104 61 51 16 44 31 26 16 36 47 30 0 0 1 0 0 1 10
0 0 0 0 0 0 0 0 0 0 0 0 0 0 4 2 5 8 1 2 1 1 3 0 0 4 37 27 156 187 158 79 76 42 34 40 14 15 5 4 9 28 23 21 3 1 0 0 0
0 0 0 0 0 0 0 0 0 0 0 0 0 0 2 9 0 1 0 0 0 0 4 1 3 0 28 68 32 63 123 64 47 44 55 29 16 14 6 22 5 6 5 8 7 1 3 0 1
0 0 0 0 0 0 0 0 0 0 0 0 0 0 0 8 3 3 5 3 0 0 1 0 0 0 2 37 16 14 6 40 56 50 28 36 54 17 4 1 14 3 8 11 3 14 15 9 2

GFSSGP_con_mucape_144.txt.gz
CAPE
0 0 0 341 21 0 0 0 0 0 0 0 0 0 1 705 1006 1094 1247 1365 788 1493 2030 2004 2282 1765 1234 1089 993 756 733 441 226 217 275 829 1136 1138 1169 1065 1043 1032 1105 954 890 754 665 430 477
0 0 16 60 0 0 0 0 0 0 0 0 0 0 18 1015 1095 1239 1330 1135 1060 1660 2063 1862 2625 2270 1901 1520 1163 662 560 573 347 175 180 696 923 1002 1008 929 972 967 1040 924 795 748 501 371 257
0 0 0 0 0 0 0 0 0 0 0 0 0 0 398 1205 1086 1214 1465 1207 1038 1988 2169 2144 2851 2632 2366 2270 1887 1257 1026 1048 619 301 209 421 733 1071 948 931 985 998 1035 924 773 609 355 238 214
0 0 0 0 0 0 0 0 0 0 0 0 0 0 925 803 1112 1437 1593 622 923 1994 2178 2777 3011 2978 2665 2598 2202 1988 1763 1402 924 425 218 223 555 884 985 881 853 1012 1034 944 653 352 221 291 658
0 0 0 0 0 0 0 0 0 0 0 0 0 0 839 675 1298 1398 1492 520 508 1822 2371 2508 3192 2917 2838 2716 2291 2195 2055 1776 1615 1024 502 248 397 777 1026 967 859 985 874 851 496 342 363 481 473
0 0 0 0 0 0 0 0 0 0 0 0 0 0 335 640 929 1433 1604 770 397 1281 2548 2477 3159 3229 2857 2735 2430 2301 2163 1935 1719 1492 1206 590 540 1086 1076 974 911 894 779 683 594 363 384 338 267
0 0 0 0 0 0 0 0 0 0 0 0 0 0 34 180 564 1097 1502 1784 1954 1349 2332 2470 2291 2719 2877 2538 2530 2264 2247 1941 1637 1631 1292 1007 983 978 930 921 889 743 694 637 464 486 250 263 188
0 0 0 0 0 0 0 0 0 0 0 0 0 0 0 0 54 752 1443 1460 1767 1912 1415 2361 2267 1921 2009 2176 2154 1874 2200 1937 1668 1517 1389 859 1022 941 657 775 939 753 650 603 492 368 324 203 289
0 0 0 0 0 0 0 0 0 0 0 0 0 0 0 0 0 59 613 1340 1491 1857 1717 1420 2032 1839 1818 1530 1570 1829 1769 1751 1392 1158 1126 697 14 484 241 688 823 701 648 624 408 296 193 121 123
0 0 0 0 0 0 0 0 0 0 0 0 0 0 0 0 0 0 19 256 1345 1335 1177 1536 1654 1548 1612 1605 1316 1244 998 642 619 492 300 186 47 91 0 502 623 589 572 559 471 249 129 46 10
0 0 0 0 0 0 0 0 0 0 0 0 0 0 0 0 0 0 0 0 0 439 1302 1473 1517 1565 1527 1345 1238 954 953 599 471 432 310 145 72 39 187 114 339 268 254 188 135 62 101 15 33
0 0 0 0 0 0 0 0 0 0 0 0 0 0 0 0 0 0 0 0 0 0 0 1724 1680 1524 1619 1462 1402 864 717 496 437 435 88 54 42 74 80 106 242 119 98 74 33 58 16 43 51
0 0 0 0 0 0 0 0 0 0 0 0 0 0 0 0 0 0 0 0 0 0 0 0 1430 1681 1684 1697 1313 913 731 550 381 252 46 2 18 9 68 138 198 118 90 16 0 0 0 3 2
0 0 0 0 0 0 0 0 0 0 0 0 0 0 0 0 0 0 0 0 0 0 0 0 0 1154 1735 1667 1462 1219 928 562 369 266 85 51 6 2 0 47 138 143 41 2 0 0 0 1 10
0 0 0 0 0 0 0 0 0 0 0 0 0 0 0 0 0 0 0 0 0 0 0 0 0 14 701 2001 1619 1425 1134 855 687 496 158 47 13 0 22 0 72 96 18 0 0 0 0 0 1
0 0 0 0 0 0 0 0 0 0 0 0 0 0 0 0 0 0 0 0 0 0 0 0 0 41 117 1773 1820 1730 1273 1172 938 698 324 142 9 14 7 8 126 115 33 10 0 0 0 0 0
0 0 0 0 0 0 0 0 0 0 0 0 0 0 0 0 0 0 2 0 0 0 0 1 17 33 174 524 1677 1681 1484 1164 1025 918 579 255 133 47 40 31 153 76 65 23 0 0 0 0 0
0 0 0 0 0 0 0 0 0 0 0 0 0 0 0 0 0 0 0 0 0 0 9 29 87 135 138 682 1550 1385 1570 1292 1009 1065 834 496 258 151 147 89 116 59 45 0 0 0 0 0 0
0 0 0 0 0 0 0 0 0 0 0 0 0 0 0 0 0 0 0 0 0 0 7 179 192 157 117 1046 1468 1308 1289 1046 807 1129 939 647 403 264 198 75 99 39 10 21 7 0 0 0 0
0 0 0 0 0 0 0 0 0 0 0 0 0 0 0 0 0 0 0 0 0 112 177 70 34 50 144 1156 1124 1068 945 968 956 807 675 704 434 193 101 94 62 12 19 17 2 0 0 0 0
0 0 0 0 0 0 0 0 0 0 0 0 0 0 0 0 0 0 5 3 2 31 359 332 73 51 153 900 848 926 925 759 622 539 587 445 399 199 87 34 55 31 27 13 0 0 0 0 0
0 0 0 0 0 0 0 0 0 0 0 0 0 0 0 0 0 4 20 4 93 225 440 669 623 486 758 658 949 857 750 559 379 517 386 346 280 137 98 26 70 6 40 0 0 0 0 0 0
0 0 0 0 0 0 0 0 0 0 0 0 0 0 0 0 1 28 2 2 23 37 375 536 680 918 931 883 867 744 636 281 153 382 243 143 76 83 28 23 26 7 21 1 13 0 0 0 0
0 0 0 0 0 0 0 0 0 0 0 0 0 0 0 0 0 5 4 5 62 211 258 554 586 712 743 738 750 630 372 194 93 78 39 97 42 20 38 19 22 60 60 42 6 0 24 0 0
0 0 0 0 0 0 0 0 0 0 0 0 0 0 0 0 0 4 13 16 39 93 313 267 673 717 906 758 618 406 170 35 1 23 12 27 35 12 26 5 40 49 50 26 39 28 0 0 0
0 0 0 0 0 0 0 0 0 0 0 0 0 0 0 0 1 6 4 3 7 2 21 43 50 412 499 606 212 137 116 3 5 9 2 29 34 11 6 5 77 57 20 32 50 41 44 58 26
0 0 0 0 0 0 0 0 0 0 0 0 0 0 0 0 2 4 7 4 5 2 2 1 15 107 159 78 94 73 10 7 14 37 26 5 14 21 12 11 76 72 4 0 10 23 12 27 37
0 0 0 0 0 0 0 0 0 0 0 0 0 0 0 0 1 4 4 3 5 2 1 1 1 4 24 100 112 154 105 52 26 24 19 23 24 30 19 43 49 25 1 19 1 0 0 1 7
0 0 0 0 0 0 0 0 0 0 0 0 0 0 0 0 1 3 2 3 3 3 5 2 2 4 1 5 49 47 42 39 55 15 40 28 29 8 10 29 39 16 10 6 2 1 1 1 0
0 0 0 0 0 0 0 0 0 0 0 0 0 0 0 0 0 3 2 4 5 4 3 4 0 0 0 1 8 11 21 37 14 36 24 17 9 19 21 13 14 14 61 42 21 11 4 10 3

GFSSGP_con_mucape_150.txt.gz
CAPE
0 0 0 0 0 0 0 0 0 0 0 0 0 254 738 738 836 453 915 1093 1523 1474 1701 1881 2500 2197 1526 1455 1578 1355 1000 720 429 757 814 1135 1263 1222 1225 1206 1164 1062 867 995 961 647 400 505 534
0 0 0 0 0 0 0 0 0 0 0 0 0 295 413 712 968 977 1063 1517 1623 1677 1719 1610 2582 2496 2309 1835 1719 1483 1118 723 498 747 1047 1210 1218 1170 918 986 1166 1026 802 921 782 772 509 821 452
0 0 0 0 0 0 0 0 0 0 0 0 0 625 783 754 941 1011 1064 1793 1731 1770 1725 1618 2749 2588 2472 2162 1615 1402 770 566 609 616 1069 1231 1268 1217 1224 1083 1082 1184 983 736 671 610 815 891 606
0 0 0 0 0 0 0 0 0 0 0 0 0 403 564 890 1032 1148 869 1846 1854 1848 1684 2344 2825 2566 2481 1875 1398 1031 1048 803 619 697 859 1215 1289 1197 1131 1076 1181 1195 928 627 472 607 824 724 459
0 0 0 0 0 0 0 0 0 0 0 0 0 102 712 962 1246 1041 443 1944 1983 1849 1747 2398 2957 2518 2363 2032 1362 1474 1656 1146 838 848 826 1231 1317 1273 1132 1165 1175 1134 802 474 584 614 658 351 288
0 0 0 0 0 0 0 0 0 0 0 0 0 153 424 952 1108 1143 1073 1753 2011 1890 1883 2355 2671 2583 2609 2336 1859 1960 1896 1498 1106 1059 1152 1109 1477 1318 1269 1172 1095 1034 689 656 561 495 328 202 116
0 0 0 0 0 0 0 0 0 0 0 0 0 105 315 640 897 1165 1112 1284 2075 2084 2232 2199 1999 1913 2252 2337 2612 2068 1710 1602 1533 1239 1233 1230 1693 1425 1382 1262 1066 990 720 723 417 444 208 177 61
0 0 0 0 0 0 0 0 0 0 0 0 0 0 76 124 789 1054 908 773 1371 1998 2014 1972 1811 1719 1677 1794 1966 1739 1843 1584 1425 1491 1581 1806 1542 1493 1282 1319 1188 1034 936 632 266 205 407 103 21
0 0 0 0 0 0 0 0 0 0 0 0 0 0 0 0 38 415 578 492 953 1330 1385 1496 1615 1678 1495 1368 1534 1925 1861 1698 1361 1087 1064 1013 861 830 971 899 1242 1221 978 606 231 285 269 132 28
0 0 0 0 0 0 0 0 0 0 0 0 0 0 0 0 0 0 63 498 292 649 892 1323 1314 1465 1405 1460 1345 1246 1079 1094 680 361 354 571 591 447 407 612 1010 1238 1007 772 316 181 201 0 0
0 0 0 0 0 0 0 0 0 0 0 0 0 0 0 0 0 0 0 61 538 351 599 1005 1285 1349 1406 1273 1020 971 826 763 512 323 221 225 437 349 161 108 387 700 730 252 82 46 3 0 0
0 0 0 0 0 0 0 0 0 0 0 0 0 0 0 0 0 0 0 0 0 82 140 479 960 1078 1255 1239 1112 1016 896 643 518 439 286 170 192 258 179 109 110 315 219 128 120 44 16 0 0
0 0 0 0 0 0 0 0 0 0 0 0 0 0 0 0 0 0 0 0 0 0 0 355 661 769 1046 1081 1013 1020 787 820 589 441 336 124 61 47 143 61 89 117 85 79 106 84 8 0 1
0 0 0 0 0 0 0 0 0 0 0 0 0 0 0 0 0 0 0 0 0 0 0 0 751 758 950 1071 1090 1082 889 722 728 614 433 173 23 41 41 4 14 90 110 80 97 74 64 2 0
0 0 0 0 0 0 0 0 0 0 0 0 0 0 0 0 0 0 0 0 0 0 0 0 94 877 1003 1154 1188 1217 945 1021 1180 791 447 309 136 30 6 0 13 66 95 72 68 47 30 3 0
0 0 0 0 0 0 0 0 0 0 0 0 0 0 0 0 0 0 0 0 0 0 0 0 0 41 804 1022 1231 1320 1305 1209 877 738 477 620 300 158 0 0 36 46 18 22 85 48 18 0 0
0 0 0 0 0 0 0 0 0 0 0 0 0 0 0 0 0 0 0 0 0 0 0 0 0 0 0 196 1134 1338 1360 1000 870 695 625 610 422 105 0 0 4 51 30 68 29 48 24 0 0
0 0 0 0 0 0 0 0 0 0 0 0 0 0 0 0 0 0 0 0 0 0 0 0 0 0 0 9 545 1166 1451 1312 1027 767 296 310 160 156 98 9 63 34 50 36 14 20 14 2 0
0 0 0 0 0 0 0 0 0 0 0 0 0 0 0 0 0 0 0 0 0 0 0 0 0 0 0 0 166 945 1348 1357 1355 1027 518 458 424 252 174 93 115 113 26 18 28 12 1 0 0
0 0 0 0 0 0 0 0 0 0 0 0 0 0 0 0 0 0 0 0 0 0 0 0 0 0 0 0 267 799 933 1012 1028 1235 1308 1185 818 612 407 145 128 124 101 46 50 5 0 7 0
0 0 0 0 0 0 0 0 0 0 0 0 0 0 0 0 0 0 0 0 0 0 0 0 0 0 0 0 188 488 665 743 892 1112 1181 1143 949 722 468 309 159 138 119 38 9 24 0 0 0
0 0 0 0 0 0 0 0 0 0 0 0 0 0 0 0 0 0 0 0 0 0 1 0 0 13 0 0 201 350 551 609 816 872 915 901 813 736 559 352 195 254 130 71 16 30 1 0 0
0 0 0 0 0 0 0 0 0 0 0 0 0 0 0 0 0 0 0 0 1 11 6 24 1 0 6 3 249 343 473 550 598 600 532 399 494 491 698 436 451 212 123 69 67 8 0 4 0
0 0 0 0 0 0 0 0 0 0 0 0 0 0 0 0 0 0 0 0 0 4 0 9 39 87 164 122 273 305 318 328 335 323 476 381 217 140 324 393 449 195 47 95 24 4 3 0 0
0 0 0 0 0 0 0 0 0 0 0 0 0 0 0 0 0 0 0 0 1 2 3 7 14 126 235 284 219 260 288 377 274 231 200 120 101 25 175 251 342 173 88 24 14 13 0 0 0
0 0 0 0 0 0 0 0 0 0 0 0 0 0 0 0 0 0 0 4 2 0 1 6 7 46 137 250 334 372 249 14 0 0 0 7 23 30 61 67 51 85 98 30 9 1 5 30 10
0 0 0 0 0 0 0 0 0 0 0 0 0 0 0 0 0 0 2 3 1 2 3 2 7 5 53 140 157 98 50 17 21 4 0 27 17 2 70 4 93 41 11 13 18 7 2 15 19
0 0 0 0 0 0 0 0 0 0 0 0 0 0 0 0 0 0 2 1 2 3 4 4 5 9 20 12 21 33 30 5 11 25 1 4 9 38 0 31 8 32 4 2 6 3 4 3 0
0 0 0 0 0 0 0 0 0 0 0 0 0 0 0 0 0 1 1 1 3 3 3 2 5 3 3 21 12 14 31 57 30 40 23 7 3 2 6 29 39 2 4 18 4 4 2 0 79
0 0 0 0 0 0 0 0 0 0 0 0 0 0 0 0 0 0 0 0 3 4 2 2 3 3 4 7 6 24 8 35 12 27 5 15 7 4 7 5 1 3 4 9 31 44 37 31 14

GFSSGP_con_mucape_156.txt.gz
CAPE
0 0 0 0 0 0 0 0 0 0 0 0 0 116 358 617 390 52 583 883 1016 1078 1437 1542 2505 1940 1372 1122 1559 1093 770 452 697 926 793 1091 1272 1274 1450 1315 1081 912 899 956 1051 1023 871 654 493
0 0 0 0 0 0 0 0 0 0 0 195 48 291 249 635 801 864 744 940 1197 1316 1476 1580 2305 2461 2003 1491 1594 1300 985 469 1088 840 1065 1046 1331 1424 1459 1280 947 990 983 1033 1041 943 748 509 287
0 0 0 0 0 0 0 0 0 0 0 0 414 355 494 716 832 855 878 1005 1337 1511 1512 1681 2684 2635 2289 2207 1832 1520 1206 650 1240 994 949 1352 1319 1382 1371 1123 767 1001 944 933 970 954 717 556 331
0 0 0 0 0 0 0 0 0 0 0 0 58 296 717 799 886 974 1050 1386 1521 1599 1561 1802 2777 2441 2450 2345 2197 1720 1345 850 963 1117 1412 1498 1550 1354 1156 1079 1216 1138 904 910 921 815 636 504 250
0 0 0 0 0 0 0 0 0 0 0 0 0 148 741 962 975 998 1548 1551 1610 1642 1549 1858 2641 2317 2379 2347 2112 1747 1077 792 830 1140 1460 1566 1622 1409 1305 1176 1164 1282 954 943 897 714 387 440 115
0 0 0 0 0 0 0 0 0 0 0 0 0 359 725 961 978 667 1679 1597 1621 1693 1601 1952 2492 2625 2586 2359 1923 1446 1103 1045 888 1107 1516 1576 1515 1409 1301 1442 1255 1194 1018 1044 886 564 452 245 47
0 0 0 0 0 0 0 0 0 0 0 0 0 8 326 794 1062 1017 1709 1706 1715 1747 1687 2035 2002 1789 2389 2595 2280 1743 1725 1364 1175 1201 1218 1650 1613 1555 1503 1412 1284 1116 1045 1060 762 546 402 86 14
0 0 0 0 0 0 0 0 0 0 0 0 0 0 57 728 1071 965 1126 1809 1836 1798 1800 1880 1672 1641 1653 1733 2379 2389 1901 1689 1410 1747 1638 1726 1726 1655 1482 1419 1212 1148 991 909 824 497 203 15 1
0 0 0 0 0 0 0 0 0 0 0 0 0 0 0 654 896 828 894 1369 1851 1909 1879 1784 1696 1591 1419 1376 1529 2081 1897 1825 1598 1569 1782 1497 1168 1266 1230 1144 1369 1020 938 941 620 460 118 4 1
0 0 0 0 0 0 0 0 0 0 0 0 0 0 0 516 781 459 187 638 1183 1673 1946 1863 1711 1450 1306 1208 1207 1347 1182 1060 863 786 899 906 1003 1202 982 1031 1183 1006 872 830 576 393 94 0 0
0 0 0 0 0 0 0 0 0 0 0 0 0 0 0 184 301 69 1 23 409 993 1354 1451 1602 1571 1457 1326 1178 1001 862 740 731 560 605 601 781 848 792 793 570 545 574 414 265 127 17 0 0
0 0 0 0 0 0 0 0 0 0 0 0 0 0 0 0 0 0 0 0 37 326 803 1093 1236 1309 1437 1291 1082 907 690 578 536 483 416 396 414 520 578 439 419 310 275 257 164 69 17 0 0
0 0 0 0 0 0 0 0 0 0 0 0 0 0 0 0 0 0 0 0 26 14 90 517 850 1008 1126 1102 970 875 709 575 459 439 388 366 325 274 258 306 276 209 207 233 132 74 18 1 0
0 0 0 0 0 0 0 0 0 0 0 0 0 0 0 0 0 0 0 0 0 9 0 29 278 689 1000 1050 812 725 732 577 480 429 436 464 439 326 210 164 90 109 128 128 108 91 31 6 0
0 0 0 0 0 0 0 0 0 0 0 0 0 0 0 0 0 0 0 0 0 0 0 0 5 246 535 757 664 469 707 811 346 374 469 545 569 466 328 221 137 25 71 112 90 85 38 23 6
0 0 0 0 0 0 0 0 0 0 0 0 0 0 0 0 0 0 0 0 0 0 0 0 0 18 190 499 1037 550 471 497 349 305 444 621 744 543 424 181 88 41 64 92 106 87 44 20 14
0 0 0 0 0 0 0 0 0 0 0 0 0 0 0 0 0 0 0 0 0 0 0 0 0 0 53 322 494 363 351 662 657 607 548 544 824 742 482 164 76 85 86 109 122 88 40 19 15
0 0 0 0 0 0 0 0 0 0 0 0 0 0 0 0 0 0 0 0 0 0 0 0 0 0 0 0 148 249 273 260 485 478 526 609 663 731 354 154 179 83 91 115 138 143 20 19 26
0 0 0 0 0 0 0 0 0 0 0 0 0 0 0 0 0 0 0 0 0 0 0 0 0 0 0 0 0 67 100 67 182 159 436 526 561 735 336 185 136 155 92 106 114 88 73 30 53
0 0 0 0 0 0 0 0 0 0 0 0 0 0 0 0 0 0 0 0 0 0 0 0 0 0 0 0 0 0 0 20 71 105 259 341 486 379 217 38 101 150 166 99 152 113 63 13 12
0 0 0 0 0 0 0 0 0 0 0 0 0 0 0 0 0 0 0 0 0 0 0 0 0 0 0 0 0 0 0 9 56 110 187 639 259 307 147 46 73 96 75 149 90 2 46 1 25
0 0 0 0 0 0 0 0 0 0 0 0 0 0 0 0 0 0 0 0 0 0 0 0 0 0 0 0 0 0 0 0 28 46 172 261 115 76 76 89 71 86 39 73 55 29 13 35 0
0 0 0 0 0 0 0 0 0 0 0 0 0 0 0 0 0 0 0 0 0 0 0 0 0 0 0 0 0 0 0 0 0 30 71 124 106 118 81 92 54 80 26 63 43 54 3 34 39
0 0 0 0 0 0 0 0 0 0 0 0 0 0 0 0 0 0 0 0 0 0 0 0 1 1 0 0 0 0 0 0 16 12 82 75 82 388 254 452 321 162 148 147 89 71 57 24 11
0 0 0 0 0 0 0 0 0 0 0 0 0 0 0 0 0 0 0 0 0 0 0 0 5 8 0 0 0 0 0 0 22 31 40 26 42 80 414 560 394 325 220 179 126 88 64 36 17
0 0 0 0 0 0 0 0 0 0 0 0 0 0 0 0 0 0 0 0 0 0 0 0 0 5 16 0 0 0 0 1 1 0 0 2 0 40 68 72 426 315 172 168 154 70 70 26 13
0 0 0 0 0 0 0 0 0 0 0 0 0 0 0 0 0 0 0 0 0 0 0 0 0 4 12 25 32 13 10 5 10 0 0 0 0 0 0 16 12 78 201 157 172 61 52 38 19
0 0 0 0 0 0 0 0 0 0 0 0 0 0 0 0 0 0 0 0 0 0 1 1 0 3 4 7 8 14 15 5 1 6 6 3 1 2 0 0 0 40 81 40 80 81 46 21 13
0 0 0 0 0 0 0 0 0 0 0 0 0 0 0 0 0 0 0 0 0 0 3 1 2 3 4 4 4 5 8 6 46 27 1 2 0 0 3 2 5 24 119 44 41 49 15 13 1
5 0 0 0 0 0 0 0 0 0 0 0 0 0 0 0 0 0 0 0 0 0 0 0 1 3 3 3 6 3 10 2 5 4 11 7 28 31 0 11 25 18 24 10 27 9 2 2 3

GFSSGP_con_mucape_159.txt.gz
CAPE
0 0 0 0 0 0 0 0 0 0 0 0 0 124 196 576 226 228 421 1103 1113 1162 1271 1116 2107 2062 1366 1643 1294 1013 693 431 555 780 946 1158 1321 1459 1419 1169 985 1032 1116 1233 1067 960 715 478 325
0 0 0 0 0 0 0 0 0 0 0 206 191 217 261 806 830 823 858 1205 1333 1264 1303 1001 2321 2570 1984 1492 1566 1197 738 502 865 1034 846 1162 1367 1482 1387 1111 922 1070 1164 1313 1120 781 559 507 283
0 0 0 0 0 0 0 0 0 0 92 0 297 187 500 904 779 950 750 1262 1438 1459 1334 1116 2820 2714 2284 2190 1675 1383 1030 496 1356 780 1236 1060 1445 1450 1319 1104 1038 1165 1302 1233 1140 944 605 508 267
0 0 0 0 0 0 0 0 0 0 0 0 138 550 536 686 820 865 1018 1470 1611 1676 1516 1653 2813 2870 2451 2395 2110 1637 1280 710 1315 972 1021 1480 1440 1459 1287 1099 1118 1256 1270 1192 1109 881 635 307 181
0 0 0 0 0 0 0 0 0 0 0 0 43 289 801 760 862 863 1590 1540 1699 1803 1654 1370 2593 2491 2520 2642 2210 1856 1452 928 1075 1153 1616 1520 1400 1394 1235 1171 1421 1210 1276 1243 1008 782 525 172 76
0 0 0 0 0 0 0 0 0 0 0 0 7 419 800 938 822 697 1693 1719 1712 1890 1729 1522 2494 2581 2572 2465 2277 1874 1277 933 969 1207 1579 1451 1446 1422 1300 1308 1496 1275 1254 1227 944 665 528 216 45
0 0 0 0 0 0 0 0 0 0 0 0 26 458 165 929 928 1343 1751 1725 1861 1921 1878 2003 2201 2004 2505 2539 2399 1901 1163 1201 1034 1213 1563 1568 1481 1358 1505 1365 1489 1375 1435 1257 987 757 456 121 30
0 0 0 0 0 0 0 0 0 0 0 0 0 7 108 655 1033 1127 1717 1865 1991 2080 2082 2123 2298 2078 2054 2148 2525 2312 2130 2005 1804 1805 1717 1932 1964 1615 1545 1476 1442 1425 1345 1039 873 691 323 148 0
0 0 0 0 0 0 0 0 0 0 0 0 0 0 0 630 1090 969 1309 1597 1946 2072 2151 2121 2190 2035 1910 1797 2153 2454 2341 1713 1731 1926 1799 1656 1694 1567 1432 1381 1667 1367 1249 996 836 632 233 46 1
0 0 0 0 0 0 0 0 0 0 0 0 0 0 0 683 1015 902 981 1471 1810 2040 2128 2118 2080 2084 2019 1730 1886 1784 1758 1641 1353 1584 1462 1400 1430 1545 1373 1249 1553 1353 1248 1005 759 557 118 31 0
0 0 0 0 0 0 0 0 0 0 0 0 0 0 2 705 852 647 346 654 1196 1653 1805 1975 2104 2006 1875 1834 1860 1661 1507 1776 1427 1272 1303 1237 1306 1555 1431 1450 1256 1305 1110 1207 794 377 36 8 0
0 0 0 0 0 0 0 0 0 0 0 0 0 0 0 564 700 528 86 50 168 568 1233 1791 1766 1776 1728 1747 1684 1439 1204 1149 1170 1011 911 960 778 1147 1191 1289 860 1134 1026 927 591 137 62 30 0
0 0 0 0 0 0 0 0 0 0 0 0 0 0 0 65 295 212 3 0 18 97 668 1163 1335 1465 1561 1445 1291 1045 862 720 756 618 579 599 541 561 310 276 256 526 756 683 240 105 131 36 4
0 0 0 0 0 0 0 0 0 0 0 0 0 0 0 0 0 0 0 0 0 40 155 502 734 1031 1135 1146 1153 936 834 734 561 508 484 456 344 291 291 185 210 370 435 285 206 93 102 58 5
0 0 0 0 0 0 0 0 0 0 0 0 0 0 0 0 0 0 0 0 0 0 22 3 169 536 904 894 746 785 511 648 377 448 479 469 417 426 334 325 334 507 400 247 202 90 93 56 20
0 0 0 0 0 0 0 0 0 0 0 0 0 0 0 0 0 0 0 0 0 0 0 0 0 43 378 588 688 483 210 289 235 314 205 241 360 509 567 323 310 225 304 297 261 146 75 37 15
0 0 0 0 0 0 0 0 0 0 0 0 0 0 0 0 0 0 0 0 0 0 0 0 0 0 28 262 680 293 410 559 282 564 217 252 267 446 637 507 370 197 110 195 191 147 104 58 20
0 0 0 0 0 0 0 0 0 0 0 0 0 0 0 0 0 0 0 0 0 0 0 0 0 0 0 11 204 172 303 307 241 229 324 369 402 389 592 370 400 153 122 56 143 41 57 80 33
0 0 0 0 0 0 0 0 0 0 0 0 0 0 0 0 0 0 0 0 0 0 0 0 0 0 0 0 3 27 124 109 126 140 366 560 388 319 399 406 335 302 200 191 107 126 31 31 16
0 0 0 0 0 0 0 0 0 0 0 0 0 0 0 0 0 0 0 0 0 0 0 0 0 0 0 0 0 0 5 21 12 40 120 482 485 315 326 436 351 126 165 86 64 127 75 69 13
0 0 0 0 0 0 0 0 0 0 0 0 0 0 0 0 0 0 0 0 0 0 0 0 0 0 0 0 0 0 0 0 8 5 42 209 305 219 271 266 247 101 94 100 165 156 95 94 49
0 0 0 0 0 0 0 0 0 0 0 0 0 0 0 0 0 0 0 0 0 0 0 0 0 0 0 0 0 0 0 0 2 22 61 62 66 103 159 90 5 17 143 210 61 77 93 91 17
0 0 0 0 0 0 0 0 0 0 0 0 0 0 0 0 0 0 0 0 0 0 0 0 0 0 0 0 0 0 0 0 1 1 4 338 27 146 111 73 83 192 137 129 45 44 32 43 35
0 0 0 0 0 0 0 0 0 0 0 0 0 0 0 0 0 0 0 1 1 1 0 1 1 0 0 0 0 0 0 0 0 1 78 122 51 68 57 90 134 198 177 145 66 51 54 36 24
0 0 6 1 0 0 0 0 0 0 0 0 0 0 0 0 0 0 0 1 0 0 4 2 2 2 0 0 0 0 0 0 0 0 6 43 90 178 169 87 59 300 231 130 109 67 52 37 29
0 0 0 2 1 0 0 0 0 0 0 0 0 0 0 0 0 2 0 0 0 1 5 1 6 25 1 0 0 1 0 0 0 0 4 2 10 6 213 690 111 220 206 175 136 126 82 38 39
0 0 0 0 0 0 0 0 0 0 0 0 0 0 0 0 0 0 0 0 0 0 1 0 8 7 7 7 10 0 0 0 0 0 0 0 0 0 0 56 160 167 206 150 161 140 54 25 40
0 0 0 0 0 0 0 0 0 0 0 0 0 0 0 0 0 0 0 0 0 0 3 3 1 8 3 1 0 1 0 1 1 1 0 0 0 0 0 1 23 10 45 209 123 134 91 53 48
0 0 0 0 0 0 0 0 0 0 0 0 0 0 0 0 0 0 0 0 0 0 1 4 1 2 2 5 1 1 4 3 5 3 1 19 8 0 0 1 11 1 7 90 72 80 86 58 9
13 1 0 0 0 0 0 0 0 0 0 0 0 0 0 0 0 0 0 0 0 1 0 1 1 4 2 2 1 3 6 6 8 6 0 0 6 4 17 10 0 24 22 43 147 68 70 24 48

GFSSGP_con_mucape_162.txt.gz
CAPE
0 0 0 0 0 0 0 0 0 0 0 0 0 82 106 823 403 555 1015 939 875 749 790 895 2066 1985 1079 1847 1103 782 570 702 852 1046 1006 1268 1483 1474 1402 1198 1060 1002 1151 1191 996 858 682 374 351
0 0 0 0 0 0 0 0 0 0 0 16 313 353 102 379 805 912 1125 1406 1055 742 701 424 2077 2585 1977 1886 1432 1140 689 624 756 981 948 1320 1388 1436 1388 1092 1153 1085 1421 1223 956 720 605 383 214
0 0 0 0 0 0 0 0 0 0 118 16 19 335 66 780 958 983 1123 1556 1426 1216 841 361 2548 2657 2407 2026 1631 1300 795 678 1088 1001 1033 1225 1467 1486 1266 1196 1095 1351 1330 1249 950 780 576 397 219
0 0 0 0 0 0 0 0 0 0 130 0 155 47 778 1103 1239 1161 1252 1642 1641 1637 1313 1638 2845 2805 2515 2224 1898 1547 1151 580 1609 821 1359 1150 1476 1472 1311 1265 1338 1372 1450 1313 1032 879 500 384 245
0 0 0 0 0 0 0 0 0 0 0 0 109 156 587 1232 1326 1194 1469 1602 1827 1796 1656 1206 2712 2741 2616 2538 2205 1797 1449 826 1448 1062 1158 1575 1571 1610 1406 1333 1328 1485 1514 1405 1076 862 472 317 147
0 0 0 0 0 0 0 0 0 0 0 0 24 8 567 1039 1319 1194 1600 1642 1707 1913 1732 1381 2530 2998 2831 2582 2359 2001 1628 1094 1016 1243 1723 1460 1630 1637 1448 1351 1377 1466 1423 1332 1110 864 523 236 74
0 0 0 0 0 0 0 0 0 0 0 0 0 0 264 1074 1444 1222 1557 1622 1785 2003 1883 1750 1670 1939 2670 2633 2308 2153 1564 1105 1097 1264 1686 1644 1715 1634 1440 1560 1526 1511 1441 1192 1121 880 541 172 55
0 0 0 0 0 0 0 0 0 0 0 0 13 0 0 777 1502 1522 1709 1896 2018 2259 2201 2162 2258 1845 1545 1462 2339 2277 1667 1651 1316 1486 1747 1957 1953 1811 1694 1538 1607 1548 1410 1222 1111 806 502 144 11
0 0 0 0 0 0 0 0 0 0 0 0 0 0 0 891 1571 1674 1854 1918 2243 2391 2386 2344 2367 2114 1950 1773 1870 2258 2160 2238 1978 1896 1923 1513 1308 1329 1598 1462 1696 1532 1403 1220 1060 768 427 69 0
0 0 0 0 0 0 0 0 0 0 0 0 0 0 0 1092 1536 1510 1550 1442 1981 2314 2474 2527 2472 2305 2110 1616 1840 1788 1653 1674 1585 1405 1212 449 874 1019 1019 1350 1509 1477 1371 1191 1033 740 300 65 1
0 0 0 0 0 0 0 0 0 0 0 0 0 0 0 472 1060 958 665 773 1176 1567 2182 2468 2525 2447 2238 1866 2000 1780 1682 1637 1577 1524 1540 1331 821 1045 1082 1051 1105 1395 1217 1382 1003 600 172 61 3
0 0 0 0 0 0 0 0 0 0 0 0 0 0 0 18 132 602 108 93 84 855 2035 2377 2514 2206 2175 1961 1765 1762 1682 1544 1539 1512 1546 1408 1478 1194 914 975 854 1275 1115 976 1089 1095 249 7 17
0 0 0 0 0 0 0 0 0 0 0 0 0 0 0 0 0 36 55 39 0 2 640 1902 2512 2260 1971 2173 1912 1866 1889 1770 1582 1710 1653 1587 1471 1293 1080 1061 1083 1226 1089 1036 1005 593 189 111 97
0 0 0 0 0 0 0 0 0 0 0 0 0 0 0 0 0 12 310 54 0 0 79 1026 1889 2290 2123 1743 1955 1909 1714 1771 1701 1555 1469 1488 1274 1026 989 921 1042 1067 1203 1323 778 460 111 80 102
0 0 0 0 0 0 0 0 0 0 0 0 0 0 0 0 0 0 12 0 0 0 65 831 1291 1533 1735 1499 1641 1534 1561 1476 1119 1126 1041 1218 1111 920 752 608 626 665 805 626 482 290 99 113 97
0 0 0 0 0 0 0 0 0 0 0 0 0 0 0 0 0 0 0 0 0 0 4 201 283 640 1059 1025 1094 806 884 662 1010 797 371 343 395 443 738 630 527 649 769 594 535 237 115 142 80
0 0 0 0 0 0 0 0 0 0 0 0 0 0 0 0 0 0 0 0 0 0 0 0 0 0 300 657 708 433 289 451 334 209 262 376 306 394 391 485 453 389 377 411 429 195 129 104 76
0 0 0 0 0 0 0 0 0 0 0 0 0 0 0 0 0 0 0 0 0 0 0 0 0 0 0 17 343 266 138 140 106 233 227 223 315 335 366 334 410 339 441 339 413 311 173 159 85
0 0 0 0 0 0 0 0 0 0 0 0 0 0 0 0 0 0 0 0 0 0 0 0 0 0 0 0 6 60 139 139 48 87 208 274 259 319 265 376 413 268 427 279 241 108 138 126 68
0 0 0 0 0 0 0 0 0 0 0 0 0 0 0 0 0 0 0 0 0 0 0 0 0 0 0 0 0 0 1 15 49 50 159 306 244 235 474 412 529 440 338 221 98 156 97 46 40
0 0 0 0 0 0 0 0 0 0 0 0 0 0 0 0 0 0 0 0 0 0 0 0 0 0 0 0 0 0 3 11 21 66 94 164 252 163 188 266 427 522 342 164 37 49 70 16 17
0 0 0 0 0 0 0 0 0 0 0 0 0 0 0 0 0 0 0 0 0 0 0 0 0 0 0 0 0 0 0 1 12 70 102 162 181 126 110 278 460 471 346 234 194 109 64 95 15
0 0 0 0 0 0 0 0 0 0 0 0 0 0 0 0 0 0 0 0 0 0 0 0 0 0 0 0 0 0 0 2 9 41 97 184 75 48 53 236 313 201 168 172 128 94 77 71 55
0 0 0 0 0 0 0 0 0 0 0 0 0 0 0 0 0 0 0 0 0 0 3 4 5 4 1 0 0 0 7 6 11 20 4 20 93 229 50 112 129 115 122 189 146 130 60 50 61
0 0 0 0 0 0 0 0 0 0 0 0 0 0 0 0 0 0 3 2 0 2 5 5 1 4 6 1 5 20 13 3 23 10 2 16 44 190 107 112 132 138 196 198 206 85 119 96 53
0 0 0 0 0 0 0 0 0 0 0 0 0 0 0 0 0 8 4 2 3 8 3 2 6 12 6 0 0 1 2 3 4 6 2 7 18 123 45 50 259 175 244 348 265 142 133 70 36
37 27 2 4 0 0 0 0 0 0 0 0 0 0 0 2 4 3 6 4 5 12 4 4 5 4 4 6 11 0 0 0 0 0 0 3 4 9 55 15 111 130 216 317 292 210 116 91 57
182 72 28 13 1 0 0 0 0 0 0 0 0 0 2 1 3 10 8 8 10 13 12 5 8 4 2 4 5 0 0 0 0 0 0 0 0 2 2 8 75 187 201 223 151 140 221 130 59
228 118 71 86 9 33 0 0 0 0 0 0 0 0 1 8 6 12 11 11 12 13 12 22 18 14 17 18 0 0 0 4 5 4 5 1 0 0 5 12 12 18 63 141 126 167 97 127 100
49 110 136 150 96 48 48 0 0 0 0 0 0 0 0 2 5 6 8 10 12 9 11 15 15 14 10 1 2 1 4 2 7 6 4 0 0 0 0 1 0 17 43 39 13 108 41 77 87

GFSSGP_con_mucape_168.txt.gz
CAPE
45 0 0 31 2 0 0 0 0 0 0 0 0 1 165 612 1043 1195 1120 552 665 718 568 1681 2150 1473 902 652 770 980 1154 1002 804 1108 1369 1306 1303 1302 1197 1120 955 981 1037 984 811 488 235 328 278
0 0 0 0 0 0 0 0 0 0 0 0 0 35 2 599 736 1009 899 445 444 641 416 1262 2511 2141 1473 1203 663 601 820 892 930 817 915 1267 1375 1325 1235 1149 1014 1191 1141 959 714 587 466 236 140
0 0 0 0 0 0 0 0 0 0 0 0 16 19 209 361 654 1044 985 434 344 549 346 1190 2639 2344 2258 1771 1089 692 367 643 771 569 816 1094 1277 1329 1143 1152 1054 1338 1204 986 807 602 376 218 174
0 0 0 0 0 0 0 0 0 0 0 0 1 31 765 831 854 1284 1225 491 274 380 384 2079 2578 2699 2401 2010 1490 990 540 607 902 1024 650 1217 1367 1431 1343 1218 1332 1423 1286 1070 891 682 397 332 535
0 0 0 0 0 0 0 0 0 0 0 1 0 21 656 1091 1070 1198 1153 1000 652 319 1047 1760 2724 2678 2761 2558 1827 1295 803 668 1484 735 1300 1008 1482 1462 1469 1380 1368 1315 1366 1179 863 717 580 484 371
0 0 0 0 0 0 0 0 0 0 0 0 0 0 597 1073 982 1096 1190 1178 1111 957 946 1229 2742 3019 2832 2713 2263 1689 1234 683 1574 790 1003 1604 1478 1641 1579 1525 1409 1395 1433 1294 959 709 474 299 175
0 0 0 0 0 0 0 0 0 0 0 0 0 0 781 1068 1078 1053 1094 1158 1166 1151 1391 1517 1911 2471 2919 2886 2345 1833 1737 1168 1368 1082 1662 1487 1703 1905 1642 1653 1468 1512 1453 1398 1013 670 489 256 73
0 0 0 0 0 0 0 0 0 0 0 0 0 0 69 815 989 968 985 1116 1142 1318 1352 1622 1810 1881 1819 2068 2357 2022 1780 1855 1525 1592 1709 1809 1882 1839 1765 1717 1456 1466 1524 1423 1194 785 396 255 17
0 0 0 0 0 0 0 0 0 0 0 0 0 0 108 917 1025 1002 1016 1110 1442 1403 1307 1651 1289 1589 1509 1424 1823 2089 1855 1920 1861 1694 1821 1888 1303 1481 1491 1368 1776 1514 1409 1385 1190 783 588 189 1
0 0 0 0 0 0 0 0 0 0 0 0 0 0 0 489 771 1029 1129 1139 1404 1491 1451 1482 1640 1444 1568 1558 1588 1377 1531 1492 1447 985 894 1177 783 1063 1164 1192 1461 1560 1436 1238 1085 868 455 198 0
0 0 0 0 0 0 0 0 0 0 0 0 0 0 0 63 151 242 529 660 1384 1463 1382 1213 1799 1607 1492 1256 1336 1187 1300 1218 1234 1071 877 454 556 652 579 748 896 1066 1192 847 737 686 221 2 0
0 0 0 0 0 0 0 0 0 0 0 0 0 0 0 0 0 0 0 138 619 1335 1285 1124 1545 1754 1523 1322 1293 1111 959 891 823 859 720 620 571 566 554 659 669 846 870 712 605 598 330 33 25
0 0 0 0 0 0 0 0 0 0 0 0 0 0 0 0 0 0 0 0 102 656 1179 1351 1137 1538 1650 1315 1399 1295 1262 1052 833 761 850 796 557 477 444 353 360 510 539 622 637 511 322 117 79
0 0 0 0 0 0 0 0 0 0 0 0 0 0 0 0 0 0 0 0 0 6 1065 1250 1395 1282 1111 1400 1111 524 351 980 850 989 954 768 634 562 533 491 439 497 511 520 475 545 304 113 101
0 0 0 0 0 0 0 0 0 0 0 0 0 0 0 0 0 0 0 0 0 0 43 544 984 1007 768 536 653 657 812 741 675 780 627 698 697 549 374 307 270 437 334 289 580 396 287 92 83
0 0 0 0 0 0 0 0 0 0 0 0 0 0 0 0 0 0 0 0 0 0 11 60 456 779 836 455 829 795 773 831 815 647 763 688 646 364 410 140 41 354 270 401 462 499 169 65 90
0 0 0 0 0 0 0 0 0 0 0 0 0 0 0 0 0 0 0 0 0 0 0 8 100 493 714 362 851 645 518 547 479 449 564 260 458 432 260 149 172 222 350 381 382 294 124 91 104
0 0 0 0 0 0 0 0 0 0 0 0 0 0 0 0 0 0 0 0 0 0 0 33 80 127 294 373 820 491 358 338 189 111 170 114 205 178 70 74 121 139 104 246 274 219 357 310 150
0 0 0 0 0 0 0 0 0 0 0 0 0 0 0 0 0 0 0 0 0 0 0 0 32 50 141 153 626 347 43 87 93 44 8 85 76 47 62 32 59 110 65 106 202 237 182 237 130
0 0 0 0 0 0 0 0 0 0 0 0 0 0 0 0 0 0 0 0 0 0 0 0 0 0 0 20 52 197 18 0 0 61 19 21 35 38 46 47 20 30 80 86 189 91 146 113 91
0 0 0 0 0 0 0 0 0 0 0 0 0 0 0 0 0 0 0 0 0 0 0 0 0 0 0 0 0 0 0 0 0 0 0 0 8 2 91 47 13 41 72 66 98 106 115 78 59
0 0 0 0 0 0 0 1 0 0 0 0 0 0 0 0 0 0 0 0 0 0 0 0 0 0 0 0 0 0 0 0 0 0 0 0 20 52 41 43 19 36 63 50 58 72 84 80 53
0 0 0 0 0 0 0 0 0 0 0 0 0 0 0 0 0 0 0 0 0 0 0 0 0 0 0 0 0 0 0 0 0 11 8 21 39 36 32 0 3 8 46 53 48 42 58 32 7
0 0 0 7 0 0 0 0 0 0 0 0 0 0 0 0 0 0 0 0 2 0 0 0 0 0 0 0 0 0 0 0 0 6 14 35 14 23 22 0 2 25 76 61 48 51 48 34 22
1 0 3 26 3 0 8 4 0 0 3 0 0 0 0 0 0 0 0 0 10 9 0 0 0 0 0 0 0 0 0 0 0 9 14 2 0 39 3 2 86 89 45 11 28 49 53 53 50
0 35 63 91 25 57 108 35 7 0 0 0 0 0 0 0 0 2 0 5 17 31 1 4 4 4 0 0 0 0 0 0 0 4 0 0 3 3 5 117 61 23 11 19 33 57 59 65 86
1 0 2 105 80 70 24 37 25 31 10 0 0 0 0 0 0 16 17 18 20 35 5 1 3 3 0 0 3 3 1 3 6 9 10 67 8 33 74 196 110 239 53 76 48 36 64 49 8
0 0 0 143 305 85 72 10 2 31 113 13 0 4 14 2 6 15 17 34 35 6 14 8 4 5 3 5 3 1 2 1 5 16 1 1 1 0 2 133 149 227 131 204 145 104 73 104 53
0 4 21 3 54 89 37 36 148 211 180 76 20 18 39 2 8 12 28 36 38 2 24 9 7 9 2 9 4 1 4 2 3 1 0 0 0 0 3 12 19 209 198 333 189 199 132 80 84
0 2 50 0 0 16 10 0 89 47 39 57 83 114 112 4 2 16 49 43 15 4 10 8 6 15 13 4 0 8 3 0 0 0 0 0 0 0 0 0 2 71 74 144 204 142 135 96 94